[[{"header":{"parameterUnit":"m.s-1","parameterCategory":1,"la1":30.6,"la2":28.766,"lo1":-90.7593,"lo2":-88.6598,"dy":0.0162,"dx":0.0183,"nx":116,"ny":114,"refTime":"2023-08-08T06:00:00:Z","depth":0,"parameterNumber":2,"parameterNumberName":"U-component_of_WINDS"},"data":[0.0,0.0,0.0,0.0,0.0,0.0,0.0,0.0,0.0,0.0,0.0,0.0,0.0,0.0,0.0,0.0,0.0,0.0,0.0,0.0,0.0,0.0,0.0,0.0,0.0,0.0,0.0,0.0,0.0,0.0,0.0,0.0,0.0,0.0,0.0,0.0,0.0,0.0,0.0,0.0,0.0,0.0,0.0,0.0,0.0,0.0,0.0,0.0,0.0,0.0,0.0,0.0,0.0,0.0,0.0,0.0,0.0,0.0,0.0,0.0,0.0,0.0,0.0,0.0,0.0,0.0,0.0,0.0,0.0,0.0,0.0,0.0,0.0,0.0,0.0,0.0,0.0,0.0,0.0,0.0,0.0,0.0,0.0,0.0,0.0,0.0,0.0,0.0,0.0,0.0,0.0,0.0,0.0,0.0,0.0,0.0,0.0,0.0,0.0,0.0,0.0,0.0,0.0,0.0,0.0,0.0,0.0,0.0,0.0,0.0,0.0,0.0,0.0,0.0,0.0,0.0,0.0,0.0,0.0,0.0,0.0,0.0,0.0,0.0,0.0,0.0,0.0,0.0,0.0,0.0,0.0,0.0,0.0,0.0,0.0,0.0,0.0,0.0,0.0,0.0,0.0,0.0,0.0,0.0,0.0,0.0,0.0,0.0,0.0,0.0,0.0,0.0,0.0,0.0,0.0,0.0,0.0,0.0,0.0,0.0,0.0,0.0,0.0,0.0,0.0,0.0,0.0,0.0,0.0,0.0,0.0,0.0,0.0,0.0,0.0,0.0,0.0,0.0,0.0,0.0,0.0,0.0,0.0,0.0,0.0,0.0,0.0,0.0,0.0,0.0,0.0,0.0,0.0,0.0,0.0,0.0,0.0,0.0,0.0,0.0,0.0,0.0,0.0,0.0,0.0,0.0,0.0,0.0,0.0,0.0,0.0,0.0,0.0,0.0,0.0,0.0,0.0,0.0,0.0,0.0,0.0,0.0,0.0,0.0,0.0,0.0,0.0,0.0,0.0,0.0,0.0,0.0,0.0,0.0,0.0,0.0,0.0,0.0,0.0,0.0,0.0,0.0,0.0,0.0,0.0,0.0,0.0,0.0,0.0,0.0,0.0,0.0,0.0,0.0,0.0,0.0,0.0,0.0,0.0,0.0,0.0,0.0,0.0,0.0,0.0,0.0,0.0,0.0,0.0,0.0,0.0,0.0,0.0,0.0,0.0,0.0,0.0,0.0,0.0,0.0,0.0,0.0,0.0,0.0,0.0,0.0,0.0,0.0,0.0,0.0,0.0,0.0,0.0,0.0,0.0,0.0,0.0,0.0,0.0,0.0,0.0,0.0,0.0,0.0,0.0,0.0,0.0,0.0,0.0,0.0,0.0,0.0,0.0,0.0,0.0,0.0,0.0,0.0,0.0,0.0,0.0,0.0,0.0,0.0,0.0,0.0,0.0,0.0,0.0,0.0,0.0,0.0,0.0,0.0,0.0,0.0,0.0,0.0,0.0,0.0,0.0,0.0,0.0,0.0,0.0,0.0,0.0,0.0,0.0,0.0,0.0,0.0,0.0,0.0,0.0,0.0,0.0,0.0,0.0,0.0,0.0,0.0,0.0,0.0,0.0,0.0,0.0,0.0,0.0,0.0,0.0,0.0,0.0,0.0,0.0,0.0,0.0,0.0,0.0,0.0,0.0,0.0,0.0,0.0,0.0,0.0,0.0,0.0,0.0,0.0,0.0,0.0,0.0,0.0,0.0,0.0,0.0,0.0,0.0,0.0,0.0,0.0,0.0,0.0,0.0,0.0,0.0,0.0,0.0,0.0,0.0,0.0,0.0,0.0,0.0,0.0,0.0,0.0,0.0,0.0,0.0,0.0,0.0,0.0,0.0,0.0,0.0,0.0,0.0,0.0,0.0,0.0,0.0,0.0,0.0,0.0,0.0,0.0,0.0,0.0,0.0,0.0,0.0,0.0,0.0,0.0,0.0,0.0,0.0,0.0,0.0,0.0,0.0,0.0,0.0,0.0,0.0,0.0,0.0,0.0,0.0,0.0,0.0,0.0,0.0,0.0,0.0,0.0,0.0,0.0,0.0,0.0,0.0,0.0,0.0,0.0,0.0,0.0,0.0,0.0,0.0,0.0,0.0,0.0,0.0,0.0,0.0,0.0,0.0,0.0,0.0,0.0,0.0,0.0,0.0,0.0,0.0,0.0,0.0,0.0,0.0,0.0,0.0,0.0,0.0,0.0,0.0,0.0,0.0,0.0,0.0,0.0,0.0,0.0,0.0,0.0,0.0,0.0,0.0,0.0,0.0,0.0,0.0,0.0,0.0,0.0,0.0,0.0,0.0,0.0,0.0,0.0,0.0,0.0,0.0,0.0,0.0,0.0,0.0,0.0,0.0,0.0,0.0,0.0,0.0,0.0,0.0,0.0,0.0,0.0,0.0,0.0,0.0,0.0,0.0,0.0,0.0,0.0,0.0,0.0,0.0,0.0,0.0,0.0,0.0,0.0,0.0,0.0,0.0,0.0,0.0,0.0,0.0,0.0,0.0,0.0,0.0,0.0,0.0,0.0,0.0,0.0,0.0,0.0,0.0,0.0,0.0,0.0,0.0,0.0,0.0,0.0,0.0,0.0,0.0,0.0,0.0,0.0,0.0,0.0,0.0,0.0,0.0,0.0,0.0,0.0,0.0,0.0,0.0,0.0,0.0,0.0,0.0,0.0,0.0,0.0,0.0,0.0,0.0,0.0,0.0,0.0,0.0,0.0,0.0,0.0,0.0,0.0,0.0,0.0,0.0,0.0,0.0,0.0,0.0,0.0,0.0,0.0,0.0,0.0,0.0,0.0,0.0,0.0,0.0,0.0,0.0,0.0,0.0,0.0,0.0,0.0,0.0,0.0,0.0,0.0,0.0,0.0,0.0,0.0,0.0,0.0,0.0,0.0,0.0,0.0,0.0,0.0,0.0,0.0,0.0,0.0,0.0,0.0,0.0,0.0,0.0,0.0,0.0,0.0,0.0,0.0,0.0,0.0,0.0,0.0,0.0,0.0,0.0,0.0,0.0,0.0,0.0,0.0,0.0,0.0,0.0,0.0,0.0,0.0,0.0,0.0,0.0,0.0,0.0,0.0,0.0,0.0,0.0,0.0,0.0,0.0,0.0,0.0,0.0,0.0,0.0,0.0,0.0,0.0,0.0,0.0,0.0,0.0,0.0,0.0,0.0,0.0,0.0,0.0,0.0,0.0,0.0,0.0,0.0,0.0,0.0,0.0,0.0,0.0,0.0,0.0,0.0,0.0,0.0,0.0,0.0,0.0,0.0,0.0,0.0,0.0,0.0,0.0,0.0,0.0,0.0,0.0,0.0,0.0,0.0,0.0,0.0,0.0,0.0,0.0,0.0,0.0,0.0,0.0,0.0,0.0,0.0,0.0,0.0,0.0,0.0,0.0,0.0,0.0,0.0,0.0,0.0,0.0,0.0,0.0,0.0,0.0,0.0,0.0,0.0,0.0,0.0,0.0,0.0,0.0,0.0,0.0,0.0,0.0,0.0,0.0,0.0,0.0,0.0,0.0,0.0,0.0,0.0,0.0,0.0,0.0,0.0,0.0,0.0,0.0,0.0,0.0,0.0,0.0,0.0,0.0,0.0,0.0,0.0,0.0,0.0,0.0,0.0,0.0,0.0,0.0,0.0,0.0,0.0,0.0,0.0,0.0,0.0,0.0,0.0,0.0,0.0,0.0,0.0,0.0,0.0,0.0,0.0,0.0,0.0,0.0,0.0,0.0,0.0,0.0,0.0,0.0,0.0,0.0,0.0,0.0,0.0,0.0,0.0,0.0,0.0,0.0,0.0,0.0,0.0,0.0,0.0,0.0,0.0,0.0,0.0,0.0,0.0,0.0,0.0,0.0,0.0,0.0,0.0,0.0,0.0,0.0,0.0,0.0,0.0,0.0,0.0,0.0,0.0,0.0,0.0,0.0,0.0,0.0,0.0,0.0,0.0,0.0,0.0,0.0,0.0,0.0,0.0,0.0,0.0,0.0,0.0,0.0,0.0,0.0,0.0,0.0,0.0,0.0,0.0,0.0,0.0,0.0,0.0,0.0,0.0,0.0,0.0,0.0,0.0,0.0,0.0,0.0,0.0,0.0,0.0,0.0,0.0,0.0,0.0,0.0,0.0,0.0,0.0,0.0,0.0,0.0,0.0,0.0,0.0,0.0,0.0,0.0,0.0,0.0,0.0,0.0,0.0,0.0,0.0,0.0,0.0,0.0,0.0,0.0,0.0,0.0,0.0,0.0,0.0,0.0,0.0,0.0,0.0,0.0,0.0,0.0,0.0,0.0,0.0,0.0,0.0,0.0,0.0,0.0,0.0,0.0,0.0,0.0,0.0,0.0,0.0,0.0,0.0,0.0,0.0,0.0,0.0,0.0,0.0,0.0,0.0,0.0,0.0,0.0,0.0,0.0,0.0,0.0,0.0,0.0,0.0,0.0,0.0,0.0,0.0,0.0,0.0,0.0,0.0,0.0,0.0,0.0,0.0,0.0,0.0,0.0,0.0,0.0,0.0,0.0,0.0,0.0,0.0,0.0,0.0,0.0,0.0,0.0,0.0,0.0,0.0,0.0,0.0,0.0,0.0,0.0,0.0,0.0,0.0,0.0,0.0,0.0,0.0,0.0,0.0,0.0,0.0,0.0,0.0,0.0,0.0,0.0,0.0,0.0,0.0,0.0,0.0,0.0,0.0,0.0,0.0,0.0,0.0,0.0,0.0,0.0,0.0,0.0,0.0,0.0,0.0,0.0,0.0,0.0,0.0,0.0,0.0,0.0,0.0,0.0,0.0,0.0,0.0,0.0,0.0,0.0,0.0,0.0,0.0,0.0,0.0,0.0,0.0,0.0,0.0,0.0,0.0,0.0,0.0,0.0,0.0,0.0,0.0,0.0,0.0,0.0,0.0,0.0,0.0,0.0,0.0,0.0,0.0,0.0,0.0,0.0,0.0,0.0,0.0,0.0,0.0,0.0,0.0,0.0,0.0,0.0,0.0,0.0,0.0,0.0,0.0,0.0,0.0,0.0,0.0,0.0,0.0,0.0,0.0,0.0,0.0,0.0,0.0,0.0,0.0,0.0,0.0,0.0,0.0,0.0,0.0,0.0,0.0,0.0,0.0,0.0,0.0,0.0,0.0,0.0,0.0,0.0,0.0,0.0,0.0,0.0,0.0,0.0,0.0,0.0,0.0,0.0,0.0,0.0,0.0,0.0,0.0,0.0,0.0,0.0,0.0,0.0,0.0,0.0,0.0,0.0,0.0,0.0,0.0,0.0,0.0,0.0,0.0,0.0,0.0,0.0,0.0,0.0,0.0,0.0,0.0,0.0,0.0,0.0,0.0,0.0,0.0,0.0,0.0,0.0,0.0,0.0,0.0,0.0,0.0,0.0,0.0,0.0,0.0,0.0,0.0,0.0,0.0,0.0,0.0,0.0,0.0,0.0,0.0,0.0,0.0,0.0,0.0,0.0,0.0,0.0,0.0,0.0,0.0,0.0,0.0,0.0,0.0,0.0,0.0,0.0,0.0,0.0,0.0,0.0,0.0,0.0,0.0,0.0,0.0,0.0,0.0,0.0,0.0,0.0,0.0,0.0,0.0,0.0,0.0,0.0,0.0,0.0,0.0,0.0,0.0,0.0,0.0,0.0,0.0,0.0,0.0,0.0,0.0,0.0,0.0,0.0,0.0,0.0,0.0,0.0,0.0,0.0,0.0,0.0,0.0,0.0,0.0,0.0,0.0,0.0,0.0,0.0,0.0,0.0,0.0,0.0,0.0,0.0,0.0,0.0,0.0,0.0,0.0,0.0,0.0,0.0,0.0,0.0,0.0,0.0,0.0,0.0,0.0,0.0,0.0,0.0,0.0,0.0,0.0,0.0,0.0,0.0,0.0,0.0,0.0,0.0,0.0,0.0,0.0,0.0,0.0,0.0,0.0,0.0,0.0,0.0,0.0,0.0,0.0,0.0,0.0,0.0,0.0,0.0,0.0,0.0,0.0,0.0,0.0,0.0,0.0,0.0,0.0,0.0,0.0,0.0,0.0,0.0,0.0,0.0,0.0,0.0,-1.161,-1.1191,0.0,0.0,0.0,0.0,0.0,0.0,0.0,0.0,0.0,0.0,0.0,0.0,0.0,0.0,0.0,0.0,0.0,0.0,0.0,0.0,0.0,0.0,0.0,0.0,0.0,0.0,0.0,0.0,0.0,0.0,0.0,0.0,0.0,0.0,0.0,0.0,0.0,0.0,0.0,0.0,0.0,0.0,0.0,0.0,0.0,0.0,0.0,0.0,0.0,0.0,0.0,0.0,0.0,0.0,0.0,0.0,0.0,0.0,0.0,0.0,0.0,0.0,0.0,0.0,0.0,0.0,0.0,0.0,0.0,0.0,0.0,0.0,0.0,0.0,0.0,0.0,0.0,0.0,0.0,0.0,0.0,0.0,0.0,0.0,0.0,0.0,0.0,0.0,0.0,0.0,0.0,0.0,0.0,0.0,0.0,0.0,0.0,0.0,0.0,0.0,0.0,0.0,0.0,0.0,0.0,0.0,0.0,0.0,0.0,0.0,0.0,0.0,0.0,0.0,-1.3553,-1.2627,0.0,0.0,0.0,0.0,0.0,0.0,0.0,0.0,0.0,0.0,0.0,0.0,0.0,0.0,0.0,0.0,0.0,0.0,0.0,0.0,0.0,0.0,0.0,0.0,0.0,0.0,0.0,0.0,0.0,0.0,0.0,0.0,0.0,0.0,0.0,0.0,0.0,0.0,0.0,0.0,0.0,0.0,0.0,0.0,0.0,0.0,0.0,0.0,0.0,0.0,0.0,0.0,0.0,0.0,0.0,0.0,0.0,0.0,0.0,0.0,0.0,0.0,0.0,0.0,0.0,0.0,0.0,0.0,0.0,0.0,0.0,0.0,0.0,0.0,0.0,0.0,0.0,0.0,0.0,0.0,0.0,0.0,0.0,0.0,0.0,0.0,0.0,0.0,0.0,0.0,0.0,0.0,0.0,0.0,0.0,0.0,0.0,0.0,0.0,0.0,0.0,0.0,0.0,0.0,0.0,0.0,0.0,0.0,-1.6627,-1.8197,-1.9975,-1.9619,-1.9587,-1.9579,-1.6501,-1.5195,-1.5282,-1.5624,0.0,0.0,0.0,0.0,0.0,0.0,0.0,0.0,0.0,0.0,0.0,0.0,0.0,0.0,0.0,0.0,0.0,0.0,0.0,0.0,0.0,0.0,0.0,0.0,0.0,0.0,0.0,0.0,0.0,0.0,0.0,0.0,0.0,0.0,0.0,0.0,0.0,0.0,0.0,0.0,0.0,0.0,0.0,0.0,0.0,0.0,0.0,0.0,0.0,0.0,0.0,0.0,0.0,0.0,0.0,0.0,0.0,0.0,0.0,0.0,0.0,0.0,0.0,0.0,0.0,0.0,0.0,0.0,0.0,0.0,0.0,0.0,0.0,0.0,0.0,0.0,0.0,0.0,0.0,0.0,0.0,0.0,0.0,0.0,0.0,0.0,-1.2059,-1.238,0.0,0.0,0.0,0.0,0.0,0.0,0.0,0.0,0.0,0.0,0.0,0.0,0.0,-1.4949,-1.7614,-1.8984,-1.9704,-1.9854,-2.1118,-2.1517,-2.1112,-2.1795,-2.1585,-2.0705,-2.06,0.0,-1.7014,-1.6333,0.0,0.0,0.0,0.0,0.0,0.0,0.0,0.0,0.0,0.0,0.0,0.0,0.0,0.0,0.0,0.0,0.0,0.0,0.0,0.0,0.0,0.0,0.0,0.0,0.0,0.0,0.0,0.0,0.0,0.0,0.0,0.0,0.0,0.0,0.0,0.0,0.0,0.0,0.0,0.0,0.0,0.0,0.0,0.0,0.0,0.0,0.0,0.0,0.0,0.0,0.0,0.0,0.0,0.0,0.0,0.0,0.0,0.0,0.0,0.0,0.0,0.0,0.0,0.0,0.0,0.0,0.0,0.0,0.0,0.0,0.0,0.0,0.0,0.0,0.0,0.0,0.0,0.0,0.0,0.0,0.0,0.0,0.0,0.0,0.0,-1.2513,-1.2332,-1.1381,-1.105,-1.0614,0.0,0.0,0.0,0.0,0.0,0.0,0.0,0.0,0.0,-1.7802,-1.7812,-1.8723,-2.061,-2.1453,-2.2514,-2.3781,-2.3705,-2.433,-2.5521,-2.4441,-2.3813,-2.3525,-2.3108,-2.1947,-2.0146,-1.8535,-1.7725,-1.7474,0.0,0.0,0.0,0.0,-2.0374,-2.1264,0.0,0.0,0.0,0.0,0.0,0.0,0.0,0.0,0.0,0.0,0.0,0.0,0.0,0.0,0.0,0.0,0.0,0.0,0.0,0.0,0.0,0.0,0.0,0.0,0.0,0.0,0.0,0.0,0.0,0.0,0.0,0.0,0.0,0.0,0.0,0.0,0.0,0.0,0.0,0.0,0.0,0.0,0.0,0.0,0.0,0.0,0.0,0.0,0.0,0.0,0.0,0.0,0.0,0.0,0.0,0.0,0.0,0.0,0.0,0.0,0.0,0.0,0.0,0.0,0.0,0.0,0.0,0.0,0.0,0.0,0.0,0.0,0.0,0.0,0.0,0.0,0.0,-1.2537,-1.231,-1.0518,-1.1005,-1.1034,0.0,0.0,0.0,0.0,0.0,0.0,-1.7762,-1.9189,-2.0643,-2.2128,-2.2207,-2.2855,-2.4186,-2.4495,-2.5625,-2.7518,-2.6534,-2.7102,-2.9014,-2.7081,-2.5959,-2.5478,-2.4692,-2.3725,-2.251,-2.0459,-1.9597,-1.9489,-1.9297,-1.9638,-2.0424,-2.1552,-2.2555,-2.36,0.0,0.0,0.0,0.0,0.0,0.0,0.0,0.0,0.0,0.0,0.0,0.0,0.0,0.0,0.0,0.0,0.0,0.0,0.0,0.0,0.0,0.0,0.0,0.0,0.0,0.0,0.0,0.0,0.0,0.0,0.0,0.0,0.0,0.0,0.0,0.0,0.0,0.0,0.0,0.0,0.0,0.0,0.0,0.0,0.0,0.0,0.0,0.0,0.0,0.0,0.0,0.0,0.0,0.0,0.0,0.0,0.0,0.0,0.0,0.0,0.0,0.0,0.0,0.0,0.0,0.0,0.0,0.0,0.0,0.0,0.0,0.0,0.0,0.0,0.0,0.0,0.0,0.0,0.0,-1.0434,-1.0515,0.0,0.0,0.0,0.0,-1.7451,-1.9468,-2.1119,-2.2387,-2.3467,-2.4658,-2.607,-2.695,-2.8324,-3.015,-3.0188,-3.0528,-3.1132,-3.0551,-3.0052,-2.9546,-2.9427,-2.7921,-2.5394,-2.5351,-2.4459,-2.2925,-2.1221,-2.1113,-2.1924,-2.1104,-2.1476,-2.2581,-2.3703,-2.427,-2.4657,0.0,0.0,0.0,0.0,0.0,0.0,0.0,0.0,0.0,0.0,0.0,0.0,0.0,0.0,0.0,0.0,0.0,0.0,0.0,0.0,0.0,0.0,0.0,0.0,0.0,0.0,0.0,0.0,0.0,0.0,0.0,0.0,0.0,0.0,0.0,0.0,0.0,0.0,0.0,0.0,0.0,0.0,0.0,0.0,0.0,0.0,0.0,0.0,0.0,0.0,0.0,0.0,0.0,0.0,0.0,0.0,0.0,0.0,0.0,0.0,0.0,0.0,0.0,0.0,0.0,0.0,0.0,0.0,0.0,0.0,0.0,0.0,0.0,0.0,0.0,0.0,0.0,0.0,0.0,-1.2479,-1.3232,0.0,-1.563,-1.6712,-1.8185,-2.0299,-2.256,-2.4649,-2.6509,-2.8035,-2.9441,-3.0689,-3.0658,-3.0938,-3.1637,-3.1286,-3.1386,-3.1913,-3.0597,-3.0013,-3.0067,-2.8205,-2.6799,-2.5818,-2.5067,-2.4296,-2.355,-2.3634,-2.3598,-2.3446,-2.315,-2.3917,-2.5252,-2.5955,-2.6715,-2.7599,0.0,0.0,0.0,0.0,0.0,0.0,0.0,0.0,0.0,0.0,0.0,0.0,0.0,0.0,0.0,0.0,0.0,0.0,0.0,0.0,0.0,0.0,0.0,0.0,0.0,0.0,0.0,0.0,0.0,0.0,0.0,0.0,0.0,0.0,0.0,0.0,0.0,0.0,0.0,0.0,0.0,0.0,-2.1317,0.0,0.0,0.0,0.0,0.0,0.0,0.0,0.0,0.0,0.0,0.0,0.0,0.0,0.0,0.0,0.0,0.0,0.0,0.0,0.0,0.0,0.0,0.0,0.0,0.0,0.0,0.0,0.0,0.0,0.0,0.0,0.0,0.0,0.0,-1.2746,-1.3923,-1.5283,-1.64,-1.7861,-1.9813,-2.0896,-2.2194,-2.3933,-2.6201,-2.8196,-2.9819,-3.0925,-3.1902,-3.2672,-3.2296,-3.2099,-3.2099,-3.1818,-3.1951,-3.2491,-3.0701,-2.993,-2.9973,-2.7646,-2.6318,-2.5717,-2.4954,-2.4536,-2.4385,-2.5117,-2.5466,-2.5536,-2.5525,-2.6409,-2.7736,-2.8027,-2.8586,-2.9429,0.0,0.0,0.0,0.0,0.0,0.0,0.0,0.0,0.0,0.0,0.0,0.0,0.0,0.0,0.0,0.0,0.0,0.0,0.0,0.0,0.0,0.0,0.0,0.0,0.0,0.0,0.0,0.0,0.0,0.0,0.0,0.0,0.0,0.0,0.0,0.0,0.0,0.0,0.0,0.0,0.0,0.0,-2.2982,0.0,0.0,0.0,0.0,0.0,0.0,0.0,0.0,0.0,0.0,0.0,0.0,0.0,0.0,0.0,0.0,0.0,0.0,0.0,0.0,0.0,0.0,0.0,0.0,0.0,0.0,0.0,0.0,0.0,0.0,0.0,0.0,0.0,-1.3984,-1.4816,-1.6277,-1.8739,-1.9869,-2.1342,-2.3706,-2.5378,-2.6979,-2.855,-3.0366,-3.1662,-3.2185,-3.2019,-3.1906,-3.1872,-3.1906,-3.194,-3.194,-3.2124,-3.2516,-3.3025,-3.1214,-3.002,-2.9315,-2.8085,-2.6652,-2.5135,-2.5135,-2.5227,-2.5455,-2.5509,-2.6563,-2.8108,-2.8096,-2.8806,-2.9792,-2.9792,-2.983,-2.9972,0.0,0.0,0.0,0.0,0.0,0.0,0.0,0.0,0.0,0.0,0.0,0.0,0.0,0.0,0.0,0.0,0.0,0.0,0.0,0.0,0.0,0.0,0.0,0.0,0.0,0.0,0.0,0.0,0.0,0.0,0.0,0.0,0.0,0.0,0.0,0.0,0.0,0.0,0.0,0.0,0.0,0.0,-2.4098,0.0,0.0,0.0,0.0,0.0,0.0,0.0,0.0,0.0,0.0,0.0,0.0,0.0,0.0,0.0,0.0,0.0,0.0,0.0,0.0,0.0,0.0,0.0,0.0,0.0,0.0,0.0,0.0,0.0,0.0,0.0,-1.5644,-1.6938,-1.5763,-1.7452,-1.9573,-2.1549,-2.3796,-2.6119,-2.8482,-2.9129,-3.008,-3.1725,-3.1926,-3.201,-3.2103,-3.2359,-3.2277,-3.178,-3.2254,-3.2485,-3.2485,-3.2746,-3.2451,-3.1733,-3.0312,-2.9136,-2.8038,-2.6802,-2.5993,-2.5557,-2.5557,-2.5926,-2.6553,-2.7388,-2.8105,-2.866,-2.8238,-2.8806,-2.9792,-2.9792,-3.0241,-3.0758,0.0,0.0,0.0,0.0,0.0,0.0,0.0,0.0,0.0,0.0,0.0,0.0,0.0,0.0,0.0,0.0,0.0,0.0,0.0,0.0,0.0,0.0,0.0,0.0,0.0,0.0,0.0,0.0,0.0,0.0,0.0,0.0,0.0,0.0,0.0,0.0,0.0,0.0,0.0,0.0,0.0,0.0,-2.6267,-2.4054,-2.3502,-2.3809,-2.2774,-2.251,-2.2493,-2.1656,0.0,0.0,0.0,0.0,0.0,0.0,0.0,0.0,0.0,0.0,0.0,0.0,0.0,0.0,0.0,0.0,0.0,0.0,0.0,0.0,0.0,0.0,0.0,0.0,-1.9387,-2.1242,-2.0975,-2.178,-2.3381,-2.6119,-2.7911,-2.9813,-3.2079,-3.2316,-3.2727,-3.369,-3.294,-3.2342,-3.211,-3.1618,-3.1065,-3.0515,-3.1406,-3.1876,-3.1876,-3.291,-3.2771,-3.1466,-3.0479,-2.9266,-2.7825,-2.6563,-2.5908,-2.5732,-2.6245,-2.6904,-2.7688,-2.889,-2.9597,-2.9906,0.0,0.0,0.0,0.0,-3.0826,-3.1177,0.0,0.0,0.0,0.0,0.0,0.0,0.0,0.0,0.0,0.0,0.0,0.0,0.0,0.0,0.0,0.0,0.0,0.0,0.0,0.0,0.0,0.0,0.0,0.0,0.0,0.0,0.0,0.0,0.0,0.0,0.0,0.0,0.0,0.0,0.0,0.0,0.0,0.0,0.0,0.0,0.0,0.0,-2.8662,-2.659,-2.6402,-2.7115,-2.5561,-2.4412,-2.3559,-2.2912,0.0,0.0,0.0,0.0,0.0,0.0,0.0,0.0,0.0,0.0,0.0,0.0,0.0,0.0,0.0,0.0,0.0,0.0,0.0,0.0,0.0,0.0,0.0,0.0,-2.3881,-2.5862,-2.7778,-2.711,-2.766,-3.0937,-3.1632,-3.2597,-3.4535,-3.4731,-3.4768,-3.4768,-3.3502,-3.2497,-3.2001,-3.0428,0.0,0.0,0.0,-3.0622,-3.0489,-3.2613,-3.2959,-3.1459,-3.0925,-2.9737,-2.8004,-2.6983,-2.627,-2.6034,-2.7208,-2.8125,-2.8981,-3.01,-3.0974,-3.1524,-3.0934,-3.0708,-3.0758,-3.1223,-3.1386,-3.1323,0.0,0.0,0.0,0.0,0.0,0.0,0.0,0.0,0.0,0.0,0.0,0.0,0.0,0.0,0.0,0.0,0.0,0.0,0.0,0.0,0.0,0.0,0.0,0.0,0.0,0.0,0.0,0.0,0.0,0.0,0.0,0.0,0.0,0.0,0.0,0.0,0.0,0.0,0.0,0.0,0.0,0.0,-2.875,-2.7457,-2.7128,-2.718,-2.6449,-2.6578,-2.6917,-2.546,-2.5347,-2.5423,-2.3045,0.0,0.0,0.0,0.0,0.0,0.0,0.0,0.0,0.0,0.0,0.0,0.0,0.0,0.0,0.0,0.0,0.0,0.0,0.0,0.0,-2.3977,-2.7307,-2.9965,-3.1113,-3.2224,-3.2381,-3.0941,-3.3089,-3.4691,-3.4693,-3.5082,-3.5345,-3.5345,-3.3708,-3.2219,-3.1181,-3.007,-2.9003,-2.7934,-2.9728,-3.0198,-2.9169,-3.1228,-3.1171,-2.8924,-2.9093,0.0,-2.723,-2.6986,-2.7182,-2.7759,-2.799,-2.9069,-3.0737,-3.1454,-3.2147,-3.2696,-3.1637,-3.1248,-3.1248,-3.1348,-3.1386,-3.1373,0.0,0.0,0.0,0.0,0.0,0.0,0.0,0.0,0.0,0.0,0.0,0.0,0.0,0.0,0.0,0.0,0.0,0.0,0.0,0.0,0.0,0.0,0.0,0.0,0.0,0.0,0.0,0.0,0.0,0.0,0.0,0.0,0.0,0.0,0.0,0.0,0.0,0.0,0.0,0.0,0.0,0.0,-2.9917,-2.8595,-2.8424,-2.873,-2.7683,-2.7457,-2.7519,-2.6436,-2.6248,-2.6101,-2.4167,-2.3188,-2.2468,0.0,0.0,0.0,0.0,0.0,0.0,0.0,0.0,0.0,0.0,0.0,0.0,0.0,0.0,-2.0198,0.0,0.0,-2.6287,-2.8279,-3.0934,-3.2897,-3.3379,-3.4682,-3.4944,-3.3228,-3.4487,-3.5495,-3.5542,-3.5793,-3.5662,-3.5023,-3.3431,-3.1844,-3.0384,-2.9434,-2.8825,-2.8716,-3.0245,-3.0794,-3.0164,-3.1861,-3.1401,-2.8854,-2.9304,-2.8768,-2.7386,-2.8024,-2.8459,-2.8645,-2.998,-3.1123,-3.2134,-3.3013,-3.3588,-3.3847,-3.3269,-3.2541,-3.1838,-3.2127,-3.2227,-3.219,0.0,0.0,0.0,0.0,0.0,0.0,0.0,0.0,0.0,0.0,0.0,0.0,0.0,0.0,0.0,0.0,0.0,0.0,0.0,0.0,0.0,0.0,0.0,0.0,0.0,0.0,0.0,0.0,0.0,0.0,0.0,0.0,0.0,0.0,0.0,0.0,0.0,0.0,0.0,0.0,0.0,0.0,-3.0882,-2.9325,-2.9367,-3.0026,-2.8371,-2.7369,-2.6741,-2.6323,-2.5933,-2.546,-2.472,-2.4406,-2.3929,-2.2062,-2.1794,0.0,0.0,0.0,0.0,0.0,0.0,0.0,0.0,0.0,-2.015,-2.1553,-2.3142,-2.4897,-2.6724,-2.8808,-3.0804,-3.2542,-3.3962,-3.4881,-3.5027,-3.5805,-3.6157,-3.5558,-3.5596,-3.583,-3.6169,-3.6342,-3.581,-3.4483,-3.3105,-3.1559,-2.9895,-2.912,-2.8951,-2.9394,-3.0765,-3.1257,-3.0771,-3.2044,-3.1504,-2.9147,-2.9942,-2.9569,-2.8234,-2.9578,-3.0063,-2.9997,-3.2277,-3.3306,-3.3496,-3.4454,-3.4876,-3.4876,-3.4876,-3.3985,-3.2742,-3.3106,-3.3212,-3.3048,0.0,0.0,0.0,0.0,0.0,0.0,0.0,0.0,0.0,0.0,0.0,0.0,0.0,0.0,0.0,0.0,0.0,0.0,0.0,0.0,0.0,0.0,0.0,0.0,0.0,0.0,0.0,0.0,0.0,0.0,0.0,0.0,0.0,0.0,0.0,0.0,0.0,0.0,0.0,0.0,0.0,0.0,-3.0316,-2.8802,-2.8777,-2.9342,-2.7376,-2.5975,-2.5084,-2.4988,-2.5272,-2.5661,-2.6097,-2.5871,-2.5272,-2.4537,0.0,-2.1378,-2.0334,-1.9095,-1.8385,-1.9716,-1.9849,-2.065,0.0,0.0,-2.6531,-2.8394,-2.9659,-3.0675,-3.149,-3.2223,-3.3247,-3.486,-3.5265,-3.5583,-3.6153,-3.6329,-3.6157,-3.5558,-3.5968,-3.6107,-3.5633,-3.6081,-3.581,-3.4483,-3.3105,-3.1702,-3.0296,-3.013,-2.9587,-2.8479,-3.0445,-3.0421,-2.8167,-2.9341,-2.9239,-2.7917,-2.9549,-3.0193,-3.0037,-3.1404,-3.2381,-3.3064,-3.4066,-3.4761,-3.521,-3.5361,-3.5408,-3.5408,-3.5408,-3.4994,-3.4387,-3.396,-3.3495,-3.3111,0.0,0.0,0.0,0.0,0.0,0.0,0.0,0.0,0.0,0.0,0.0,0.0,0.0,0.0,0.0,0.0,0.0,0.0,0.0,0.0,0.0,0.0,0.0,0.0,0.0,0.0,0.0,0.0,0.0,0.0,0.0,0.0,0.0,0.0,0.0,0.0,0.0,0.0,0.0,0.0,0.0,0.0,-3.0118,-2.7605,-2.6843,-2.6916,-2.5549,-2.4305,0.0,0.0,-2.3957,-2.4821,-2.538,-2.54,-2.5029,-2.4185,-2.348,0.0,-2.128,-2.0878,-2.0941,0.0,-2.2578,-2.437,-2.6451,-2.7637,-2.8925,-3.0951,-3.2406,-3.3708,-3.4981,-3.5345,-3.5722,0.0,-3.6232,-3.6094,-3.6367,-3.6094,-3.568,-3.5082,-3.4989,-3.4964,-3.5006,-3.5567,-3.534,-3.3958,-3.3646,-3.2894,-3.1531,-3.148,-3.1354,-3.1021,-3.1629,-3.1215,-2.9635,-2.987,-2.9725,-2.9237,-2.9974,-3.0721,-3.1531,-3.2894,-3.4133,-3.5203,-3.5522,-3.5805,-3.6019,-3.6019,-3.6019,-3.6019,-3.6019,-3.568,-3.5044,-3.4223,-3.3759,-3.3508,0.0,0.0,0.0,0.0,0.0,0.0,0.0,0.0,0.0,0.0,0.0,0.0,0.0,0.0,0.0,0.0,0.0,0.0,0.0,0.0,0.0,0.0,0.0,0.0,0.0,0.0,0.0,0.0,0.0,0.0,0.0,0.0,0.0,0.0,0.0,0.0,0.0,0.0,0.0,0.0,0.0,0.0,-2.886,-2.6332,-2.5039,-2.4461,-2.3618,-2.2477,0.0,0.0,-2.2419,-2.3336,-2.4351,-2.4551,-2.4338,-2.3872,-2.3463,-2.2904,-2.167,-2.2199,0.0,-2.3316,-2.5678,-2.8212,-2.906,-3.0423,-3.1938,-3.3608,-3.4943,-3.6199,-3.7216,-3.7287,-3.7186,-3.7186,-3.6769,-3.6355,-3.6157,-3.5667,-3.5019,-3.4349,-3.3771,-3.3596,-3.3953,-3.4768,-3.4786,-3.3613,-3.4076,-3.3773,-3.2381,-3.2807,-3.3107,-3.3081,-3.2734,-3.2263,-3.1634,-3.0757,-3.0473,-3.0876,-3.1235,-3.1938,-3.2944,-3.4313,-3.5642,-3.6849,-3.6534,-3.6581,-3.6849,-3.6534,-3.6405,-3.6405,-3.6405,-3.6119,-3.5608,-3.47,-3.4161,-3.3847,0.0,0.0,0.0,0.0,0.0,0.0,0.0,0.0,0.0,0.0,0.0,0.0,0.0,0.0,0.0,0.0,0.0,0.0,0.0,0.0,0.0,0.0,0.0,0.0,0.0,0.0,0.0,0.0,0.0,0.0,0.0,0.0,0.0,0.0,0.0,0.0,0.0,0.0,0.0,0.0,0.0,0.0,-2.5869,-2.5118,-2.3849,-2.241,-2.1785,0.0,0.0,0.0,-2.0688,-2.1101,-2.3416,-2.3684,0.0,-2.4504,-2.3058,-2.1116,-2.12,0.0,-2.3697,-2.6223,-2.8898,-3.1496,-3.3922,-3.5744,-3.7138,-3.7715,-3.8316,-3.863,-3.8078,-3.755,-3.7186,-3.7186,-3.6769,-3.6182,-3.5596,-3.5044,-3.4349,-3.3257,-3.2616,-3.2277,-3.229,-3.3784,-3.4391,-3.3577,-3.4076,-3.3773,-3.2381,-3.4105,-3.4547,-3.3247,-3.3184,-3.3184,-3.3155,-3.1266,-3.0968,-3.228,-3.3613,-3.4288,-3.4385,-3.5715,-3.6977,-3.7984,-3.6883,-3.7023,-3.7984,-3.6849,-3.6405,-3.6405,-3.6405,-3.6405,-3.6317,-3.5658,-3.4768,-3.3897,0.0,0.0,0.0,0.0,0.0,0.0,0.0,0.0,0.0,0.0,0.0,0.0,0.0,0.0,0.0,0.0,0.0,0.0,0.0,0.0,0.0,0.0,0.0,0.0,0.0,0.0,0.0,0.0,0.0,0.0,0.0,0.0,0.0,0.0,0.0,0.0,0.0,0.0,0.0,0.0,0.0,0.0,-2.5606,-2.3393,-2.1978,-2.1141,0.0,0.0,0.0,0.0,-1.9765,-2.0408,-2.2017,0.0,0.0,-2.2435,-2.2518,-2.2604,-2.3601,0.0,-2.8485,-3.0269,-3.2666,-3.5009,-3.6552,-3.763,-3.8241,-3.8052,-3.7877,-3.7475,-3.6546,-3.5617,-3.5002,-3.5002,-3.5165,-3.5215,-3.4981,-3.5107,-3.4542,-3.2717,-3.2667,-3.2491,-3.1738,-3.2855,-3.382,-3.425,-3.4829,-3.5242,-3.5539,-3.615,-3.6219,-3.5514,-3.4871,-3.4215,-3.3627,-3.2285,-3.2342,-3.3712,-3.5066,-3.6106,-3.6853,-3.7296,-3.8166,-3.9227,-3.803,-3.7756,-3.803,-3.6896,-3.6405,-3.6405,-3.6405,-3.6405,-3.6392,-3.6157,-3.5629,-3.4893,0.0,0.0,0.0,0.0,0.0,0.0,0.0,0.0,0.0,0.0,0.0,0.0,0.0,0.0,0.0,0.0,0.0,0.0,0.0,0.0,0.0,0.0,0.0,0.0,0.0,0.0,0.0,0.0,0.0,0.0,0.0,0.0,0.0,0.0,0.0,0.0,0.0,0.0,0.0,0.0,0.0,0.0,-2.381,-2.1996,-2.1038,0.0,0.0,0.0,0.0,0.0,0.0,-2.0333,-2.1103,-2.1506,-2.1706,-2.1761,-2.2987,-2.4666,-2.6367,-2.9118,-3.1939,-3.3794,-3.5767,-3.7536,-3.8404,-3.8743,-3.8743,-3.8074,-3.7108,-3.604,-3.4748,-3.3437,-3.2625,-3.2948,-3.3144,-3.3489,-3.4311,-3.4342,-3.3928,-3.2943,-3.2792,-3.2641,-3.2315,-3.2943,-3.3746,-3.4605,-3.5545,-3.6445,-3.7149,-3.7563,-3.748,-3.672,-3.6077,-3.5384,-3.4491,-3.3719,-3.3924,-3.5126,-3.6402,-3.7368,-3.8107,-3.8559,-3.9183,-3.9855,-3.8604,-3.8107,-3.803,-3.6896,-3.6405,-3.6405,-3.6405,-3.6405,-3.6405,-3.6405,-3.6132,-3.5755,0.0,0.0,0.0,0.0,0.0,0.0,0.0,0.0,0.0,0.0,0.0,0.0,0.0,0.0,0.0,0.0,0.0,0.0,0.0,0.0,0.0,0.0,0.0,0.0,0.0,0.0,0.0,0.0,0.0,0.0,0.0,0.0,0.0,0.0,0.0,0.0,0.0,0.0,0.0,0.0,0.0,0.0,-2.0694,-2.0993,0.0,0.0,0.0,0.0,0.0,0.0,0.0,0.0,-2.0779,-2.1996,-2.3258,-2.2727,-2.4519,-2.719,-2.939,-3.1625,-3.396,-3.6609,-3.809,-3.9095,-3.9534,-3.9258,-3.8675,-3.782,-3.617,-3.4395,0.0,0.0,-3.028,-3.1147,-3.1027,-3.1515,-3.3608,-3.3043,-3.2805,0.0,0.0,0.0,0.0,0.0,-3.4152,-3.4665,-3.6223,-3.7125,-3.7055,-3.8229,-3.8234,-3.678,-3.686,-3.6598,-3.5967,-3.5497,-3.5673,-3.6405,-3.754,-3.8107,-3.8243,-3.936,-3.9942,-3.9942,-3.8649,-3.8107,-3.803,-3.6896,-3.6405,-3.6405,-3.6405,-3.6405,-3.6405,-3.6405,-3.6405,-3.6329,0.0,0.0,0.0,0.0,0.0,0.0,0.0,0.0,0.0,0.0,0.0,0.0,0.0,0.0,0.0,0.0,0.0,0.0,0.0,0.0,0.0,0.0,0.0,0.0,0.0,0.0,0.0,0.0,0.0,0.0,0.0,0.0,0.0,0.0,0.0,0.0,0.0,0.0,0.0,0.0,0.0,0.0,-2.1355,0.0,0.0,0.0,0.0,0.0,0.0,0.0,0.0,0.0,0.0,-2.308,-2.4702,-2.5709,-2.7695,-3.0043,-3.2252,-3.4763,-3.7023,-3.8165,-3.8969,-3.9421,-3.9145,-3.8872,-3.8088,-3.6129,-3.419,-3.2162,0.0,0.0,0.0,-2.971,-3.185,0.0,-3.3847,-3.47,0.0,-3.4575,0.0,-3.5253,-3.5094,-3.4878,-3.4763,-3.4895,-3.596,-3.6174,-3.5155,-3.7526,-3.8395,-3.7316,-3.7983,-3.83,-3.8113,-3.7159,-3.6596,-3.6405,-3.754,-3.8559,-3.9448,-3.9768,-4.0361,-4.1028,-3.8979,-3.8107,-3.803,-3.6896,-3.6405,-3.6405,-3.6405,-3.6405,-3.6405,-3.6405,-3.6405,-3.6392,0.0,0.0,0.0,0.0,0.0,0.0,0.0,0.0,0.0,0.0,0.0,0.0,0.0,0.0,0.0,0.0,0.0,0.0,0.0,0.0,0.0,0.0,0.0,0.0,0.0,0.0,0.0,0.0,0.0,0.0,0.0,0.0,0.0,0.0,0.0,0.0,0.0,0.0,0.0,0.0,0.0,0.0,0.0,0.0,0.0,0.0,0.0,0.0,0.0,0.0,0.0,-2.2216,-2.3441,-2.4982,-2.6644,-2.8269,0.0,-3.2842,-3.4813,-3.6835,-3.8517,-3.9094,-3.9283,-3.9095,-3.8127,-3.7482,-3.6328,-3.3991,-3.1981,0.0,-2.7996,-2.7767,-2.7905,0.0,0.0,0.0,-3.3411,-3.4537,-3.5416,0.0,-3.6132,0.0,-3.5696,-3.5445,-3.4902,-3.3855,-3.4855,-3.5486,-3.54,-3.7232,-3.8044,-3.7506,-3.8613,-3.912,-3.8919,-3.8541,-3.8075,-3.7522,-3.9235,-4.0295,-4.0661,-4.0661,-4.0703,-4.0746,-3.8903,-3.7802,-3.7276,-3.6675,-3.6405,-3.6405,-3.6405,-3.6405,-3.6405,-3.6405,-3.6405,-3.6405,0.0,0.0,0.0,0.0,0.0,0.0,0.0,0.0,0.0,0.0,0.0,0.0,0.0,0.0,0.0,0.0,0.0,0.0,0.0,0.0,0.0,0.0,0.0,0.0,0.0,0.0,0.0,0.0,0.0,0.0,0.0,0.0,0.0,0.0,0.0,0.0,0.0,0.0,0.0,0.0,0.0,0.0,0.0,0.0,0.0,0.0,0.0,0.0,0.0,0.0,-2.2413,-2.265,-2.5274,-2.7212,-2.8888,-3.0645,-3.2955,-3.5303,-3.696,-3.8178,-3.9094,-3.9572,-3.9259,-3.8459,-3.6909,-3.5648,-3.4113,-3.1722,0.0,-2.8026,-2.652,-2.5954,-2.593,-2.6622,0.0,-3.0483,-3.2887,-3.3658,-3.4826,-3.7023,-3.6857,-3.6367,-3.6066,-3.5805,-3.4694,-3.2472,-3.3486,-3.4789,-3.6145,-3.7056,-3.7571,-3.7796,-3.9025,-3.9523,-3.9158,-3.9715,-3.9706,-3.9196,-4.1504,-4.2164,-4.1378,-4.1378,-4.0746,-3.9579,-3.8379,-3.7322,-3.6405,-3.6405,-3.6405,-3.6405,-3.6405,-3.6405,-3.6405,-3.6405,-3.6405,-3.6405,0.0,0.0,0.0,0.0,0.0,0.0,0.0,0.0,0.0,0.0,0.0,0.0,0.0,0.0,0.0,0.0,0.0,0.0,0.0,0.0,0.0,0.0,0.0,0.0,0.0,0.0,0.0,0.0,0.0,0.0,0.0,0.0,0.0,0.0,0.0,0.0,0.0,0.0,0.0,0.0,0.0,0.0,0.0,0.0,0.0,0.0,0.0,0.0,0.0,0.0,-2.4778,-2.6033,-2.73,-2.9151,-3.1235,-3.3382,-3.4989,-3.6493,-3.8177,-3.9057,-3.9572,-3.9672,-3.9177,-3.8181,-3.6365,-3.4874,0.0,0.0,-2.8045,-2.6564,-2.518,-2.571,-2.6563,-2.724,-2.935,-3.1563,-3.3474,-3.4223,-3.5403,0.0,-3.7374,-3.7085,-3.7219,-3.5668,-3.4172,-3.3022,-3.3166,-3.3447,-3.3727,-3.6094,-3.8072,-3.9297,-3.9581,-3.9956,-4.0468,-4.0592,-4.0589,-4.0488,-4.1909,-4.1768,-4.0189,-4.0189,-3.9536,-3.8334,-3.7196,-3.6581,-3.6405,-3.6405,-3.6405,-3.6405,-3.6405,-3.6405,-3.6405,-3.6405,-3.6405,-3.6405,0.0,0.0,0.0,0.0,0.0,0.0,0.0,0.0,0.0,0.0,-1.6217,-1.5781,0.0,0.0,0.0,0.0,0.0,0.0,0.0,0.0,0.0,0.0,0.0,0.0,0.0,0.0,0.0,0.0,0.0,0.0,0.0,0.0,0.0,0.0,0.0,0.0,0.0,0.0,0.0,0.0,0.0,0.0,0.0,0.0,0.0,0.0,0.0,0.0,0.0,0.0,-2.4783,-2.6684,-2.8608,-3.0203,-3.1825,-3.406,-3.5504,-3.6782,-3.8454,-3.927,-3.9622,-3.9333,-3.8736,-3.7494,-3.4837,0.0,0.0,0.0,-2.6292,-2.527,-2.4246,-2.4886,0.0,-2.6116,-2.7509,-2.9409,-3.1836,-3.2654,0.0,-3.6822,-3.7174,-3.7147,-3.7099,-3.5478,-3.4032,-3.3149,-3.3077,-3.3462,-3.4181,-3.6791,-3.8541,-3.9258,-3.927,-3.9892,-4.1182,-4.094,-4.0951,-4.1284,-4.1541,-4.1021,-3.9899,-3.9271,-3.8649,-3.8017,-3.6883,-3.6405,-3.6405,-3.6405,-3.6405,-3.6405,-3.6405,-3.6405,-3.6405,-3.6405,-3.6803,-3.7276,0.0,0.0,0.0,0.0,0.0,0.0,0.0,-1.6013,-1.6414,-1.6999,-1.6857,-1.6635,-1.6461,-1.5061,0.0,0.0,0.0,0.0,0.0,0.0,0.0,0.0,0.0,0.0,0.0,0.0,0.0,-1.8262,0.0,0.0,0.0,0.0,0.0,0.0,0.0,0.0,0.0,0.0,0.0,0.0,0.0,0.0,0.0,0.0,0.0,0.0,0.0,0.0,0.0,0.0,-2.396,-2.5642,-2.8141,-3.001,-3.1615,-3.3463,-3.5039,-3.6546,-3.8228,-3.9094,-3.9511,-3.931,-3.8502,-3.6953,-3.39,-3.1811,0.0,0.0,-2.4948,-2.4194,-2.3525,0.0,-2.4317,0.0,-2.5299,-2.6841,-2.9806,-3.1009,-3.2717,0.0,-3.6671,0.0,-3.6522,-3.5299,-3.4049,-3.2854,-3.3205,-3.4084,-3.5514,-3.7697,-3.8919,-3.8919,-3.9158,-3.9974,-4.1406,-4.1298,-4.1315,-4.1487,-4.1035,-4.0363,-3.9492,-3.8514,-3.7984,-3.7678,-3.6803,-3.6405,-3.6405,-3.6405,-3.6405,-3.6405,-3.6405,-3.6405,-3.6405,-3.6405,-3.6977,-3.7756,0.0,0.0,0.0,0.0,0.0,0.0,0.0,-1.5991,-1.6396,-1.6932,-1.6833,-1.6583,-1.6264,-1.5423,0.0,0.0,0.0,0.0,0.0,0.0,0.0,0.0,0.0,0.0,0.0,0.0,0.0,-1.7506,-1.8943,0.0,0.0,0.0,0.0,0.0,0.0,-1.9512,0.0,0.0,0.0,0.0,0.0,0.0,0.0,0.0,0.0,0.0,0.0,0.0,0.0,0.0,0.0,-2.2831,-2.4419,-2.7607,-3.0894,-3.1539,0.0,0.0,-3.7638,-3.8504,-3.9221,-4.02,-3.9021,-3.7071,-3.493,0.0,0.0,-2.6174,-2.4582,-2.3517,-2.2889,-2.2795,-2.293,0.0,0.0,-2.5879,0.0,-3.0846,-3.3006,-3.5295,0.0,0.0,-3.5946,-3.5297,-3.4039,-3.1885,-3.3443,-3.51,-3.649,-3.8068,-3.8919,-3.8919,-4.0039,-4.0724,-4.0861,-4.1977,-4.1952,-4.0883,-4.0827,-3.9905,-3.8243,-3.8153,-3.754,-3.6534,-3.6452,-3.6405,-3.6405,-3.6405,-3.6405,-3.6405,-3.6405,-3.6405,-3.6405,-3.6405,-3.6452,-3.6709,0.0,0.0,0.0,0.0,0.0,0.0,0.0,-1.5217,-1.5635,-1.6104,-1.6197,-1.622,-1.6194,-1.5581,-1.4955,0.0,0.0,0.0,0.0,0.0,0.0,0.0,0.0,0.0,0.0,0.0,-1.6542,-1.6677,-1.7659,0.0,0.0,0.0,0.0,0.0,0.0,-1.8758,-1.909,0.0,0.0,0.0,0.0,0.0,0.0,0.0,0.0,0.0,0.0,0.0,0.0,0.0,0.0,0.0,-2.0702,-2.2764,0.0,0.0,-3.1135,-3.372,-3.6753,-3.8808,-4.0151,-4.0542,-3.9008,-3.6789,-3.4554,0.0,-2.7231,-2.5878,-2.3918,-2.2513,-2.2667,-2.2041,-2.1681,0.0,0.0,0.0,-2.5979,0.0,-2.9553,-3.3075,-3.4336,0.0,0.0,-3.5677,-3.4731,-3.4196,-3.5223,-3.6474,-3.7934,-3.8925,-3.9282,-3.892,-3.9406,-4.0214,-4.1327,-4.0039,-3.9534,-3.9766,-3.8655,-3.7761,-3.7057,-3.7057,-3.6849,-3.6405,-3.6405,-3.6405,-3.6405,-3.6405,-3.6405,-3.6405,-3.6405,-3.6405,-3.6499,-3.715,-3.7861,-3.8572,0.0,0.0,0.0,0.0,0.0,0.0,-1.4735,-1.4882,-1.5171,-1.563,-1.5601,-1.5618,-1.5824,-1.5304,-1.4816,-1.4531,0.0,0.0,0.0,0.0,0.0,0.0,0.0,0.0,0.0,0.0,-1.5695,-1.621,-1.6712,-1.7063,0.0,0.0,-1.7933,-1.8184,0.0,0.0,0.0,0.0,0.0,0.0,0.0,0.0,0.0,0.0,0.0,0.0,0.0,0.0,0.0,0.0,0.0,0.0,0.0,0.0,0.0,0.0,-2.8638,-3.1625,-3.5301,-3.806,-3.997,-4.0263,-3.8339,-3.5844,0.0,0.0,-2.5922,-2.542,-2.3377,-2.1835,-2.2315,-2.1537,-2.0853,0.0,0.0,-2.1242,-2.391,-2.5347,-2.7381,-3.0834,0.0,-3.4135,-3.6031,-3.5345,-3.5125,-3.5945,-3.6279,-3.7131,-3.8595,-3.9721,-4.0041,-3.944,-3.9459,-3.9935,-4.0872,-3.8781,-3.7955,-3.8264,-3.6993,-3.6405,-3.6405,-3.6405,-3.6405,-3.6405,-3.6405,-3.6405,-3.6405,-3.6405,-3.6405,-3.6405,-3.6405,-3.6405,-3.6534,-3.7678,-3.8649,-3.9404,0.0,0.0,0.0,0.0,0.0,0.0,0.0,-1.5304,-1.522,-1.5825,-1.5209,-1.4796,-1.4994,-1.4467,-1.4219,-1.4476,0.0,0.0,0.0,0.0,0.0,0.0,0.0,0.0,0.0,0.0,0.0,-1.621,-1.6466,-1.6847,-1.7296,-1.6633,-1.7253,-1.88,0.0,0.0,0.0,0.0,0.0,0.0,0.0,0.0,0.0,0.0,0.0,0.0,0.0,0.0,0.0,0.0,0.0,0.0,0.0,0.0,0.0,0.0,-2.6293,-3.0171,-3.3203,-3.5855,-3.8007,-3.9209,-3.6958,-3.408,0.0,0.0,-2.5336,-2.4736,-2.3069,-2.1688,-2.1717,-2.1197,-2.0572,-1.9939,0.0,0.0,-2.2957,-2.5523,-2.7682,0.0,-3.0896,-3.2679,-3.3822,-3.4203,-3.4933,-3.6275,-3.6147,-3.6616,-3.8037,-4.0236,-4.1241,-4.068,-4.0755,-4.0173,-3.8932,-3.9025,-3.8192,-3.6417,-3.6417,-3.6405,-3.6405,-3.6405,-3.6405,-3.6405,-3.6405,-3.6405,-3.6405,-3.6405,-3.6405,-3.6405,-3.6405,-3.6405,-3.6534,-3.7678,-3.8107,-3.8289,0.0,0.0,0.0,0.0,0.0,0.0,0.0,-1.4678,-1.446,-1.4461,-1.3927,-1.3547,-1.3556,-1.3564,-1.3589,-1.3673,0.0,0.0,0.0,0.0,0.0,0.0,0.0,0.0,0.0,0.0,0.0,-1.621,-1.6282,-1.6541,-1.6939,-1.6514,-1.6681,-1.7364,-1.6713,-1.7379,0.0,0.0,0.0,0.0,0.0,0.0,0.0,0.0,0.0,0.0,0.0,0.0,0.0,0.0,0.0,0.0,0.0,0.0,0.0,0.0,0.0,0.0,-2.9314,-3.2089,-3.4349,-3.465,-3.314,-3.1292,-3.0106,0.0,-2.3263,-2.2841,-2.149,-2.0434,-2.0533,-2.0322,-2.0182,-2.0378,0.0,0.0,0.0,0.0,0.0,-2.9817,-3.3018,-3.519,-3.5588,-3.5715,-3.6273,-3.7448,-3.7827,-3.8721,-4.0418,-4.1537,-4.1866,-4.1341,-4.0597,-3.9999,-3.9601,-3.8044,-3.6981,-3.6405,-3.7196,-3.754,-3.7586,-3.8437,-3.8796,-3.8796,-3.8796,-3.8796,-3.8707,-3.7906,-3.754,-3.754,-3.754,-3.754,-3.7802,-3.9757,-4.0504,-4.0419,0.0,0.0,0.0,0.0,0.0,0.0,0.0,-1.3939,-1.3579,-1.3114,-1.2496,-1.2315,-1.2879,-1.2882,-1.3091,-1.3697,0.0,0.0,0.0,0.0,0.0,0.0,0.0,0.0,0.0,0.0,-1.5533,-1.621,-1.6319,-1.6649,-1.7175,-1.6936,-1.7136,-1.7698,-1.744,-1.81,0.0,0.0,0.0,0.0,0.0,0.0,-2.1597,0.0,0.0,0.0,0.0,0.0,0.0,0.0,0.0,0.0,0.0,0.0,0.0,0.0,-2.1309,0.0,0.0,-2.9102,-3.1182,-3.1351,-3.0146,0.0,0.0,0.0,-2.2122,-2.2205,-2.0759,-1.9602,-1.995,-1.973,-1.9623,-1.9987,-2.0978,0.0,0.0,0.0,0.0,-3.052,-3.3583,-3.5734,-3.6371,-3.6814,-3.7507,-3.8693,-3.9275,-4.0182,-4.1532,-4.2107,-4.2334,-4.2263,-4.0717,-3.9899,-3.9899,-3.7553,-3.6405,-3.6405,-3.754,-3.8107,-3.8153,-3.936,-3.9899,-3.9899,-3.9899,-3.9899,0.0,-3.9094,-3.8783,-3.8783,-3.8783,-3.8783,-3.9006,-4.0901,-4.1337,-4.0873,0.0,0.0,0.0,0.0,0.0,0.0,0.0,0.0,0.0,0.0,-1.1147,-1.126,-1.2691,-1.2454,-1.2792,0.0,0.0,0.0,0.0,0.0,0.0,0.0,0.0,0.0,0.0,-1.5135,-1.5554,-1.6142,-1.657,-1.7136,-1.7818,-1.7761,-1.8353,-1.9403,-1.8765,-1.939,-2.0911,-2.068,-2.0938,-2.1495,-2.1276,-2.1325,0.0,0.0,0.0,0.0,0.0,0.0,0.0,0.0,0.0,0.0,0.0,0.0,0.0,0.0,0.0,0.0,0.0,0.0,0.0,0.0,0.0,0.0,0.0,0.0,0.0,-2.2369,-2.0689,-1.9295,-1.9874,-1.9475,-1.9083,-1.9158,-2.0125,0.0,0.0,-2.4494,0.0,0.0,-3.3122,-3.4817,-3.6426,-3.7612,-3.8738,-3.9942,-4.047,-4.105,-4.1713,-4.2191,-4.2723,-4.3265,-4.1183,-3.9986,-3.9899,-3.7553,-3.6405,-3.6405,-3.7632,-3.8243,-3.8289,-3.9579,-4.0159,-4.0159,-4.0159,-4.0159,-4.0159,-4.0073,-4.0029,-4.0029,-4.0029,-4.0029,-4.0159,-4.1295,-4.1,-4.0029,0.0,0.0,0.0,0.0,0.0,0.0,0.0,0.0,0.0,0.0,0.0,-1.1653,-1.141,-1.2374,0.0,0.0,0.0,0.0,0.0,0.0,0.0,0.0,0.0,0.0,0.0,-1.5526,-1.5892,-1.5581,-1.6898,-1.7654,-1.7882,-1.8125,-1.8812,-1.9844,-1.9374,-1.9515,-2.0208,-2.1006,-2.1119,-2.0776,-2.0977,-2.1083,0.0,0.0,0.0,0.0,-1.8891,-1.8559,0.0,0.0,0.0,0.0,0.0,0.0,0.0,0.0,-1.9722,-2.0094,-2.0891,0.0,-2.3236,-2.2892,-2.281,-2.2835,0.0,0.0,0.0,0.0,0.0,0.0,-1.9925,-1.9712,-1.9899,-2.0765,0.0,-2.2799,-2.3502,-2.7306,0.0,-3.2929,-3.55,-3.7254,-3.7544,-3.8737,-3.9972,-4.1127,-4.1339,-4.1829,-4.286,-4.3008,-4.3144,-4.3305,-4.1947,-4.0788,-3.9899,-3.7553,-3.6405,-3.6405,-3.8482,-3.9492,-3.9536,-4.1574,-4.2508,-4.2508,-4.2508,-4.2508,-4.2426,-4.156,-4.1211,-4.1211,-4.1211,-4.1211,-4.1337,-4.2467,-4.2167,-4.1085,0.0,0.0,0.0,0.0,0.0,0.0,0.0,0.0,0.0,0.0,0.0,0.0,0.0,0.0,0.0,0.0,0.0,0.0,0.0,0.0,0.0,0.0,0.0,0.0,0.0,-1.585,-1.644,-1.6819,-1.7963,-1.8732,-1.9112,-1.943,-2.0001,-2.0723,-2.0508,-2.0399,-2.0415,-2.0696,-2.0787,-2.0723,-2.0557,0.0,0.0,0.0,0.0,0.0,-1.8468,-1.8438,0.0,-1.7947,-1.8027,-1.8477,0.0,0.0,0.0,0.0,-1.9821,-1.9945,-1.9747,-2.0438,-2.1231,-2.1171,-2.144,-2.1844,0.0,0.0,0.0,0.0,0.0,0.0,0.0,0.0,0.0,0.0,-2.2033,0.0,0.0,0.0,-3.2579,-3.4982,-3.6878,-3.8431,-3.948,-4.0252,-4.1127,-4.229,-4.2371,-4.2644,-4.325,-4.329,-4.329,-4.329,-4.2193,-4.1295,-4.0703,-3.8917,-3.7997,-3.8043,-3.9828,-4.0703,-4.0746,-4.2508,-4.329,-4.329,-4.329,-4.329,-4.325,-4.2629,-4.2371,-4.2371,-4.2371,-4.1896,-4.1321,-4.2213,-4.1144,-3.9198,0.0,0.0,0.0,0.0,0.0,0.0,0.0,0.0,0.0,0.0,0.0,0.0,0.0,0.0,0.0,0.0,0.0,0.0,0.0,0.0,0.0,0.0,0.0,-1.5095,-1.574,-1.6125,-1.6982,-1.8323,-1.9048,-1.9791,-2.0527,-2.0904,-2.1244,-2.1506,-2.1567,-2.1272,-2.0687,-2.0178,-2.0258,-2.0687,-2.0099,0.0,0.0,0.0,0.0,0.0,0.0,0.0,0.0,-1.8283,-1.8458,-1.8893,-1.8893,0.0,0.0,0.0,0.0,0.0,-1.9892,-2.0389,-2.1081,-2.1321,-2.147,-2.1829,0.0,0.0,0.0,0.0,0.0,0.0,0.0,-1.9584,0.0,0.0,0.0,0.0,-2.9802,-3.1822,-3.3946,-3.6982,-3.8006,-3.9283,-4.135,-4.161,-4.1988,-4.2981,-4.3036,-4.2991,-4.2887,-4.315,-4.32,-4.3006,-4.2181,-4.1662,-4.156,-4.0448,-3.9899,-3.9899,-4.1042,-4.1587,-4.1629,-4.2765,-4.329,-4.329,-4.3185,-4.314,-4.314,-4.3035,-4.305,-4.314,-4.2862,-4.1934,-4.083,-4.1017,-3.9144,-3.6545,0.0,0.0,0.0,0.0,0.0,0.0,0.0,0.0,0.0,0.0,0.0,0.0,0.0,0.0,0.0,0.0,0.0,0.0,0.0,0.0,0.0,0.0,0.0,-1.5195,-1.5134,-1.6291,-1.7086,-1.7481,-1.8772,-1.9805,-2.06,-2.1223,-2.1353,-2.1102,-2.1445,-2.0811,-1.9508,-2.0023,-1.9946,-1.9491,-1.9663,0.0,0.0,0.0,0.0,0.0,0.0,0.0,0.0,-1.8283,-1.8458,-1.8893,-1.8893,0.0,0.0,0.0,0.0,0.0,-2.0212,-2.1284,-2.2014,-2.0412,-2.0423,-2.0897,0.0,0.0,0.0,0.0,0.0,0.0,0.0,-2.2171,-2.3379,0.0,0.0,-3.1017,-3.4232,-3.577,-3.7056,-3.8357,-4.0006,-4.1131,-4.1383,-4.1525,-4.167,-4.185,-4.185,-4.1618,-4.1042,-4.2469,-4.2836,-4.1713,-4.2091,-4.1989,-4.1439,-4.0406,-3.9899,-3.9899,-4.1042,-4.1587,-4.1629,-4.2765,-4.329,-4.326,-4.2746,-4.2545,-4.25,-4.1908,-4.2013,-4.2408,-4.0925,-4.0517,-4.0634,-3.9239,-3.7795,-3.6362,0.0,0.0,0.0,0.0,0.0,0.0,0.0,0.0,0.0,0.0,0.0,0.0,0.0,0.0,0.0,0.0,0.0,0.0,0.0,0.0,0.0,0.0,-1.5868,-1.6228,-1.6305,-1.7147,-1.8042,-1.8968,-1.9911,-2.0766,-2.1515,-2.1569,-2.1384,-2.0991,-2.0927,-2.0361,-1.9472,-1.9446,-1.9248,-1.894,0.0,0.0,0.0,0.0,0.0,0.0,0.0,0.0,0.0,0.0,-1.8893,-1.9332,-1.9332,0.0,0.0,0.0,0.0,0.0,-2.0035,-2.0786,-2.1395,-2.0468,-2.1261,-2.2202,0.0,0.0,0.0,0.0,0.0,0.0,0.0,0.0,-2.5631,-2.8216,-3.1165,-3.3944,-3.6139,-3.7201,-3.8351,-4.0015,-4.0974,-4.172,-4.2378,-4.2465,-4.2508,-4.2508,-4.2508,-4.2228,-4.1621,-4.2337,-4.2372,-4.1414,-4.1707,-4.1722,-4.1422,-4.0933,-4.0903,-4.1235,-4.2129,-4.2508,-4.2534,-4.2704,-4.2806,-4.2776,-4.2156,-4.1871,-4.1856,-4.1542,-4.1228,-4.0915,-4.0108,-3.9057,-3.7786,-3.6075,-3.5296,-3.4979,0.0,0.0,0.0,0.0,0.0,0.0,0.0,0.0,0.0,0.0,0.0,0.0,0.0,0.0,0.0,0.0,0.0,0.0,0.0,0.0,-1.553,-1.5218,-1.6474,-1.7322,-1.7555,-1.8045,-1.9041,-2.0587,-2.1007,-2.158,-2.2296,-2.1809,-2.1384,-2.0975,-2.0516,-2.0087,-1.9678,-1.9151,-1.8927,-1.8927,0.0,0.0,0.0,0.0,0.0,0.0,0.0,0.0,0.0,0.0,0.0,0.0,0.0,0.0,0.0,-1.9929,-2.0054,-2.0229,-1.9912,-2.0381,-2.0833,-2.0391,0.0,-2.3001,-2.3238,0.0,0.0,0.0,0.0,0.0,0.0,-2.5955,0.0,-3.1921,-3.437,-3.6419,-3.8156,-3.8879,-3.9883,-4.1637,-4.1833,-4.2177,-4.303,-4.2986,-4.2767,-4.2471,-4.2589,-4.2322,-4.1561,-4.1927,-4.1796,-4.095,-4.107,-4.107,-4.092,-4.107,-4.1512,-4.2171,-4.2641,-4.288,-4.2826,-4.2396,-4.2171,-4.2126,-4.1482,-4.1145,-4.113,-4.0739,-4.0191,-3.9524,-3.8877,-3.714,-3.4875,-3.3551,-3.3345,-3.3646,0.0,0.0,0.0,0.0,0.0,0.0,0.0,0.0,0.0,0.0,0.0,0.0,0.0,0.0,0.0,0.0,0.0,0.0,0.0,0.0,-1.6054,-1.5834,-1.7051,-1.7831,-1.8056,-1.8558,-1.9607,-2.1132,-2.1187,-2.158,-2.2296,-2.1809,-2.1384,-2.0975,-2.0516,-2.0087,-1.9708,-1.9648,-1.9633,-1.9633,-1.9633,0.0,0.0,0.0,0.0,0.0,0.0,0.0,0.0,0.0,0.0,0.0,0.0,0.0,-2.0297,-2.0263,-2.028,-2.0297,-2.0263,-2.0938,-2.1223,-1.9459,0.0,0.0,-2.3933,-2.3703,0.0,0.0,0.0,0.0,0.0,-2.9395,-3.2184,-3.5583,-3.7769,-3.9771,-4.1727,-4.2548,-4.2956,-4.314,-4.3155,-4.2985,-4.2515,-4.2019,-4.1194,-3.9971,-4.0432,-4.027,-3.9005,-4.0577,-4.0876,-3.9568,-4.0157,-4.0172,-3.9574,-4.0172,-4.0801,-4.1444,-4.1542,-4.1519,-4.1519,-4.1474,-4.1444,-4.1414,-4.0756,-4.0472,-4.0353,-3.8725,-3.8395,-3.8624,-3.6076,-3.4324,-3.3248,-3.3136,-3.3106,-3.3131,0.0,0.0,0.0,0.0,0.0,0.0,0.0,0.0,0.0,0.0,0.0,0.0,0.0,0.0,0.0,0.0,0.0,0.0,0.0,0.0,-1.5911,-1.5714,-1.7059,-1.8048,-1.8597,-1.9251,-2.0111,-2.119,-2.1651,-2.188,-2.1869,-2.1431,-2.0991,-2.055,-2.0122,-1.9839,-1.9678,-1.9273,-1.9076,-1.9076,-1.9076,-1.8956,0.0,0.0,0.0,0.0,0.0,0.0,0.0,0.0,-1.9132,0.0,0.0,0.0,-1.9927,-1.9927,-1.9927,-1.9927,-1.9927,-2.0779,-2.1431,-2.03,0.0,0.0,0.0,0.0,0.0,0.0,-3.0731,0.0,0.0,0.0,-3.4173,-3.6656,-3.8736,-4.0576,-4.2186,-4.262,-4.2731,-4.2731,-4.2372,-4.2028,-4.1811,-4.159,-4.1283,-4.0742,-4.0934,-4.0683,-3.9799,-4.001,-3.9738,-3.8811,-3.8616,-3.8422,-3.8167,-3.8422,-3.8661,-3.8931,-4.0591,-4.1422,-4.1407,-4.095,-4.0771,-4.0726,-4.0083,-3.9783,-3.9695,-3.8373,-3.7348,-3.6434,-3.4079,-3.3123,-3.3124,-3.3124,-3.3513,-3.4066,0.0,0.0,0.0,0.0,0.0,0.0,0.0,0.0,0.0,0.0,0.0,0.0,0.0,0.0,0.0,0.0,0.0,0.0,0.0,-1.5705,-1.6055,-1.5944,-1.7047,-1.8075,-1.9018,-1.9438,-2.0162,-2.119,-2.1938,-2.2046,-2.1582,-2.1023,-2.0601,-2.028,-1.9699,-1.9548,-1.9678,-1.9211,-1.9016,-1.9016,-1.9016,-1.8914,0.0,0.0,0.0,0.0,0.0,0.0,0.0,0.0,0.0,0.0,0.0,0.0,0.0,0.0,0.0,-1.9708,-1.9708,-2.0382,-2.1006,0.0,0.0,0.0,0.0,0.0,0.0,0.0,-3.3469,0.0,-3.4083,0.0,-3.5147,-3.709,-3.9095,-4.0786,-4.1931,-4.2276,-4.2321,-4.2111,-4.1692,-4.1332,-4.1085,-4.1265,-4.1153,-4.0487,-4.0636,-4.0382,-3.9499,-3.9035,-3.8571,-3.8093,-3.7644,-3.7404,-3.7404,-3.7404,-3.7404,-3.7434,-3.926,-4.0127,-4.0113,-3.9664,-3.9454,-3.9439,-3.92,-3.8975,-3.8689,-3.7529,-3.5875,-3.3978,-3.2544,-3.2303,-3.2822,-3.2958,-3.3713,-3.4719,0.0,0.0,0.0,0.0,0.0,0.0,0.0,0.0,0.0,0.0,0.0,0.0,0.0,0.0,0.0,0.0,0.0,0.0,0.0,-1.6865,-1.6543,-1.6678,-1.7091,-1.792,-1.9238,-1.9029,-1.965,-2.119,-2.1921,-2.2046,-2.155,-2.0637,-2.0237,-2.0263,-1.9325,-1.9207,-1.9708,-1.9693,-1.9708,-1.9708,-1.9708,-1.9387,-1.893,0.0,0.0,0.0,0.0,0.0,0.0,0.0,-1.9965,0.0,0.0,0.0,0.0,0.0,-2.0017,-1.9708,-1.9708,-1.9708,-1.9887,0.0,0.0,0.0,0.0,0.0,0.0,0.0,0.0,-3.4743,-3.54,-3.4966,-3.5177,-3.709,-3.908,-4.0621,-4.128,-4.1976,-4.2126,-4.1482,-4.1354,-4.1085,-4.0442,-4.0965,-4.0516,-3.8527,-3.902,-3.8811,-3.7479,-3.7404,-3.7404,-3.7404,-3.7404,-3.7389,-3.7389,-3.7389,-3.7389,-3.7389,-3.7389,-3.7404,-3.7404,-3.7404,-3.7404,-3.7449,-3.8093,-3.8003,-3.7312,-3.5948,-3.3832,-3.1411,-3.1399,-3.1725,-3.2264,-3.267,-3.3621,-3.4735,0.0,0.0,0.0,0.0,0.0,0.0,0.0,0.0,0.0,0.0,0.0,0.0,0.0,0.0,0.0,0.0,0.0,0.0,0.0,-1.6275,-1.6198,-1.6003,-1.683,-1.7491,-1.788,-1.8547,-1.9384,-2.0352,-2.1143,-2.1149,-2.041,-2.0639,-2.0449,-1.9874,-1.9588,-1.9548,-1.9711,-2.0,-2.0124,-2.0124,-2.0124,-2.0212,-2.0316,0.0,0.0,0.0,0.0,0.0,0.0,0.0,0.0,0.0,0.0,0.0,0.0,0.0,-1.98,-1.9708,-1.9708,-2.0397,0.0,0.0,0.0,0.0,0.0,0.0,0.0,0.0,-3.7588,-3.6782,-3.7606,-3.7074,-3.6731,-3.7315,-3.8706,-3.9933,-4.0591,-4.0457,-4.0217,-4.0023,-3.917,-3.8512,-3.8317,-3.8482,-3.8332,-3.7749,-3.7883,-3.7838,-3.7434,-3.7,-3.6761,-3.6761,-3.6312,-3.6073,-3.6073,-3.6073,-3.6073,-3.6073,-3.6073,-3.6537,-3.7404,-3.7404,-3.7404,-3.7419,-3.7614,-3.7584,-3.7237,-3.5036,-3.3526,-3.2546,-3.17,-3.1976,-3.2869,-3.3281,-3.37,-3.4139,0.0,0.0,0.0,0.0,0.0,0.0,0.0,0.0,0.0,0.0,0.0,0.0,0.0,0.0,0.0,0.0,0.0,0.0,0.0,0.0,-1.712,-1.6779,-1.7246,-1.7506,-1.7491,-1.824,-1.8932,-1.9558,-2.0474,-2.0558,-1.9907,-2.027,-2.0193,-1.969,0.0,-1.9497,-1.9744,-2.0124,-2.0297,-2.0314,-2.05,-2.0764,-2.091,0.0,0.0,0.0,0.0,0.0,0.0,0.0,0.0,0.0,0.0,0.0,0.0,-2.007,-1.9836,-1.9708,-1.9708,0.0,0.0,0.0,0.0,0.0,0.0,0.0,0.0,0.0,-3.925,-3.8316,-3.9423,-3.8683,-3.7992,-3.8265,-3.8938,-3.9469,-3.9589,-3.926,-3.8916,-3.8646,-3.7898,-3.7404,-3.7404,-3.7404,-3.73,-3.706,-3.7045,-3.6926,-3.6671,-3.6297,-3.6088,-3.6088,-3.5714,-3.5504,-3.5504,-3.5504,-3.5504,-3.5504,-3.5504,-3.5908,-3.6656,-3.6656,-3.6656,-3.6656,-3.6656,-3.6573,-3.6295,-3.4483,-3.3424,-3.2801,-3.1744,-3.212,-3.3167,-3.2817,-3.3422,-3.4348,0.0,0.0,0.0,0.0,0.0,0.0,0.0,0.0,0.0,0.0,0.0,0.0,0.0,0.0,0.0,0.0,0.0,0.0,0.0,0.0,-1.8818,-1.8476,-1.8063,-1.7883,-1.7907,-1.8149,-1.8447,-1.8846,-1.9887,-2.023,-1.9907,0.0,-1.9704,-1.9729,0.0,-1.9321,-1.9854,-2.0261,-2.0433,-2.0466,-2.0894,-2.1087,-2.1055,-2.0516,0.0,0.0,0.0,0.0,0.0,0.0,0.0,0.0,0.0,0.0,0.0,-2.0382,-2.0017,-1.9762,0.0,0.0,0.0,0.0,0.0,0.0,0.0,-3.7564,-3.9459,-4.1339,0.0,-3.9296,-4.0745,-3.9787,-3.8992,-3.9515,-3.9447,-3.9077,-3.8392,-3.8257,-3.7988,-3.7404,-3.727,-3.724,-3.724,-3.724,-3.7,-3.6432,-3.6402,-3.6133,-3.5534,-3.5504,-3.5504,-3.5504,-3.5504,-3.5504,-3.5504,-3.5504,-3.5504,-3.5504,-3.5504,-3.5504,-3.5504,-3.5504,-3.5504,-3.5504,-3.5504,-3.5322,-3.4955,-3.4286,-3.352,-3.2651,-3.1666,-3.2112,-3.3188,-3.1793,-3.2782,-3.4742,0.0,0.0,0.0,0.0,0.0,0.0,0.0,0.0,0.0,0.0,0.0,0.0,0.0,0.0,0.0,0.0,0.0,0.0,0.0,0.0,-1.9222,-1.8894,-1.8496,-1.8393,-1.8662,-1.8715,-1.8636,-1.843,-1.9243,-1.9727,0.0,0.0,0.0,-2.0176,0.0,-2.028,-2.0747,-2.1149,-2.1321,-2.1321,-2.143,-2.169,-2.1901,-2.0748,-2.0533,0.0,0.0,0.0,0.0,0.0,0.0,0.0,-2.0566,-2.0449,-2.0365,-1.9962,-2.0,-2.0316,0.0,0.0,0.0,0.0,0.0,0.0,0.0,-3.9497,-3.9777,-3.9609,-3.9093,-3.9157,-4.0723,-4.021,-3.9393,-3.8927,-3.8802,-3.8498,-3.7732,-3.721,-3.6851,-3.6701,-3.6222,-3.5908,-3.5908,-3.5908,-3.5863,-3.5729,-3.5714,-3.5654,-3.5519,-3.5504,-3.5504,-3.5504,-3.5504,-3.5504,-3.5504,-3.5504,-3.5504,-3.5504,-3.5504,-3.5504,-3.5504,-3.5504,-3.5504,-3.5504,-3.5504,-3.5288,-3.4879,-3.4252,-3.396,-3.3779,-3.2366,-3.2273,-3.2825,-3.2102,-3.1746,-3.1602,0.0,0.0,0.0,0.0,0.0,0.0,0.0,0.0,0.0,0.0,0.0,0.0,0.0,0.0,0.0,0.0,0.0,0.0,0.0,0.0,0.0,0.0,-1.9296,-1.9076,-1.9423,-1.9232,-1.9203,-1.9348,-1.9548,0.0,0.0,0.0,0.0,-2.0633,0.0,-2.0764,-2.1039,-2.143,-2.1597,-2.1612,-2.1838,-2.2092,-2.2214,-2.1408,-2.1271,-2.137,-2.05,0.0,0.0,0.0,0.0,0.0,0.0,0.0,-2.0583,-2.0396,-2.0465,-2.0727,0.0,0.0,0.0,0.0,0.0,0.0,0.0,-3.9269,-3.9411,-3.9005,-3.9389,-4.0212,-4.1416,-4.0939,-4.0248,-3.9825,-3.9154,-3.8403,-3.7613,-3.6966,-3.641,-3.6079,-3.5714,-3.5504,-3.5504,-3.5814,-3.6038,-3.6038,-3.6038,-3.6038,-3.6038,-3.5701,-3.5504,-3.5504,-3.5504,-3.5504,-3.5504,-3.5504,-3.5504,-3.5504,-3.5504,-3.5504,-3.5504,-3.5504,-3.5504,-3.5504,-3.5504,-3.5373,-3.5156,-3.4838,-3.4513,-3.404,-3.2763,-3.2462,-3.2554,-3.1394,-3.11,-3.1216,0.0,0.0,0.0,0.0,0.0,0.0,0.0,0.0,0.0,0.0,0.0,0.0,0.0,0.0,0.0,0.0,0.0,0.0,0.0,0.0,0.0,0.0,-2.0374,-1.9969,-2.0187,-1.98,-1.989,-2.051,0.0,0.0,0.0,0.0,0.0,-2.1102,0.0,-2.115,-2.1245,-2.1583,-2.1718,-2.1781,-2.2269,-2.2496,-2.2464,-2.2264,-2.2189,-2.2069,-2.1181,-2.0868,-2.0854,-2.062,0.0,0.0,0.0,0.0,-2.0894,-2.0975,-2.1039,-2.1135,0.0,0.0,0.0,0.0,0.0,0.0,0.0,-3.8088,-3.8712,-3.8694,-3.9837,-4.104,-4.1796,-4.1337,-4.0805,-4.0647,-3.9596,-3.8476,-3.7561,-3.6956,-3.6337,-3.5587,-3.5504,-3.5492,-3.5486,-3.6044,-3.6413,-3.6425,-3.644,-3.6426,-3.6399,-3.5839,-3.5454,-3.5325,-3.5325,-3.5265,-3.516,-3.516,-3.522,-3.5325,-3.5444,-3.5504,-3.5504,-3.5504,-3.5504,-3.5504,-3.5504,-3.5504,-3.5504,-3.5311,-3.4758,-3.3876,-3.2784,-3.2357,-3.2141,-3.0419,-3.0573,-3.1434,0.0,0.0,0.0,0.0,0.0,0.0,0.0,0.0,0.0,0.0,0.0,0.0,0.0,0.0,0.0,0.0,0.0,0.0,-2.3006,0.0,0.0,-2.2501,-2.1724,-2.1224,-2.1038,-2.0592,-2.0397,-2.051,0.0,0.0,0.0,0.0,0.0,-2.1521,0.0,-2.1749,-2.2137,-2.218,-2.2209,-2.2259,-2.2972,-2.3241,-2.3236,-2.3027,-2.2957,-2.2833,-2.19,-2.156,-2.1565,-2.1534,-2.1132,0.0,0.0,0.0,-2.0466,-2.0878,-2.1244,-2.1653,0.0,0.0,0.0,0.0,0.0,0.0,0.0,0.0,-3.8011,0.0,-3.8616,-3.9455,-4.0239,-4.0307,-3.999,-3.9286,-3.9013,-3.8387,-3.6953,-3.6677,-3.6337,-3.5587,-3.5504,-3.5507,-3.5508,-3.5582,-3.5677,-3.574,-3.5721,-3.5707,-3.5642,-3.5552,-3.5248,-3.4638,-3.4638,-3.4337,-3.3769,-3.3769,-3.4053,-3.4653,-3.522,-3.5504,-3.5504,-3.5504,-3.5504,-3.5504,-3.5504,-3.5504,-3.5424,-3.4543,-3.4129,-3.3842,-3.2069,-3.1389,-3.1254,-3.0177,-2.9907,-3.0073,0.0,0.0,0.0,0.0,0.0,0.0,0.0,0.0,0.0,0.0,0.0,0.0,0.0,0.0,0.0,-2.2471,-2.2976,-2.3405,-2.3727,-2.3577,-2.3414,-2.3277,-2.2595,-2.2159,-2.2039,-2.1437,-2.1119,0.0,0.0,0.0,0.0,-2.2464,-2.2654,0.0,0.0,0.0,0.0,-2.2919,-2.2682,-2.2398,-2.3545,-2.3511,-2.288,-2.3736,-2.3616,-2.3022,-2.2748,-2.2485,-2.2234,-2.2143,-2.1904,-2.1698,-2.1991,0.0,0.0,0.0,-2.1855,-2.2153,-2.2887,0.0,0.0,0.0,0.0,0.0,-3.4258,0.0,-3.7293,-3.725,-3.7836,-3.8707,-3.9893,-4.0096,-3.9978,-3.9636,-3.9584,-3.9032,-3.7499,-3.6945,-3.6282,-3.5065,-3.4938,-3.4942,-3.4948,-3.5695,-3.6178,-3.621,-3.5873,-3.5645,-3.561,-3.4829,-3.4242,-3.3964,-3.3918,-3.3784,-3.3499,-3.3499,-3.3829,-3.4503,-3.4786,-3.513,-3.5504,-3.5504,-3.5504,-3.5504,-3.5504,-3.518,-3.4624,-3.4177,-3.338,-3.2357,-3.1536,-3.0871,-3.0381,-2.9934,-3.0139,-3.0595,0.0,0.0,0.0,0.0,0.0,0.0,0.0,0.0,0.0,0.0,0.0,0.0,0.0,0.0,0.0,0.0,-2.3649,-2.419,-2.419,-2.3976,-2.3795,-2.3703,-2.3141,-2.2784,-2.2708,-2.1974,0.0,0.0,0.0,0.0,-2.3168,-2.363,-2.4334,0.0,-2.4249,-2.384,0.0,0.0,-2.3599,-2.3107,-2.4198,-2.392,-2.2979,-2.41,-2.4088,-2.3472,-2.3541,-2.3467,-2.3315,-2.3172,-2.3008,-2.2904,-2.3161,-2.2995,0.0,0.0,0.0,-2.2699,0.0,0.0,0.0,0.0,0.0,0.0,0.0,0.0,-3.5492,-3.5864,-3.6366,-3.7212,-3.8667,-3.9276,-3.9529,-3.9529,-3.937,-3.8792,-3.7448,-3.6701,-3.5768,-3.4405,-3.4241,-3.4244,-3.4229,-3.54,-3.6141,-3.6158,-3.5855,-3.5592,-3.5422,-3.4395,-3.3637,-3.3245,-3.3245,-3.3155,-3.2991,-3.3155,-3.3574,-3.4264,-3.4429,-3.4741,-3.525,-3.525,-3.516,-3.5011,-3.5355,-3.4953,-3.3993,-3.3739,-3.2664,-3.118,-3.0932,-3.0558,-3.0139,-3.0139,-3.0771,-3.1573,0.0,0.0,0.0,0.0,0.0,0.0,0.0,0.0,0.0,0.0,0.0,0.0,-2.1578,-2.2789,-2.3638,-2.3638,-2.3988,-2.419,-2.419,-2.418,-2.4026,-2.3714,-2.3357,0.0,-2.2708,-2.1974,0.0,0.0,0.0,0.0,-2.4425,-2.4824,-2.5776,-2.7082,-2.5655,-2.5024,-2.5021,0.0,0.0,0.0,-2.5027,-2.4797,-2.4343,-2.3918,-2.4147,-2.4652,-2.4234,-2.4499,-2.5061,-2.5067,-2.4623,-2.4172,-2.4568,-2.377,-2.2925,0.0,0.0,0.0,0.0,0.0,0.0,0.0,0.0,0.0,0.0,0.0,-3.1884,-3.3288,-3.3609,-3.4083,-3.5549,-3.7019,-3.8024,-3.8024,-3.7436,-3.6694,-3.5915,-3.5222,-3.4489,-3.3667,-3.3495,-3.3488,-3.3556,-3.4192,-3.4594,-3.4621,-3.5228,-3.5326,-3.468,-3.458,-3.3916,-3.2587,-3.2557,-3.2243,-3.1615,-3.2228,-3.2901,-3.3559,-3.4219,-3.4533,-3.4563,-3.4563,-3.4219,-3.3664,-3.4951,-3.4953,-3.391,-3.3031,-3.2105,-3.1106,-3.0203,-3.0381,-3.1143,-3.1143,-3.1706,-3.2522,0.0,0.0,0.0,0.0,0.0,0.0,0.0,0.0,0.0,0.0,0.0,0.0,0.0,-2.2645,-2.3057,-2.3057,-2.3555,-2.3886,-2.3886,-2.4084,-2.4054,-2.3714,-2.338,-2.3045,-2.2708,-2.2739,0.0,0.0,0.0,-2.3947,-2.5601,-2.5422,-2.6198,-2.7643,-2.6648,-2.619,-2.6204,-2.6322,0.0,-2.5139,-2.5614,-2.5279,-2.4526,-2.4808,-2.4863,-2.4837,-2.5188,-2.5273,-2.5259,-2.5596,-2.5562,-2.5358,-2.533,-2.4961,-2.4556,-2.4512,-2.4305,-2.4,0.0,0.0,0.0,0.0,0.0,-2.6455,-2.6759,-2.8721,-3.0514,-3.0548,-3.1326,-3.229,-3.3288,-3.5098,-3.6603,-3.711,-3.6593,-3.6004,-3.5738,-3.475,-3.3738,-3.2881,-3.2816,-3.2809,-3.2813,-3.3402,-3.3789,-3.3791,-3.3282,-3.3031,-3.3237,-3.207,-3.1345,-3.121,-3.0836,-3.0717,-3.0866,-3.1511,-3.2183,-3.2871,-3.3095,-3.344,-3.3844,-3.3844,-3.3724,-3.3529,-3.4008,-3.3903,-3.3413,-3.348,-3.2961,-3.2069,-3.1719,-3.1792,-3.2105,-3.2105,-3.2713,-3.3484,0.0,0.0,0.0,0.0,0.0,0.0,0.0,0.0,0.0,0.0,0.0,0.0,0.0,0.0,-2.2746,-2.286,-2.338,-2.3703,-2.3703,-2.4006,-2.4094,-2.3886,-2.3437,-2.3217,-2.3244,-2.3182,0.0,0.0,0.0,0.0,0.0,-2.5941,-2.6524,-2.7264,-2.7458,-2.7458,0.0,0.0,-2.6957,-2.6058,-2.6306,-2.5917,-2.5286,-2.5778,-2.59,-2.5876,-2.641,-2.6378,-2.6092,-2.6205,-2.6244,-2.6196,-2.6017,-2.5981,-2.5828,-2.5084,-2.488,-2.4746,-2.4272,0.0,0.0,0.0,0.0,-2.5304,-2.5541,-2.7351,-2.889,-2.8653,-2.9381,-3.0294,-3.1058,-3.2391,-3.388,-3.5402,-3.4887,-3.4299,-3.43,-3.3161,-3.2182,-3.1817,-3.1785,-3.187,-3.2019,-3.2641,-3.3034,-3.3034,-3.228,-3.1934,-3.2149,-3.0737,-2.9999,-3.0178,-2.9804,-2.9774,-3.0193,-3.0657,-3.1286,-3.2153,-3.2153,-3.2527,-3.3155,-3.3155,-3.3036,-3.2841,-3.3066,-3.3004,-3.2813,-3.3432,-3.3117,-3.2282,-3.2524,-3.2784,-3.3066,-3.3066,-3.3671,-3.4509,0.0,0.0,0.0,0.0,0.0,0.0,0.0,0.0,0.0,0.0,0.0,0.0,0.0,0.0,0.0,-2.3212,-2.3542,-2.3754,-2.3754,-2.4079,-2.4263,-2.4217,-2.362,-2.3614,-2.4295,-2.3344,0.0,0.0,0.0,0.0,0.0,0.0,-2.688,-2.6171,-2.8134,-2.8773,-2.8446,-2.8827,-2.8558,-2.7826,-2.7079,-2.6748,-2.6691,-2.6674,-2.7148,-2.7807,-2.7807,-2.7824,-2.7722,-2.6979,-2.6742,-2.6759,-2.6725,-2.6708,-2.6556,-2.5845,-2.5626,-2.5626,0.0,0.0,0.0,0.0,0.0,0.0,-2.5423,-2.615,-2.6894,-2.7587,-2.7756,-2.801,-2.8824,-2.8959,-2.9888,-3.2777,-3.2206,-3.1414,-3.1454,-3.0392,-2.9815,-3.0418,-3.044,-3.0622,-3.1205,-3.1859,-3.2242,-3.2242,-3.234,-3.2119,-3.1486,-3.0867,-3.0227,-2.9574,-2.9577,-2.9577,-2.9577,-2.9592,-3.0223,-3.1451,-3.1451,-3.178,-3.2437,-3.2437,-3.2079,-3.1511,-3.2168,-3.2311,-3.2141,-3.2832,-3.2543,-3.1764,-3.2415,-3.3227,-3.4027,-3.4027,-3.4658,-3.5504,0.0,0.0,0.0,0.0,0.0,0.0,0.0,0.0,0.0,0.0,0.0,0.0,-2.2321,-2.2836,-2.346,-2.409,-2.4682,-2.4995,-2.4995,-2.5601,-2.5565,-2.4744,-2.5089,-2.501,-2.4387,-2.5213,0.0,0.0,0.0,0.0,0.0,0.0,0.0,0.0,-2.875,-2.894,-2.8827,-2.8645,-2.8321,-2.7812,-2.6784,-2.649,-2.664,-2.6116,-2.6691,-2.7807,-2.7807,-2.8162,-2.8552,-2.7756,-2.7875,-2.8265,-2.7689,-2.7131,-2.6657,-2.6454,-2.6387,-2.6285,-2.5728,0.0,0.0,0.0,0.0,0.0,-2.488,-2.5794,-2.6607,-2.6285,-2.664,-2.7249,-2.7994,-2.8128,-2.846,-2.9462,-2.9376,-2.9502,-3.0429,-2.9958,-2.9726,-3.0222,-3.0265,-3.0302,-3.0419,-3.0603,-3.0717,-3.0717,-3.0427,-3.039,-3.0679,-2.9713,-2.8856,-2.8169,-2.8607,-2.8876,-2.8876,-2.934,-2.9786,-3.0118,-3.0118,-3.0223,-3.0402,-3.0851,-3.0956,-3.0821,-3.1481,-3.1737,-3.1752,-3.2907,-3.3505,-3.3724,-3.39,-3.4412,-3.51,-3.51,-3.5246,-3.5504,0.0,0.0,0.0,0.0,0.0,0.0,0.0,0.0,0.0,0.0,0.0,0.0,-2.2759,-2.341,-2.4034,-2.4457,-2.5108,-2.5508,-2.5508,-2.6191,-2.63,-2.5645,-2.5914,-2.5925,-2.5588,-2.6195,0.0,0.0,0.0,0.0,0.0,0.0,0.0,0.0,0.0,0.0,0.0,-2.8216,-2.8075,-2.7833,-2.6999,-2.7051,-2.7622,-2.7182,-2.7926,-2.9176,-2.8872,-2.9059,-2.933,-2.8569,-2.8602,-2.8925,-2.845,-2.801,-2.7588,-2.7266,-2.7165,-2.7012,-2.6268,-2.5845,-2.5575,-2.5455,0.0,0.0,-2.5455,-2.6065,-2.6573,-2.615,-2.6404,-2.6826,-2.7249,-2.7334,-2.7399,-2.7552,-2.7443,-2.7741,-2.8825,-2.8739,-2.8738,-2.9246,-2.9321,-2.9397,-2.9612,-2.9634,-2.9634,-2.9634,-2.9136,-2.8914,-2.9067,-2.8479,-2.7807,-2.7115,-2.7249,-2.735,-2.735,-2.8008,-2.8498,-2.8768,-2.9041,-2.9337,-2.9636,-3.0223,-3.0507,-3.0537,-3.1212,-3.1511,-3.157,-3.2333,-3.3066,-3.3709,-3.4294,-3.4758,-3.5115,-3.54,-3.5504,-3.5504,0.0,0.0,0.0,0.0,0.0,0.0,0.0,0.0,0.0,0.0,0.0,0.0,-2.3589,-2.4305,-2.4778,-2.4863,-2.5449,-2.5844,-2.5884,-2.6464,-2.6771,-2.673,-2.6529,-2.6687,-2.726,-2.6705,0.0,0.0,0.0,0.0,0.0,0.0,0.0,0.0,0.0,0.0,0.0,-2.7765,-2.7911,-2.7811,-2.7411,-2.7894,-2.8857,-2.879,-2.9619,-3.0751,-3.0176,-2.9989,-2.9888,-2.9331,-2.9077,-2.901,-2.9094,-2.9077,-2.8857,-2.8128,-2.7925,-2.7773,-2.7012,-2.6353,-2.5964,-2.6556,-2.6268,0.0,-2.6573,-2.6759,-2.6793,-2.6708,-2.6691,-2.6691,-2.6691,-2.6691,-2.6674,-2.6641,-2.6314,-2.635,-2.7122,-2.7212,-2.7404,-2.8,-2.8075,-2.8268,-2.8803,-2.8874,-2.8874,-2.8874,-2.8389,-2.7838,-2.7227,-2.7366,-2.7138,-2.6415,-2.5932,-2.5646,-2.5615,-2.6258,-2.6911,-2.7495,-2.8158,-2.8786,-2.9412,-2.9998,-3.0298,-3.0328,-3.0987,-3.1331,-3.1391,-3.1391,-3.1824,-3.2632,-3.3799,-3.4339,-3.4474,-3.513,-3.5385,-3.54,-2.419,0.0,0.0,0.0,0.0,0.0,0.0,0.0,0.0,0.0,0.0,0.0,-2.5033,-2.5828,-2.6505,-2.7097,-2.7563,-2.7971,-2.8296,-2.8156,-2.7894,-2.7574,-2.8116,-2.8192,-2.7679,-2.8173,0.0,0.0,0.0,0.0,0.0,0.0,0.0,0.0,0.0,0.0,0.0,-2.8258,-2.7952,-2.7378,-2.6988,-2.7301,-2.7959,-2.7368,-2.7706,-2.8517,-2.9025,-2.9213,-2.9281,-2.9736,-2.9482,-2.9111,-2.9702,-2.9465,-2.8976,-2.8824,-2.8773,-2.8586,-2.779,-2.7486,-2.7249,-2.681,-2.7046,0.0,-2.6793,-2.7165,-2.7418,-2.6826,-2.6691,-2.6691,-2.6691,-2.6691,-2.659,-2.6209,-2.6367,-2.6623,-2.6787,-2.6993,-2.7297,-2.7795,-2.7867,-2.7903,-2.8027,-2.8027,-2.8027,-2.8027,-2.8071,-2.7838,-2.7227,-2.7243,-2.6985,-2.6421,-2.6303,-2.6047,-2.56,-2.6258,-2.6686,-2.6806,-2.748,-2.7869,-2.8004,-2.8667,-2.8966,-2.9011,-2.9669,-3.0253,-3.0717,-3.0717,-3.142,-3.2542,-3.2796,-3.3215,-3.3769,-3.4459,-3.4713,-3.4756,-2.419,0.0,0.0,0.0,0.0,0.0,0.0,0.0,0.0,0.0,0.0,0.0,-2.6065,-2.7148,-2.8011,-2.8366,-2.875,-2.9033,-2.9243,-2.948,-2.9409,-2.8968,-2.9567,-2.9598,-2.8968,-2.9168,0.0,0.0,0.0,0.0,0.0,0.0,0.0,0.0,0.0,0.0,0.0,0.0,-2.8507,-2.8613,-2.764,-2.7469,-2.7722,-2.6979,-2.7402,-2.8399,-2.8399,-2.889,-2.9651,-3.0395,-3.0395,-3.0161,-3.0531,-3.0395,-3.0025,-2.9651,-2.955,-2.9381,-2.8602,-2.8399,-2.8315,-2.7943,-2.8129,0.0,0.0,-2.7824,-2.7807,-2.7841,-2.725,-2.681,-2.7182,-2.6945,-2.6624,-2.6384,-2.6556,-2.6691,-2.6691,-2.6823,-2.6988,-2.7215,-2.7249,-2.7249,-2.7249,-2.7249,-2.7249,-2.7249,-2.7693,-2.7651,-2.6989,-2.7085,-2.6744,-2.5826,-2.5534,-2.5142,-2.4612,-2.527,-2.5615,-2.5615,-2.6617,-2.7106,-2.7151,-2.8128,-2.8607,-2.8637,-2.9295,-2.9924,-3.0507,-3.0507,-3.1106,-3.2034,-3.2363,-3.2721,-3.308,-3.3739,-3.3978,-3.4038,-2.419,0.0,0.0,0.0,0.0,0.0,0.0,0.0,0.0,0.0,0.0,-2.7012,-2.7317,-2.8604,-2.9551,-2.9822,-2.9625,-2.9678,-3.0128,-3.0396,-3.0374,-2.9907,-3.0459,-3.0506,-2.9909,-2.9848,0.0,0.0,0.0,0.0,0.0,0.0,0.0,0.0,0.0,0.0,0.0,0.0,-2.9058,-2.9786,-2.8686,-2.8246,-2.8162,-2.7418,-2.7927,-2.8908,-2.8264,-2.9007,-3.0378,-3.0835,-3.1072,-3.119,-3.119,-3.119,-3.1072,-3.0497,-3.0311,-3.0159,-2.9397,-2.9213,-2.9179,-2.9044,-2.9111,-2.9179,0.0,0.0,0.0,-2.8908,-2.7893,-2.7097,-2.7689,-2.7199,-2.664,-2.6505,-2.6607,-2.664,-2.6505,-2.6488,-2.6488,-2.6488,-2.6488,-2.642,-2.6285,-2.6285,-2.6285,-2.6285,-2.6962,-2.7114,-2.6522,-2.6833,-2.6461,-2.5237,-2.4792,-2.4246,-2.3595,-2.4261,-2.4664,-2.4814,-2.6019,-2.6686,-2.6811,-2.7904,-2.8412,-2.8427,-2.8992,-2.9651,-3.0313,-3.0193,-3.0612,-3.1376,-3.2034,-3.2303,-3.2378,-3.3066,-3.3305,-3.332,-2.419,-2.4141,0.0,0.0,0.0,0.0,0.0,0.0,0.0,0.0,0.0,-2.8196,-2.9548,-3.0446,-3.1478,-3.2797,-3.0824,-3.037,-3.2372,-3.0769,-2.9556,-2.9139,-3.0202,-3.0284,-2.9142,-3.013,0.0,0.0,0.0,0.0,0.0,0.0,0.0,0.0,-2.8419,0.0,0.0,0.0,-2.9012,-2.9179,-2.9651,-2.9835,-2.977,-2.9027,-2.884,-2.8993,-2.8908,-2.9822,-3.0987,-3.0429,-3.0666,-3.119,-3.119,-3.119,-3.1173,-3.1106,-3.1072,-3.0903,-3.0176,-2.9989,-2.982,-2.9162,-2.9482,-2.9803,-2.9145,0.0,-2.9685,-2.9128,0.0,-2.7705,-2.779,0.0,0.0,-2.5845,-2.6268,-2.6471,-2.5828,-2.5711,-2.5711,-2.5711,-2.5711,-2.5473,-2.4812,-2.4745,-2.4745,-2.4745,-2.5423,-2.5812,-2.5744,-2.637,-2.6276,-2.524,-2.5144,-2.4617,-2.3595,-2.4261,-2.4903,-2.551,-2.6243,-2.6926,-2.748,-2.7645,-2.7705,-2.772,-2.7794,-2.8543,-2.9666,-2.9056,-2.9535,-3.0687,-3.1346,-3.1615,-3.169,-3.2377,-3.2617,-3.2706,-2.4373,-2.4409,0.0,0.0,0.0,0.0,0.0,0.0,0.0,0.0,0.0,-2.9719,-3.1207,-3.2036,-3.2899,-3.3947,-3.2638,-3.1991,-3.2522,-3.1498,-3.0691,-3.03,-3.0991,-3.1024,-3.0282,-3.0815,-3.1087,0.0,-3.1301,0.0,0.0,0.0,0.0,0.0,-2.8832,0.0,-2.9039,-2.9003,-2.9264,-2.9702,-3.0446,-3.0734,-3.0565,-2.8941,-2.8298,-2.8433,-2.9313,-3.004,-3.0581,-3.07,-3.0937,-3.119,-3.119,-3.119,-3.119,-3.119,-3.119,-3.1123,-3.0818,-3.0734,-3.0666,-3.0364,-3.0497,-3.0666,-3.0364,-3.0176,-3.0142,-3.0243,0.0,0.0,0.0,0.0,0.0,0.0,-2.6488,-2.659,-2.6285,-2.6234,-2.6082,-2.5643,-2.5592,-2.5642,-2.5777,-2.5405,-2.532,-2.5743,-2.5676,-2.5795,-2.6218,-2.6268,-2.5944,-2.5221,-2.491,-2.4369,-2.3595,-2.3879,-2.4163,-2.4448,-2.551,-2.6168,-2.6452,-2.7255,-2.76,-2.76,-2.76,-2.8139,-2.8996,-2.8712,-2.9146,-3.0028,-3.0687,-3.0913,-3.0987,-3.166,-3.1914,-3.1959,-2.492,0.0,0.0,0.0,0.0,0.0,0.0,0.0,-2.8288,-2.84,-2.9565,-3.1038,-3.2716,-3.3558,-3.4472,-3.5622,-3.4766,-3.3888,-3.3258,-3.2624,-3.1854,-3.0942,-3.1481,-3.1518,-3.0922,-3.1376,-3.1635,0.0,0.0,0.0,0.0,0.0,0.0,0.0,0.0,-2.9057,-2.9643,-2.9408,-2.9719,-3.0446,-3.097,-3.1072,-3.0734,-2.9296,-2.872,-2.8872,-3.0006,-3.0395,-3.048,-3.1021,-3.119,-3.119,-3.119,-3.119,-3.119,-3.119,-3.119,-3.119,-3.119,-3.119,-3.119,-3.119,-3.119,-3.119,-3.119,-3.0784,-3.0548,-3.1089,-2.9736,0.0,0.0,0.0,-2.6945,-2.6725,0.0,-2.6623,-2.642,-2.6404,-2.6116,-2.5389,-2.4949,-2.4915,-2.5439,-2.5017,-2.5,-2.5727,-2.5304,-2.5423,-2.6353,-2.5945,-2.553,-2.5205,-2.4692,-2.4142,-2.3595,-2.3595,-2.3684,-2.3894,-2.5061,-2.5704,-2.5914,-2.7076,-2.76,-2.7625,-2.776,-2.8228,-2.8848,-2.8641,-2.8984,-2.9592,-2.9886,-3.0088,-3.0328,-3.0972,-3.1346,-3.1481,-2.5949,-2.5949,0.0,0.0,0.0,0.0,0.0,-2.7334,-2.8349,-2.9837,-3.0683,-3.1985,-3.4184,-3.5098,-3.6411,-3.865,-3.7177,-3.5925,-3.552,-3.4202,-3.2457,-3.023,-3.1189,-3.1277,-3.0159,-3.1655,-3.2465,0.0,0.0,0.0,0.0,0.0,0.0,0.0,0.0,-2.9694,-3.0093,-3.0074,-3.0497,-3.1157,-3.119,-3.0768,-3.0226,-3.0852,-3.1089,-3.1089,-3.114,-3.1157,-3.1157,-3.119,-3.119,-3.119,-3.119,-3.119,-3.119,-3.119,-3.119,-3.119,-3.119,-3.119,-3.119,-3.119,-3.119,-3.119,-3.119,-3.1173,-3.1157,-3.119,-3.0581,-3.0021,-3.0055,-2.8804,-2.7536,0.0,-2.6691,0.0,0.0,-2.5642,-2.5372,-2.4626,-2.3274,-2.2415,-2.2431,-2.2415,-2.2702,-2.3444,-2.3477,-2.4103,-2.5558,-2.5129,-2.4955,-2.5189,-2.4692,-2.4142,-2.3595,-2.3595,-2.3939,-2.459,-2.5262,-2.5944,-2.6572,-2.7285,-2.76,-2.7625,-2.8213,-2.885,-2.9438,-2.8773,-2.8896,-2.9441,-2.8882,-2.9056,-2.9711,-3.0313,-3.0928,-3.1406,-2.754,0.0,0.0,-2.5747,-2.6469,-2.7475,-2.8115,-2.8856,-3.0021,-3.2036,-3.2933,-3.4629,-3.7862,-3.843,-3.9065,-4.0358,-3.8982,-3.78,-3.7161,-3.5266,-3.3826,-3.3055,-3.291,-3.2454,-3.1582,-3.2649,-3.2997,-3.2501,0.0,0.0,0.0,0.0,0.0,0.0,0.0,-2.9968,0.0,-3.0108,-3.0243,-3.0514,-3.1004,-3.1326,-3.1532,-3.1275,-3.0903,-3.0548,-3.1021,-3.119,-3.119,-3.119,-3.119,-3.119,-3.119,-3.119,-3.119,-3.119,-3.119,-3.119,-3.119,-3.119,-3.119,-3.119,-3.119,-3.119,-3.119,-3.119,-3.119,-3.119,-3.0615,-3.0108,-3.0108,-2.8838,-2.7722,0.0,0.0,-2.6607,0.0,-2.5913,-2.5507,-2.5253,-2.3934,-2.341,-2.4375,-2.4036,-2.4255,-2.549,-2.5135,-2.5287,-2.6285,-2.5512,-2.5097,-2.5186,-2.4328,-2.3773,-2.3595,-2.4036,-2.4141,-2.3969,-2.5525,-2.6153,-2.5974,-2.7091,-2.781,-2.8213,-2.8415,-2.8849,-2.9437,-2.9183,-2.8991,-2.885,-2.9106,-2.936,-2.9681,-3.0283,-3.0913,-3.1466,-2.8741,-2.8697,-2.8265,-2.713,-2.7952,-2.9007,-2.9675,-3.0632,-3.2087,-3.432,-3.547,-3.7212,-4.018,-4.073,-4.1172,-4.1869,-4.1058,-3.9846,-3.8322,-3.6813,-3.5655,-3.4852,-3.416,-3.3566,-3.3026,-3.3516,-3.3424,-3.2686,-3.3378,-3.3611,0.0,0.0,0.0,0.0,0.0,-3.0497,-3.0497,-3.0497,-3.0497,-3.0531,-3.1004,-3.1478,-3.187,-3.1376,-3.1072,-3.0903,-3.1123,-3.119,-3.119,-3.119,-3.119,-3.119,-3.119,-3.119,-3.119,-3.119,-3.119,-3.119,-3.119,-3.119,-3.119,-3.119,-3.119,-3.119,-3.119,-3.119,-3.119,-3.119,-3.0818,-3.0497,-3.0497,-2.9262,-2.823,0.0,0.0,-2.6691,0.0,-2.6065,-2.5592,-2.5592,-2.4526,-2.4169,-2.5118,-2.4778,-2.4998,-2.6218,-2.5625,-2.5561,-2.6403,-2.5407,-2.485,-2.4914,-2.4053,-2.3595,-2.3595,-2.4022,-2.4141,-2.3962,-2.551,-2.6138,-2.5989,-2.7312,-2.814,-2.8511,-2.895,-2.9361,-2.9717,-2.9717,-2.9361,-2.885,-2.9064,-2.9338,-2.9651,-3.0028,-3.0597,-3.1182,-2.9523,-2.933,-2.9255,-2.9593,-2.9627,-2.997,-3.1133,-3.2594,-3.4387,-3.6677,-3.8285,-3.9783,-4.1322,-4.2066,-4.2756,-4.3415,-4.3311,-4.2018,-3.9247,-3.8908,-3.786,-3.5764,-3.5048,-3.4609,-3.442,-3.4268,-3.3831,-3.3036,-3.3424,0.0,0.0,0.0,0.0,0.0,-3.137,0.0,-3.119,-3.119,-3.119,-3.119,-3.119,-3.1207,-3.1241,-3.1207,-3.1667,-3.2209,-3.1464,-3.119,-3.119,-3.119,-3.119,-3.119,-3.119,-3.119,-3.119,-3.119,-3.119,-3.119,-3.119,-3.119,-3.119,-3.119,-3.119,-3.119,-3.119,-3.119,-3.119,-3.119,-3.119,-3.119,-3.119,-3.0025,-2.9044,0.0,0.0,-2.6691,-2.6691,-2.6099,-2.566,-2.5694,-2.5066,-2.4592,-2.4558,-2.4541,-2.4863,-2.5609,-2.4966,-2.4976,-2.5949,-2.4784,-2.4211,-2.4441,-2.3894,-2.361,-2.3655,-2.3655,-2.3984,-2.4619,-2.5277,-2.5959,-2.6626,-2.7885,-2.848,-2.8606,-2.9783,-3.033,-3.0335,-3.0335,-2.9957,-2.9339,-2.8756,-2.8981,-2.9621,-2.9681,-3.0058,-3.0657,-2.9835,-3.0743,-3.1486,-3.1567,-3.1128,-3.1225,-3.2632,-3.459,-3.6745,-3.8962,-4.1001,-4.3064,-4.5128,-4.5043,-4.508,-4.5702,-4.4187,-4.3088,-4.2758,-4.1149,-3.9935,-3.9373,-3.8251,-3.7097,-3.5966,-3.5806,-3.5123,-3.3831,-3.367,0.0,-3.3135,0.0,0.0,0.0,0.0,0.0,-3.119,-3.119,-3.119,-3.119,-3.119,-3.1532,-3.1955,-3.1413,-3.1667,-3.2209,-3.1464,-3.119,-3.119,-3.119,-3.119,-3.119,-3.119,-3.119,-3.119,-3.119,-3.119,-3.119,-3.119,-3.119,-3.119,-3.119,-3.119,-3.119,-3.119,-3.119,-3.119,-3.119,-3.119,-3.119,-3.119,-3.0446,-2.9634,-2.9094,-2.7723,-2.6691,-2.6691,-2.6539,-2.6623,-2.7164,-2.659,-2.5913,-2.5372,-2.5321,-2.5625,-2.6353,-2.5727,-2.5514,-2.5982,-2.4784,-2.4413,-2.5128,-2.4152,-2.3849,-2.4335,-2.4335,-2.4425,-2.4619,-2.5277,-2.5959,-2.6626,-2.7402,-2.8279,-2.9203,-2.9973,-3.0539,-3.0975,-3.0975,-3.0351,-2.9384,-2.9225,-2.9348,-2.9726,-3.0672,-3.1107,-3.1271,-3.092,-3.2239,-3.3275,-3.3275,-3.3728,-3.4303,-3.481,-3.5983,-3.7709,-4.024,-4.2523,-4.4282,-4.5213,-4.5838,-4.6265,-4.6488,-4.4705,-4.3692,-4.4021,-4.2491,-4.1421,-4.1066,-4.0097,-3.8877,-3.7409,-3.6737,-3.5683,-3.4285,-3.3755,0.0,-3.3636,0.0,0.0,0.0,0.0,-3.1376,-3.1667,-3.1345,-3.1396,-3.1667,-3.1326,-3.1444,0.0,-3.136,-3.1464,-3.1769,-3.1343,-3.119,-3.119,-3.119,-3.119,-3.119,-3.119,-3.119,-3.119,-3.119,-3.119,-3.119,-3.119,-3.119,-3.119,-3.119,-3.119,-3.119,-3.119,-3.119,-3.119,-3.119,-3.119,-3.119,-3.119,-3.0598,-2.9871,-2.9128,-2.7977,-2.7182,-2.7182,-2.6894,-2.6843,-2.7283,-2.6945,-2.6539,-2.6116,-2.6082,-2.6251,-2.6657,-2.6319,-2.5949,-2.5672,-2.5252,-2.504,-2.5055,-2.495,-2.4956,-2.5038,-2.5038,-2.5038,-2.5038,-2.5412,-2.5959,-2.6651,-2.7791,-2.8731,-2.9451,-3.033,-3.0878,-3.119,-3.119,-3.0477,-2.9371,-2.9132,-2.9434,-3.0073,-3.0806,-3.1241,-3.154,-3.2327,-3.3732,-3.4747,-3.4523,-3.6468,-3.7855,-3.732,-3.7574,-3.8792,-4.1441,-4.3673,-4.4756,-4.4051,-4.5602,-4.6638,-4.6552,-4.5087,-4.4177,-4.424,-4.3442,-4.2591,-4.1814,-4.1169,-4.0157,-3.869,-3.7248,-3.592,-3.4641,-3.3812,0.0,0.0,0.0,0.0,0.0,0.0,0.0,0.0,-3.1633,-3.1718,-3.2242,-3.1515,-3.1258,-3.1326,-3.1241,-3.119,-3.119,-3.119,-3.119,-3.119,-3.119,-3.1258,-3.1326,-3.1224,-3.1258,-3.1326,-3.1224,-3.119,-3.119,-3.119,-3.1258,-3.1309,-3.1207,-3.1258,-3.1309,-3.1207,-3.119,-3.119,-3.119,-3.119,-3.119,-3.119,-3.0598,-2.9888,-2.9264,-2.8484,-2.7959,-2.7959,-2.7418,-2.6996,-2.6996,-2.6911,0.0,-2.6843,-2.6759,-2.6674,-2.6607,-2.6506,-2.6091,-2.5272,-2.57,-2.5633,-2.4904,-2.5914,-2.6273,-2.5869,-2.5689,-2.5689,-2.5869,-2.5689,-2.6036,-2.6892,-2.8542,-2.9371,-2.9585,-3.0699,-3.119,-3.1207,-3.1292,-3.0675,-2.9612,-2.8859,-2.9375,-3.0492,-3.0417,-3.0866,-3.16,-3.3186,-3.4928,-3.6,-3.4709,-3.6874,-3.8971,-3.9462,-4.1627,-4.365,-4.4756,-4.6329,-4.7276,-4.7111,-4.6397,-4.6295,-4.7311,-4.5923,-4.5154,-4.5553,-4.4803,-4.3997,-4.3173,-4.2169,-4.0914,-3.9432,-3.7659,-3.6316,-3.5397,-3.4044,0.0,0.0,0.0,0.0,0.0,0.0,0.0,-3.2293,-3.2158,-3.2192,-3.2242,-3.1515,-3.1546,-3.2039,-3.1427,-3.119,-3.119,-3.119,-3.119,-3.119,-3.119,-3.1616,-3.2005,-3.1396,-3.1633,-3.1989,-3.1376,-3.119,-3.119,-3.119,-3.165,-3.1972,-3.1343,-3.1667,-3.1955,-3.1326,-3.119,-3.119,-3.119,-3.119,-3.119,-3.119,-3.0598,-3.0074,-2.9939,-2.9279,-2.879,-2.879,-2.8688,-2.8604,-2.8604,-2.801,-2.7604,-2.7604,-2.7063,-2.6556,-2.6156,-2.5506,-2.5188,-2.5363,-2.4901,-2.5124,-2.6222,-2.5944,-2.6243,-2.724,-2.6153,-2.6153,-2.724,-2.6123,-2.6514,-2.8182,-2.8439,-2.9146,-3.0187,-3.0898,-3.119,-3.1241,-3.187,-3.1724,-3.0959,-2.919,-2.9316,-3.0447,-2.9924,-3.0507,-3.16,-3.5148,-3.6349,-3.7364,-3.7405,-3.892,-4.0663,-4.2202,-4.3995,-4.4857,-4.4045,-4.4908,-4.5558,-4.5521,-4.5626,-4.6056,-4.6905,-4.5493,-4.4813,-4.5394,-4.4583,-4.3901,-4.3533,-4.2977,-4.1709,-3.9665,-3.7924,-3.659,-3.56,-3.4112,-3.4113,0.0,0.0,0.0,0.0,0.0,-3.2865,0.0,-3.2462,-3.253,-3.2831,-3.2476,-3.2307,-3.2259,-3.1904,-3.1769,-3.1718,-3.1345,-3.1681,-3.2273,-3.1904,-3.2276,-3.2797,-3.2459,-3.2307,-3.2226,-3.187,-3.1769,-3.1701,-3.1292,-3.2019,-3.2679,-3.1955,-3.2039,-3.2209,-3.1853,-3.1461,-3.119,-3.119,-3.119,-3.119,-3.119,-3.0903,-3.0666,-3.0666,-3.0057,-2.9567,-2.9567,-2.9247,-2.8993,-2.8993,-2.8653,-2.8264,-2.7841,-2.7486,-2.7028,-2.6418,-2.5773,-2.5547,-2.58,-2.5544,-2.5756,-2.6566,-2.6961,-2.729,-2.76,-2.6971,-2.6806,-2.7076,-2.6422,-2.6782,-2.8015,-2.8627,-2.9416,-3.0335,-3.0955,-3.119,-3.1221,-3.1649,-3.1917,-3.1861,-3.0235,-3.0162,-3.0928,-3.0298,-3.0687,-3.16,-3.7466,-3.821,-3.9191,-4.0367,-4.1441,-4.2658,-4.4113,-4.5111,-4.5111,-4.347,-4.3639,-4.3912,-4.3996,-4.4993,-4.5858,-4.6365,-4.5202,-4.4617,-4.4978,-4.4217,-4.368,-4.3515,-4.3392,-4.2232,-3.9895,-3.822,-3.6856,-3.5836,-3.437,-3.4384,-3.5766,0.0,0.0,0.0,0.0,-3.3795,-3.3592,-3.3021,-3.3085,-3.3626,-3.3457,-3.3152,-3.275,-3.2598,-3.253,-3.2462,-3.1867,-3.251,-3.3541,-3.297,-3.3136,-3.3609,-3.3457,-3.3102,-3.2716,-3.2395,-3.2412,-3.2378,-3.1613,-3.251,-3.3457,-3.2733,-3.253,-3.2496,-3.2344,-3.1735,-3.119,-3.119,-3.119,-3.119,-3.119,-3.119,-3.119,-3.119,-3.0717,-3.0345,-3.0345,-2.982,-2.9348,-2.9044,-2.8993,-2.862,-2.7655,-2.757,-2.7317,-2.6742,-2.6412,-2.6224,-2.6243,-2.6367,-2.6474,-2.6596,-2.7619,-2.7979,-2.76,-2.76,-2.7405,-2.7021,-2.7003,-2.7407,-2.8169,-2.9313,-3.0245,-3.0983,-3.1449,-3.1749,-3.1861,-3.1523,-3.1899,-3.2602,-3.1142,-3.0968,-3.1421,-3.0761,-3.0913,-3.1614,-3.9656,-4.0933,-4.1914,-4.2066,-4.3859,-4.4891,-4.368,-4.4773,-4.5872,-4.6312,-4.5855,-4.5699,-4.6246,-4.5814,-4.5768,-4.6336,-4.6163,-4.5714,-4.5037,-4.4728,-4.4268,-4.3533,-4.3032,-4.2086,-4.0636,-3.8607,-3.7284,-3.6694,-3.5131,-3.5053,-3.6312,0.0,0.0,-3.4624,-3.5165,-3.503,-3.4387,-3.432,-3.432,-3.4336,-3.3677,-3.3761,-3.4218,-3.3541,-3.3305,-3.3288,-3.322,-3.3711,-3.4387,-3.4303,-3.4336,-3.4269,-3.3609,-3.3812,-3.4037,-3.2699,-3.2763,-3.3136,-3.2412,-3.3275,-3.4218,-3.3491,-3.3305,-3.3119,-3.2462,-3.1735,-3.119,-3.119,-3.119,-3.119,-3.119,-3.119,-3.119,-3.119,-3.114,-3.1089,-3.1089,-3.1038,-3.0497,-2.9162,-2.8993,-2.8417,-2.6945,-2.6793,-2.6776,-2.6725,-2.6878,-2.6818,-2.6392,-2.6463,-2.6527,-2.6596,-2.6707,-2.7061,-2.7585,-2.76,-2.7884,-2.8412,-2.8354,-2.8998,-3.0222,-3.0892,-3.1926,-3.3102,-3.3182,-3.3575,-3.404,-3.211,-3.2185,-3.3307,-3.1295,-3.0929,-3.1421,-3.0761,-3.0913,-3.1597,-4.1922,-4.2202,-4.2726,-4.4096,-4.4333,-4.4406,-4.4739,-4.4925,-4.5281,-4.5946,-4.575,-4.5821,-4.6403,-4.5793,-4.5415,-4.5722,-4.4809,-4.3934,-4.3296,-4.3398,-4.3359,-4.3032,-4.3124,-4.241,-4.0742,-3.9037,-3.7707,-3.6795,-3.5272,-3.4992,-3.592,-3.5724,-3.565,-3.5612,-3.5149,-3.4776,-3.4489,-3.4489,-3.4489,-3.4506,-3.4675,-3.4641,-3.4455,-3.4167,-3.4066,-3.3998,-3.3558,-3.4167,-3.5098,-3.4641,-3.4793,-3.503,-3.4286,-3.3964,-3.3728,-3.3119,-3.3169,-3.3339,-3.3034,-3.4049,-3.4979,-3.4235,-3.4066,-3.3981,-3.3698,-3.2716,-3.187,-3.187,-3.1495,-3.119,-3.119,-3.119,-3.119,-3.119,-3.1582,-3.1718,-3.1258,-3.1562,-3.1312,-2.9837,-2.9651,-2.9228,-2.818,-2.7638,-2.7571,-2.8045,-2.7063,-2.6398,-2.6283,-2.6386,-2.6298,-2.6012,-2.6791,-2.7151,-2.7001,-2.7405,-2.8142,-2.9209,-2.9166,-3.0046,-3.1714,-3.1939,-3.2557,-3.3389,-3.2933,-3.3152,-3.3753,-3.2486,-3.234,-3.2857,-3.2076,-3.1659,-3.1466,-3.1197,-3.1554,-3.2188,-4.391,-4.3673,-4.3944,-4.5991,-4.528,-4.4705,-4.5568,-4.5263,-4.5069,-4.5442,-4.5648,-4.5902,-4.6315,-4.5828,-4.5356,-4.4989,-4.3859,-4.2873,-4.2157,-4.248,-4.2711,-4.2711,-4.3214,-4.2632,-4.0742,-3.9467,-3.8146,-3.6795,-3.547,-3.5098,-3.5622,-3.6006,-3.6161,-3.6122,-3.5222,-3.4827,-3.4827,-3.4827,-3.4827,-3.4861,-3.538,-3.5301,-3.4827,-3.4827,-3.4827,-3.4759,-3.4235,-3.4721,-3.5515,-3.5013,-3.5182,-3.5464,-3.4726,-3.4286,-3.3964,-3.3541,-3.3711,-3.4015,-3.3778,-3.475,-3.5669,-3.4989,-3.4771,-3.4636,-3.4261,-3.3207,-3.2242,-3.2022,-3.1546,-3.119,-3.119,-3.119,-3.119,-3.119,-3.1819,-3.2039,-3.1292,-3.1836,-3.1667,-2.9973,-2.9786,-2.9482,-2.8721,-2.8128,-2.8128,-2.8942,-2.7692,-2.686,-2.6826,-2.6729,-2.6425,-2.5908,-2.6821,-2.718,-2.6911,-2.7765,-2.8752,-2.9897,-3.0273,-3.1307,-3.2832,-3.3222,-3.3645,-3.4015,-3.3254,-3.3355,-3.3968,-3.2879,-3.2579,-3.2784,-3.2412,-3.1951,-3.1524,-3.1739,-3.2132,-3.2641,-4.5382,-4.5669,-4.6143,-4.7601,-4.7259,-4.6515,-4.5821,-4.5703,-4.5637,-4.5511,-4.6014,-4.6333,-4.6236,-4.6188,-4.5634,-4.4245,-4.3993,-4.3379,-4.2181,-4.248,-4.2711,-4.2711,-4.3214,-4.2614,-4.0739,-3.9979,-3.8671,-3.6795,-3.5994,-3.5583,-3.56,-3.56,-3.5622,-3.5622,-3.5583,-3.5583,-3.5583,-3.5583,-3.5583,-3.5583,-3.56,-3.5583,-3.5583,-3.5583,-3.5583,-3.5583,-3.5583,-3.5583,-3.56,-3.5583,-3.5583,-3.5464,-3.4726,-3.4996,-3.5295,-3.3846,-3.4416,-3.5397,-3.4675,-3.5407,-3.6249,-3.5722,-3.5446,-3.4962,-3.3701,-3.2831,-3.209,-3.136,-3.1207,-3.119,-3.119,-3.119,-3.119,-3.119,-3.1819,-3.2039,-3.1292,-3.1836,-3.1481,-2.9281,-2.901,-2.8687,-2.7891,-2.7807,-2.8128,-2.8942,-2.8993,-2.876,-2.8308,-2.7641,-2.7077,-2.6606,-2.6587,-2.6941,-2.7585,-2.8916,-2.9928,-3.0596,-3.185,-3.2859,-3.3637,-3.4947,-3.5566,-3.5532,-3.4793,-3.4895,-3.5408,-3.3348,-3.2933,-3.3453,-3.2076,-3.1511,-3.1582,-3.2327,-3.2586,-3.2788,-4.55,-4.5703,-4.5855,-4.6329,-4.621,-4.5805,-4.5043,-4.5292,-4.5494,-4.5313,-4.5952,-4.6143,-4.5462,-4.5758,-4.545,-4.4078,-4.3045,-4.231,-4.1921,-4.1631,-4.1853,-4.2655,-4.1999,-4.1296,-4.0704,-3.9083,-3.7763,-3.6795,-3.5994,-3.56,-3.56,-3.56,-3.56,-3.56,-3.56,-3.56,-3.56,-3.56,-3.56,-3.56,-3.56,-3.56,-3.56,-3.56,-3.56,-3.56,-3.56,-3.56,-3.56,-3.56,-3.56,-3.5464,-3.4726,-3.4658,-3.4759,-3.4286,-3.4489,-3.4912,-3.5182,-3.5818,-3.6354,-3.6203,-3.6098,-3.5942,-3.5549,-3.4188,-3.2696,-3.1461,-3.119,-3.119,-3.119,-3.119,-3.119,-3.119,-3.1819,-3.2039,-3.1292,-3.1836,-3.1667,-2.9956,-2.9753,-2.9651,-2.9379,-2.8907,-2.8779,-2.916,-2.8275,-2.7685,-2.7624,-2.7849,-2.7359,-2.5976,-2.7245,-2.7854,-2.76,-2.9377,-3.0855,-3.1983,-3.2833,-3.3848,-3.4964,-3.5414,-3.56,-3.5549,-3.481,-3.4624,-3.4761,-3.3644,-3.3056,-3.2816,-3.24,-3.2548,-3.297,-3.2702,-3.3809,-3.5467,-4.5618,-4.5703,-4.5703,-4.5703,-4.5466,-4.5128,-4.4682,-4.5115,-4.5428,-4.5235,-4.612,-4.6324,-4.5122,-4.5548,-4.5258,-4.3642,-4.2465,-4.1707,-4.1468,-4.1335,-4.1468,-4.2,-4.1437,-4.076,-3.9972,-3.8684,-3.746,-3.6349,-3.5859,-3.56,-3.56,-3.56,-3.56,-3.56,-3.56,-3.56,-3.56,-3.56,-3.56,-3.56,-3.56,-3.56,-3.56,-3.56,-3.56,-3.56,-3.56,-3.56,-3.56,-3.56,-3.56,-3.5515,-3.5064,-3.4912,-3.4861,-3.4573,-3.4692,-3.5013,-3.5464,-3.6006,-3.6333,-3.6161,-3.6245,-3.6215,-3.5456,-3.4082,-3.2645,-3.1444,-3.119,-3.119,-3.119,-3.119,-3.119,-3.119,-3.1819,-3.1955,-3.092,-3.1667,-3.165,-2.9888,-2.9939,-3.0108,-3.0108,-2.9685,-2.9496,-2.965,-2.9061,-2.84,-2.7775,-2.7668,-2.7309,-2.6746,-2.7949,-2.8752,-2.9108,-3.0606,-3.2024,-3.3348,-3.4034,-3.4778,-3.56,-3.56,-3.56,-3.5566,-3.5115,-3.4912,-3.4868,-3.419,-3.3655,-3.3265,-3.305,-3.3437,-3.4042,-3.3842,-3.5069,-3.6769,-4.5618,-4.5618,-4.5618,-4.5618,-4.5043,-4.4615,-4.4615,-4.5115,-4.5428,-4.5235,-4.6396,-4.6675,-4.5163,-4.5399,-4.4937,-4.3062,-4.2257,-4.1643,-4.1115,-4.149,-4.1534,-4.1041,-4.1394,-4.0695,-3.8734,-3.8603,-3.7588,-3.56,-3.56,-3.56,-3.56,-3.56,-3.56,-3.56,-3.56,-3.56,-3.56,-3.56,-3.56,-3.56,-3.56,-3.56,-3.56,-3.56,-3.56,-3.56,-3.56,-3.56,-3.56,-3.56,-3.56,-3.56,-3.56,-3.56,-3.5464,-3.4776,-3.5064,-3.56,-3.56,-3.6006,-3.6287,-3.5783,-3.6032,-3.5887,-3.3922,-3.2899,-3.2175,-3.1427,-3.1241,-3.119,-3.119,-3.119,-3.119,-3.119,-3.1785,-3.1752,-3.0378,-3.136,-3.1464,-2.9399,-2.9753,-3.0192,-3.0192,-3.0192,-3.0197,-3.0222,-3.0811,-3.0384,-2.8596,-2.7311,-2.7231,-2.8573,-2.8682,-2.9667,-3.159,-3.2304,-3.334,-3.4688,-3.5316,-3.56,-3.56,-3.565,-3.5667,-3.5684,-3.5735,-3.5718,-3.5622,-3.5074,-3.4723,-3.4544,-3.4025,-3.4246,-3.4929,-3.5545,-3.6315,-3.7127,-4.484,-4.484,-4.484,-4.484,-4.4733,-4.4615,-4.4615,-4.5115,-4.5428,-4.5235,-4.5496,-4.5534,-4.5068,-4.4178,-4.3419,-4.2943,-4.265,-4.2599,-4.2866,-4.1832,-4.1503,-4.2223,-4.0605,-3.9376,-3.8712,-3.7751,-3.6712,-3.56,-3.56,-3.56,-3.56,-3.56,-3.56,-3.56,-3.56,-3.56,-3.56,-3.56,-3.56,-3.56,-3.56,-3.56,-3.56,-3.56,-3.56,-3.56,-3.56,-3.56,-3.56,-3.56,-3.56,-3.56,-3.56,-3.56,-3.5566,-3.538,-3.5447,-3.56,-3.56,-3.6006,-3.6354,-3.6245,-3.6308,-3.6008,-3.4567,-3.366,-3.2933,-3.2192,-3.1599,-3.119,-3.119,-3.119,-3.119,-3.119,-3.1343,-3.1326,-3.0987,-3.1241,-3.1278,-3.0734,-3.0818,-3.0937,-3.0937,-3.0937,-3.0556,-2.9679,-2.9768,-2.9477,-2.8616,-2.8747,-2.8768,-2.8618,-2.9535,-3.0549,-3.1606,-3.278,-3.4023,-3.5362,-3.5515,-3.56,-3.5616,-3.6231,-3.6502,-3.6535,-3.711,-3.7043,-3.6552,-3.6953,-3.6109,-3.4691,-3.5653,-3.6144,-3.6317,-3.6486,-3.7711,-3.9253,-4.4615,-4.4615,-4.4615,-4.4615,-4.4615,-4.4615,-4.4615,-4.5346,-4.5758,-4.5258,-4.5712,-4.5702,-4.47,-4.3849,-4.3134,-4.2577,-4.2378,-4.2304,-4.2309,-4.1468,-4.1122,-4.1503,-4.0216,-3.9278,-3.8854,-3.7823,-3.6738,-3.56,-3.56,-3.56,-3.56,-3.56,-3.56,-3.56,-3.56,-3.56,-3.56,-3.56,-3.56,-3.56,-3.56,-3.56,-3.56,-3.56,-3.56,-3.56,-3.56,-3.56,-3.56,-3.56,-3.56,-3.56,-3.56,-3.56,-3.56,-3.56,-3.56,-3.56,-3.56,-3.581,-3.6032,-3.6032,-3.6032,-3.5758,-3.4745,-3.4184,-3.3694,-3.2949,-3.2205,-3.1701,-3.1701,-3.143,-3.119,-3.119,-3.119,-3.1072,-3.0734,-3.0987,-3.1072,-3.0734,-3.1275,-3.1701,-3.1701,-3.2002,-3.1805,-3.089,-3.1092,-3.1053,-3.0493,-3.1407,-3.1316,-3.0007,-3.094,-3.2099,-3.3451,-3.4863,-3.5941,-3.6648,-3.6315,-3.6332,-3.6648,-3.6738,-3.6998,-3.7313,-3.7736,-3.7669,-3.733,-3.7736,-3.7191,-3.6176,-3.6977,-3.7519,-3.7803,-3.7803,-3.8765,-4.0045,-4.4615,-4.4615,-4.4615,-4.4615,-4.4615,-4.4615,-4.4615,-4.5459,-4.5914,-4.5323,-4.6164,-4.6128,-4.429,-4.3972,-4.3367,-4.2037,-4.1761,-4.149,-4.1064,-4.0949,-4.0703,-4.0254,-4.0146,-3.9757,-3.9005,-3.8176,-3.7096,-3.5832,-3.5672,-3.5644,-3.5717,-3.5644,-3.56,-3.56,-3.56,-3.56,-3.56,-3.56,-3.56,-3.56,-3.56,-3.56,-3.56,-3.56,-3.56,-3.56,-3.56,-3.56,-3.56,-3.56,-3.56,-3.56,-3.56,-3.56,-3.56,-3.56,-3.56,-3.56,-3.56,-3.56,-3.56,-3.56,-3.56,-3.543,-3.481,-3.4573,-3.432,-3.3694,-3.2983,-3.2429,-3.2327,-3.1802,-3.1326,-3.1207,-3.119,-3.097,-3.0362,-3.0801,-3.1004,-3.0497,-3.1549,-3.2344,-3.2462,-3.3119,-3.3357,-3.2854,-3.3439,-3.3646,-3.319,-3.4349,-3.4165,-3.2273,-3.2668,-3.3809,-3.5677,-3.7157,-3.7905,-3.7905,-3.7263,-3.728,-3.7889,-3.7364,-3.7466,-3.8075,-3.8075,-3.8075,-3.8075,-3.8075,-3.8007,-3.7922,-3.8159,-3.8548,-3.9005,-3.9106,-3.9571,-4.0096,-4.4615,-4.4615,-4.4615,-4.4615,-4.4615,-4.4615,-4.4615,-4.4776,-4.5028,-4.5415,-4.5482,-4.5143,-4.42,-4.3972,-4.3138,-4.1238,-4.1065,-4.1223,-4.1621,-4.1161,-4.0856,-4.078,-4.0343,-3.9757,-3.9005,-3.7675,-3.6962,-3.6943,-3.6037,-3.5832,-3.6266,-3.5827,-3.56,-3.56,-3.56,-3.56,-3.56,-3.56,-3.56,-3.56,-3.56,-3.56,-3.56,-3.56,-3.56,-3.56,-3.56,-3.56,-3.56,-3.56,-3.56,-3.56,-3.56,-3.56,-3.56,-3.56,-3.56,-3.56,-3.56,-3.56,-3.56,-3.56,-3.56,-3.5566,-3.5447,-3.4945,-3.4455,-3.4336,-3.3744,-3.3034,-3.2412,-3.2209,-3.1938,-3.1292,-3.119,-3.1157,-3.1055,-3.1123,-3.1396,-3.1904,-3.2158,-3.2547,-3.3169,-3.3897,-3.4314,-3.4284,-3.4962,-3.5347,-3.531,-3.6052,-3.6059,-3.5079,-3.4613,-3.4792,-3.5696,-3.7161,-3.7905,-3.7905,-3.7787,-3.7787,-3.7922,-3.843,-3.8717,-3.8819,-3.8819,-3.8819,-3.8819,-3.8819,-3.8464,-3.8024,-3.9259,-3.9453,-3.9073,-3.9706,-4.0011,-4.0096,-4.4615,-4.4615,-4.4615,-4.4615,-4.4615,-4.4615,-4.4615,-4.4896,-4.5178,-4.5459,-4.533,-4.48,-4.3781,-4.3233,-4.2256,-4.0597,-4.0473,-4.0594,-4.0861,-4.0625,-4.0473,-4.0473,-4.0229,-3.9685,-3.8802,-3.8442,-3.7784,-3.6764,-3.627,-3.6028,-3.5963,-3.5717,-3.56,-3.56,-3.56,-3.56,-3.56,-3.56,-3.56,-3.56,-3.56,-3.56,-3.56,-3.56,-3.56,-3.56,-3.56,-3.56,-3.56,-3.56,-3.56,-3.56,-3.56,-3.56,-3.56,-3.56,-3.56,-3.56,-3.56,-3.56,-3.56,-3.56,-3.56,-3.56,-3.56,-3.5329,-3.5098,-3.5098,-3.4506,-3.388,-3.3563,-3.2835,-3.2327,-3.2374,-3.1715,-3.1326,-3.1752,-3.1802,-3.2073,-3.2797,-3.3592,-3.4387,-3.5148,-3.5893,-3.6335,-3.6372,-3.6683,-3.7061,-3.7507,-3.7828,-3.7994,-3.8067,-3.6956,-3.6722,-3.7422,-3.853,-3.9073,-3.9073,-3.8684,-3.87,-3.9073,-3.9022,-3.9208,-3.9605,-3.9605,-3.9605,-3.9605,-3.9605,-3.9402,-3.914,-3.9842,-3.9893,-3.9639,-3.9977,-4.0096,-4.0096,-4.4615,-4.4615,-4.4615,-4.4615,-4.4615,-4.4615,-4.4615,-4.4998,-4.5294,-4.5294,-4.5284,-4.4773,-4.3481,-4.2901,-4.2022,-4.0485,-4.0367,-4.0282,-4.0113,-4.0096,-4.0096,-4.0096,-4.0229,-3.9873,-3.8996,-3.9312,-3.8651,-3.6923,-3.658,-3.6249,-3.5968,-3.5717,-3.56,-3.56,-3.56,-3.56,-3.56,-3.56,-3.56,-3.56,-3.56,-3.56,-3.56,-3.56,-3.56,-3.56,-3.56,-3.56,-3.56,-3.56,-3.56,-3.56,-3.56,-3.56,-3.56,-3.56,-3.56,-3.56,-3.56,-3.56,-3.56,-3.56,-3.56,-3.56,-3.56,-3.56,-3.56,-3.56,-3.5165,-3.4692,-3.4523,-3.358,-3.2953,-3.3339,-3.2459,-3.1901,-3.2479,-3.2699,-3.3106,-3.3829,-3.5076,-3.6197,-3.6998,-3.7719,-3.8159,-3.8159,-3.8311,-3.865,-3.9249,-3.9242,-3.9537,-4.0079,-3.8955,-3.8514,-3.8908,-3.9705,-4.0096,-4.0096,-3.9537,-3.9554,-4.0079,-3.952,-3.9571,-4.0096,-3.9926,-3.9943,-4.0096,-3.991,-3.996,-4.0096,-4.0096,-4.0096,-4.0096,-4.0096,-4.0096,-4.0096,-4.4615,-4.4615,-4.4615,-4.4615,-4.4615,-4.4615,-4.4615,-4.4626,-4.4682,-4.4682,-4.5127,-4.4941,-4.3539,-4.389,-4.3398,-4.1289,-4.1119,-4.0832,-4.0146,-4.0096,-4.0096,-4.0096,-4.0577,-4.06,-4.0091,-3.971,-3.9189,-3.853,-3.7097,-3.6623,-3.7058,-3.6075,-3.56,-3.56,-3.56,-3.56,-3.56,-3.56,-3.56,-3.56,-3.56,-3.56,-3.56,-3.56,-3.56,-3.56,-3.56,-3.56,-3.56,-3.56,-3.56,-3.56,-3.56,-3.56,-3.56,-3.56,-3.56,-3.56,-3.56,-3.56,-3.56,-3.56,-3.56,-3.56,-3.56,-3.56,-3.56,-3.56,-3.5549,-3.5295,-3.4624,-3.4404,-3.4117,-3.3508,-3.3322,-3.3271,-3.3322,-3.3914,-3.4607,-3.5346,-3.618,-3.6992,-3.7753,-3.8481,-3.892,-3.892,-3.9554,-3.996,-4.0028,-4.0028,-4.0045,-4.0096,-3.9995,-3.9612,-3.8908,-3.9705,-4.0096,-4.0096,-4.0045,-4.0045,-4.0096,-4.0045,-4.0045,-4.0062,-3.9377,-3.9462,-4.0045,-3.9343,-3.9486,-4.0096,-4.0096,-4.0096,-4.0096,-4.0096,-4.0096,-4.0096,-4.4699,-4.4615,-4.4615,-4.4615,-4.4615,-4.4615,-4.4615,-4.4615,-4.4615,-4.4615,-4.4786,-4.4707,-4.4087,-4.4241,-4.3712,-4.1955,-4.181,-4.1329,-4.0172,-4.0096,-4.0254,-4.0577,-4.1508,-4.1667,-4.096,-4.0655,-3.9983,-3.8943,-3.7572,-3.6823,-3.6684,-3.5963,-3.56,-3.56,-3.56,-3.56,-3.56,-3.56,-3.56,-3.56,-3.56,-3.56,-3.56,-3.56,-3.56,-3.56,-3.56,-3.56,-3.56,-3.56,-3.56,-3.56,-3.56,-3.5943,-3.6332,-3.6332,-3.5994,-3.56,-3.56,-3.56,-3.56,-3.56,-3.5994,-3.6214,-3.5701,-3.5994,-3.6197,-3.5701,-3.6011,-3.6248,-3.5983,-3.552,-3.5402,-3.6096,-3.4996,-3.4421,-3.5368,-3.5763,-3.6197,-3.6941,-3.7702,-3.8454,-3.9174,-3.9537,-3.969,-3.969,-3.9943,-4.0096,-4.0096,-4.0096,-4.0096,-4.0096,-4.0096,-3.9952,-3.9636,-3.9952,-4.0096,-4.0096,-4.0096,-4.0096,-4.0096,-4.0096,-4.0096,-4.0079,-3.9808,-3.9842,-4.0104,-4.0158,-4.0343,-4.0601,-4.0601,-4.0601,-4.0552,-4.0229,-4.0096,-4.002,-4.541,-4.5473,-4.5539,-4.532,-4.5473,-4.5539,-4.532,-4.5077,-4.4942,-4.4942,-4.475,-4.4637,-4.4733,-4.474,-4.4232,-4.2917,-4.263,-4.1926,-4.0436,-4.0538,-4.0814,-4.1178,-4.2162,-4.2371,-4.1706,-4.1549,-4.0889,-3.9726,-3.8525,-3.7617,-3.7027,-3.6539,-3.6056,-3.5616,-3.5853,-3.5836,-3.56,-3.56,-3.56,-3.5616,-3.5893,-3.5994,-3.6011,-3.6225,-3.6174,-3.6011,-3.6225,-3.6157,-3.6011,-3.6225,-3.6309,-3.6309,-3.6309,-3.6705,-3.7117,-3.688,-3.6569,-3.6259,-3.6045,-3.614,-3.6259,-3.6022,-3.6569,-3.6992,-3.6468,-3.6755,-3.6975,-3.6428,-3.6755,-3.7168,-3.7168,-3.6688,-3.6664,-3.7736,-3.6586,-3.5943,-3.6992,-3.7354,-3.7669,-3.8193,-3.8886,-3.9529,-4.0045,-4.0096,-4.0096,-4.0096,-4.0096,-4.0096,-4.0096,-3.9876,-3.9833,-4.0096,-4.0096,-4.0096,-4.0096,-4.0096,-4.0096,-4.0096,-4.0096,-4.0096,-4.0096,-4.0096,-4.0096,-4.0096,-4.0096,-4.0096,-4.0146,-4.0679,-4.0903,-4.0903,-4.0903,-4.0903,-4.085,-4.0311,-3.9927,-3.9636,-4.6786,-4.7335,-4.7607,-4.6915,-4.7346,-4.7579,-4.6915,-4.6177,-4.572,-4.572,-4.506,-4.4841,-4.5451,-4.5511,-4.5122,-4.4185,-4.3617,-4.2632,-4.1007,-4.1468,-4.181,-4.181,-4.2382,-4.2576,-4.2306,-4.2304,-4.1919,-4.1113,-4.0035,-3.9122,-3.8414,-3.8059,-3.7094,-3.5673,-3.6474,-3.6372,-3.5616,-3.56,-3.5616,-3.5684,-3.6468,-3.6795,-3.6897,-3.7618,-3.7449,-3.6914,-3.7635,-3.7432,-3.6931,-3.7652,-3.7905,-3.7905,-3.7922,-3.7905,-3.777,-3.7032,-3.733,-3.7736,-3.7015,-3.7347,-3.7736,-3.6998,-3.7347,-3.7922,-3.7905,-3.7905,-3.7922,-3.7905,-3.7905,-3.7922,-3.7922,-3.7922,-3.7922,-3.7922,-3.7922,-3.7922,-3.7922,-3.8548,-3.9005,-3.9005,-3.9656,-4.0096,-4.0096,-4.0096,-4.0096,-4.0096,-4.0096,-4.0096,-4.0096,-3.9342,-3.9289,-4.007,-4.0096,-4.0096,-4.0096,-4.0096,-4.0096,-4.0096,-4.0096,-4.0096,-4.0096,-4.0096,-4.0096,-4.0096,-4.0096,-4.0096,-4.0146,-4.0679,-4.0903,-4.0903,-4.0903,-4.0903,-4.0833,-4.0311,-3.9584,-3.8908,-4.6887,-4.7335,-4.7607,-4.6915,-4.7346,-4.7579,-4.6915,-4.6599,-4.6464,-4.6464,-4.5821,-4.5774,-4.6856,-4.647,-4.6018,-4.567,-4.4583,-4.2905,-4.0495,-4.085,-4.1358,-4.1789,-4.2734,-4.3211,-4.313,-4.2598,-4.2176,-4.1937,-4.0673,-3.9965,-3.9713,-3.9285,-3.8853,-3.8415,-3.8213,-3.7998,-3.7718,-3.6826,-3.6738,-3.7195,-3.6914,-3.7094,-3.7601,-3.7821,-3.777,-3.7601,-3.7821,-3.777,-3.7601,-3.7838,-3.7905,-3.799,-3.8514,-3.8328,-3.7973,-3.8244,-3.8125,-3.7855,-3.7635,-3.8108,-3.8481,-3.7753,-3.8125,-3.8531,-3.8024,-3.8311,-3.8531,-3.8024,-3.8311,-3.8667,-3.8667,-3.8667,-3.8836,-3.9343,-3.9005,-3.8853,-3.9385,-3.9639,-3.9774,-3.9774,-3.9977,-4.0096,-4.0096,-4.0096,-4.0096,-4.0096,-4.0096,-4.0096,-4.0096,-3.9859,-3.9833,-4.0096,-4.0096,-4.0096,-4.0096,-4.0096,-4.0096,-4.0096,-4.0096,-4.0096,-4.0096,-4.0096,-4.0096,-4.0096,-4.0096,-4.0096,-4.0146,-4.0679,-4.1155,-4.149,-4.1064,-4.1155,-4.1402,-4.0441,-3.9584,-3.8827,-4.775,-4.8448,-4.8883,-4.8197,-4.8637,-4.8866,-4.8168,-4.7585,-4.7242,-4.7242,-4.6346,-4.6088,-4.7087,-4.6495,-4.6012,-4.5885,-4.4351,-4.2566,-4.0654,-4.0993,-4.1424,-4.1771,-4.2676,-4.3178,-4.3178,-4.2916,-4.2554,-4.2103,-4.1522,-4.0977,-4.0464,-4.0455,-4.0035,-3.9247,-3.9181,-3.8856,-3.8334,-3.7568,-3.7483,-3.7889,-3.7719,-3.7922,-3.8362,-3.865,-3.8582,-3.8379,-3.8667,-3.8582,-3.8379,-3.8667,-3.8768,-3.8853,-3.9276,-3.9123,-3.8802,-3.8954,-3.8886,-3.87,-3.8413,-3.887,-3.9326,-3.887,-3.9106,-3.9334,-3.887,-3.9106,-3.9292,-3.8853,-3.9106,-3.9453,-3.9453,-3.9453,-3.9588,-4.0028,-3.974,-3.9605,-4.0045,-4.0096,-4.0096,-4.0096,-4.0096,-4.0096,-4.0096,-4.0096,-4.0096,-4.0096,-3.9808,-3.9756,-4.007,-3.9808,-3.9782,-4.0096,-4.0096,-4.0096,-4.0096,-4.0096,-4.0096,-4.0096,-4.0096,-4.0096,-4.0096,-4.0096,-4.0096,-4.0096,-4.0096,-4.0096,-4.0146,-4.0679,-4.1268,-4.1729,-4.1133,-4.1268,-4.1643,-4.0514,-3.9411,-3.8386,-4.9001,-5.0083,-5.0744,-5.0024,-5.0557,-5.0823,-5.0109,-4.8905,-4.8094,-4.8094,-4.6747,-4.6039,-4.6617,-4.597,-4.5453,-4.5329,-4.3482,-4.2022,-4.1333,-4.1609,-4.1839,-4.1874,-4.2362,-4.2616,-4.2616,-4.3105,-4.2829,-4.181,-4.2402,-4.2083,-4.0892,-4.1621,-4.0905,-3.9094,-3.9703,-3.9302,-3.8146,-3.8048,-3.8041,-3.8159,-3.8751,-3.9039,-3.9157,-3.9842,-3.969,-3.9174,-3.9859,-3.9673,-3.9191,-3.9876,-4.0096,-4.0096,-4.0096,-4.0096,-3.9977,-3.9317,-3.9571,-3.996,-3.9276,-3.9605,-4.0096,-4.0096,-4.0096,-4.0096,-4.0096,-4.0096,-4.0096,-4.0096,-4.0096,-4.0096,-4.0096,-4.0096,-4.0096,-4.0096,-4.0096,-4.0096,-4.0096,-4.0096,-4.0096,-4.0096,-4.0163,-4.0197,-4.0197,-4.0265,-4.0299,-4.0299,-3.9571,-3.9415,-4.0147,-3.9444,-3.9342,-4.007,-4.0163,-4.0197,-4.0197,-4.0265,-4.0231,-4.0096,-4.0096,-4.0096,-4.0096,-4.0096,-4.0096,-4.0096,-4.0096,-4.0096,-4.0146,-4.0631,-4.1178,-4.1664,-4.1064,-4.1201,-4.1578,-4.049,-3.9172,-3.7892,-4.9001,-4.9639,-4.9943,-4.9188,-5.0097,-5.0712,-5.0047,-4.9708,-4.9522,-4.9522,-4.7795,-4.6788,-4.7402,-4.6282,-4.5662,-4.6112,-4.4764,-4.3331,-4.2002,-4.2001,-4.2176,-4.2478,-4.2183,-4.2018,-4.2018,-4.2103,-4.2062,-4.181,-4.2402,-4.2545,-4.2268,-4.2849,-4.2666,-4.1821,-4.1513,-4.0958,-4.0169,-3.9173,-3.9089,-3.9605,-3.9157,-3.9368,-3.9893,-4.0045,-4.0011,-3.9893,-4.0045,-3.9994,-3.9893,-4.0045,-4.0096,-4.0096,-4.0096,-4.0096,-4.0079,-3.991,-3.9977,-4.0079,-3.991,-3.9977,-4.0096,-4.0096,-4.0096,-4.0096,-4.0096,-4.0096,-4.0096,-4.0096,-4.0096,-4.0096,-4.0096,-4.0096,-4.0096,-4.0096,-4.0096,-4.0096,-4.0096,-4.0096,-4.0096,-4.0096,-4.0595,-4.0967,-4.0967,-4.1474,-4.1813,-4.1813,-4.1141,-4.0778,-4.095,-4.0247,-3.9927,-4.0096,-4.0646,-4.0967,-4.0967,-4.1525,-4.1221,-4.0096,-4.0096,-4.0096,-4.0096,-4.0096,-4.0096,-4.0096,-4.0096,-4.0096,-4.0096,-4.0229,-4.0601,-4.1041,-4.0497,-4.0601,-4.1018,-4.036,-3.9489,-3.8663,-4.9402,-5.0011,-5.0458,-5.0389,-5.0664,-5.0782,-5.0431,-5.0143,-4.9808,-4.944,-4.8145,-4.7264,-4.718,-4.592,-4.5205,-4.5494,-4.4535,-4.3726,-4.3217,-4.2759,-4.2714,-4.3251,-4.2338,-4.181,-4.181,-4.1263,-4.0984,-4.0984,-4.2139,-4.2539,-4.2302,-4.3124,-4.3051,-4.2262,-4.1937,-4.1313,-4.0463,-3.9797,-3.9757,-4.0079,-3.969,-3.9757,-4.0096,-4.0096,-4.0096,-4.0096,-4.0096,-4.0096,-4.0096,-4.0096,-4.0096,-4.0096,-4.0096,-4.0096,-4.0096,-4.0096,-4.0096,-4.0096,-4.0096,-4.0096,-4.0096,-4.0096,-4.0096,-4.0096,-4.0096,-4.0096,-4.0154,-4.0441,-4.0286,-4.0179,-4.0424,-4.0262,-4.0096,-4.0096,-4.0096,-4.0096,-4.0096,-4.0096,-4.0231,-4.0578,-4.0967,-4.1339,-4.1694,-4.2066,-4.2286,-4.2286,-4.1931,-4.1728,-4.1728,-4.1339,-4.1162,-4.1162,-4.1508,-4.1728,-4.1728,-4.21,-4.1897,-4.1162,-4.0781,-4.0612,-4.0595,-4.0265,-4.0096,-4.0096,-4.0096,-4.0096,-4.0096,-4.0096,-4.0417,-4.085,-4.0311,-4.0441,-4.085,-4.0311,-3.9584,-3.8908,-5.009,-5.0664,-5.1248,-5.1802,-5.1334,-5.0887,-5.0903,-5.0431,-4.9756,-4.8849,-4.8207,-4.7442,-4.6537,-4.535,-4.4615,-4.4615,-4.3995,-4.3856,-4.4501,-4.3763,-4.3579,-4.4221,-4.2915,-4.2129,-4.2005,-4.1119,-4.0509,-4.0254,-4.1785,-4.2342,-4.1979,-4.3014,-4.2885,-4.181,-4.181,-4.1168,-4.0096,-4.0096,-4.0096,-4.0096,-4.0096,-4.0096,-4.0096,-4.0096,-4.0096,-4.0096,-4.0096,-4.0096,-4.0096,-4.0096,-4.0096,-4.0096,-4.0096,-4.0096,-4.0096,-4.0096,-4.0096,-4.0096,-4.0096,-4.0096,-4.013,-4.0265,-4.0299,-4.0333,-4.0451,-4.0282,-4.0237,-4.078,-4.0552,-4.0402,-4.1,-4.0734,-4.0442,-4.0451,-4.0485,-4.0485,-4.0485,-4.0485,-4.0679,-4.1322,-4.1508,-4.188,-4.2608,-4.2675,-4.2675,-4.2675,-4.2557,-4.2489,-4.2489,-4.2354,-4.2286,-4.2286,-4.2422,-4.2489,-4.2489,-4.2608,-4.2675,-4.2675,-4.1931,-4.1508,-4.1373,-4.0612,-4.0367,-4.0468,-4.035,-4.0367,-4.0468,-4.035,-4.0548,-4.0899,-4.0313,-4.0368,-4.0726,-4.0262,-3.9662,-3.9113,-5.0929,-5.0941,-5.095,-5.1056,-5.0926,-5.0824,-5.0895,-5.0811,-5.0311,-4.9044,-4.8244,-4.7286,-4.5983,-4.5083,-4.4615,-4.4615,-4.4513,-4.4633,-4.5064,-4.4958,-4.5126,-4.5608,-4.4465,-4.3474,-4.2845,-4.2852,-4.2175,-4.0803,-4.1556,-4.2142,-4.2596,-4.3214,-4.2885,-4.181,-4.181,-4.1168,-4.0096,-4.0096,-4.0096,-4.0096,-4.0096,-4.0096,-4.0096,-4.0096,-4.0096,-4.0096,-4.0096,-4.0096,-4.0096,-4.0096,-4.0096,-4.0096,-4.0096,-4.0096,-4.0096,-4.0096,-4.0096,-4.0096,-4.0096,-4.0096,-4.0265,-4.0882,-4.1052,-4.1221,-4.1847,-4.1027,-4.0237,-4.078,-4.0833,-4.1028,-4.1791,-4.1881,-4.1862,-4.1985,-4.1982,-4.1982,-4.1982,-4.1982,-4.2033,-4.2134,-4.2726,-4.342,-4.4225,-4.4293,-4.4293,-4.4293,-4.3639,-4.324,-4.324,-4.2642,-4.2286,-4.2286,-4.2929,-4.324,-4.324,-4.3927,-4.4293,-4.4293,-4.3487,-4.2777,-4.2117,-4.139,-4.1407,-4.1974,-4.1322,-4.1407,-4.1948,-4.1305,-4.1086,-4.1095,-4.0375,-4.0146,-4.0204,-4.0121,-4.002,-3.9927,-5.1593,-5.1616,-5.17,-5.2112,-5.1425,-5.0691,-5.0326,-4.9893,-4.9243,-4.8193,-4.7559,-4.6925,-4.6161,-4.5203,-4.4615,-4.4615,-4.4615,-4.4978,-4.58,-4.5133,-4.5257,-4.6506,-4.467,-4.3789,-4.4172,-4.3605,-4.3284,-4.3237,-4.306,-4.2873,-4.2711,-4.325,-4.2885,-4.181,-4.181,-4.1168,-4.0096,-4.0096,-4.0096,-4.0096,-4.0096,-4.0096,-4.0096,-4.0096,-4.0096,-4.0096,-4.0096,-4.0096,-4.0096,-4.0096,-4.0096,-4.0096,-4.0096,-4.0096,-4.0171,-4.0449,-4.0552,-4.0552,-4.0552,-4.0871,-4.1201,-4.118,-4.1508,-4.1897,-4.2219,-4.1805,-4.158,-4.2498,-4.2445,-4.2449,-4.3086,-4.2962,-4.2681,-4.2351,-4.2286,-4.2286,-4.2286,-4.2286,-4.2439,-4.2878,-4.3606,-4.4198,-4.4581,-4.4959,-4.5026,-4.4632,-4.4958,-4.5003,-4.4592,-4.4275,-4.4086,-4.4086,-4.4079,-4.4062,-4.4062,-4.4429,-4.4615,-4.4598,-4.4575,-4.3985,-4.2895,-4.2151,-4.1982,-4.2252,-4.1525,-4.1627,-4.2236,-4.1508,-4.1204,-4.117,-4.0832,-4.0468,-4.0096,-4.0096,-4.0096,-4.0096]},{"header":{"parameterUnit":"m.s-1","parameterCategory":1,"la1":30.6,"la2":28.766,"lo1":-90.7593,"lo2":-88.6598,"dy":0.0162,"dx":0.0183,"nx":116,"ny":114,"refTime":"2023-08-08T06:00:00:Z","depth":0,"parameterNumber":3,"parameterNumberName":"V-component_of_WINDS"},"data":[0.0,0.0,0.0,0.0,0.0,0.0,0.0,0.0,0.0,0.0,0.0,0.0,0.0,0.0,0.0,0.0,0.0,0.0,0.0,0.0,0.0,0.0,0.0,0.0,0.0,0.0,0.0,0.0,0.0,0.0,0.0,0.0,0.0,0.0,0.0,0.0,0.0,0.0,0.0,0.0,0.0,0.0,0.0,0.0,0.0,0.0,0.0,0.0,0.0,0.0,0.0,0.0,0.0,0.0,0.0,0.0,0.0,0.0,0.0,0.0,0.0,0.0,0.0,0.0,0.0,0.0,0.0,0.0,0.0,0.0,0.0,0.0,0.0,0.0,0.0,0.0,0.0,0.0,0.0,0.0,0.0,0.0,0.0,0.0,0.0,0.0,0.0,0.0,0.0,0.0,0.0,0.0,0.0,0.0,0.0,0.0,0.0,0.0,0.0,0.0,0.0,0.0,0.0,0.0,0.0,0.0,0.0,0.0,0.0,0.0,0.0,0.0,0.0,0.0,0.0,0.0,0.0,0.0,0.0,0.0,0.0,0.0,0.0,0.0,0.0,0.0,0.0,0.0,0.0,0.0,0.0,0.0,0.0,0.0,0.0,0.0,0.0,0.0,0.0,0.0,0.0,0.0,0.0,0.0,0.0,0.0,0.0,0.0,0.0,0.0,0.0,0.0,0.0,0.0,0.0,0.0,0.0,0.0,0.0,0.0,0.0,0.0,0.0,0.0,0.0,0.0,0.0,0.0,0.0,0.0,0.0,0.0,0.0,0.0,0.0,0.0,0.0,0.0,0.0,0.0,0.0,0.0,0.0,0.0,0.0,0.0,0.0,0.0,0.0,0.0,0.0,0.0,0.0,0.0,0.0,0.0,0.0,0.0,0.0,0.0,0.0,0.0,0.0,0.0,0.0,0.0,0.0,0.0,0.0,0.0,0.0,0.0,0.0,0.0,0.0,0.0,0.0,0.0,0.0,0.0,0.0,0.0,0.0,0.0,0.0,0.0,0.0,0.0,0.0,0.0,0.0,0.0,0.0,0.0,0.0,0.0,0.0,0.0,0.0,0.0,0.0,0.0,0.0,0.0,0.0,0.0,0.0,0.0,0.0,0.0,0.0,0.0,0.0,0.0,0.0,0.0,0.0,0.0,0.0,0.0,0.0,0.0,0.0,0.0,0.0,0.0,0.0,0.0,0.0,0.0,0.0,0.0,0.0,0.0,0.0,0.0,0.0,0.0,0.0,0.0,0.0,0.0,0.0,0.0,0.0,0.0,0.0,0.0,0.0,0.0,0.0,0.0,0.0,0.0,0.0,0.0,0.0,0.0,0.0,0.0,0.0,0.0,0.0,0.0,0.0,0.0,0.0,0.0,0.0,0.0,0.0,0.0,0.0,0.0,0.0,0.0,0.0,0.0,0.0,0.0,0.0,0.0,0.0,0.0,0.0,0.0,0.0,0.0,0.0,0.0,0.0,0.0,0.0,0.0,0.0,0.0,0.0,0.0,0.0,0.0,0.0,0.0,0.0,0.0,0.0,0.0,0.0,0.0,0.0,0.0,0.0,0.0,0.0,0.0,0.0,0.0,0.0,0.0,0.0,0.0,0.0,0.0,0.0,0.0,0.0,0.0,0.0,0.0,0.0,0.0,0.0,0.0,0.0,0.0,0.0,0.0,0.0,0.0,0.0,0.0,0.0,0.0,0.0,0.0,0.0,0.0,0.0,0.0,0.0,0.0,0.0,0.0,0.0,0.0,0.0,0.0,0.0,0.0,0.0,0.0,0.0,0.0,0.0,0.0,0.0,0.0,0.0,0.0,0.0,0.0,0.0,0.0,0.0,0.0,0.0,0.0,0.0,0.0,0.0,0.0,0.0,0.0,0.0,0.0,0.0,0.0,0.0,0.0,0.0,0.0,0.0,0.0,0.0,0.0,0.0,0.0,0.0,0.0,0.0,0.0,0.0,0.0,0.0,0.0,0.0,0.0,0.0,0.0,0.0,0.0,0.0,0.0,0.0,0.0,0.0,0.0,0.0,0.0,0.0,0.0,0.0,0.0,0.0,0.0,0.0,0.0,0.0,0.0,0.0,0.0,0.0,0.0,0.0,0.0,0.0,0.0,0.0,0.0,0.0,0.0,0.0,0.0,0.0,0.0,0.0,0.0,0.0,0.0,0.0,0.0,0.0,0.0,0.0,0.0,0.0,0.0,0.0,0.0,0.0,0.0,0.0,0.0,0.0,0.0,0.0,0.0,0.0,0.0,0.0,0.0,0.0,0.0,0.0,0.0,0.0,0.0,0.0,0.0,0.0,0.0,0.0,0.0,0.0,0.0,0.0,0.0,0.0,0.0,0.0,0.0,0.0,0.0,0.0,0.0,0.0,0.0,0.0,0.0,0.0,0.0,0.0,0.0,0.0,0.0,0.0,0.0,0.0,0.0,0.0,0.0,0.0,0.0,0.0,0.0,0.0,0.0,0.0,0.0,0.0,0.0,0.0,0.0,0.0,0.0,0.0,0.0,0.0,0.0,0.0,0.0,0.0,0.0,0.0,0.0,0.0,0.0,0.0,0.0,0.0,0.0,0.0,0.0,0.0,0.0,0.0,0.0,0.0,0.0,0.0,0.0,0.0,0.0,0.0,0.0,0.0,0.0,0.0,0.0,0.0,0.0,0.0,0.0,0.0,0.0,0.0,0.0,0.0,0.0,0.0,0.0,0.0,0.0,0.0,0.0,0.0,0.0,0.0,0.0,0.0,0.0,0.0,0.0,0.0,0.0,0.0,0.0,0.0,0.0,0.0,0.0,0.0,0.0,0.0,0.0,0.0,0.0,0.0,0.0,0.0,0.0,0.0,0.0,0.0,0.0,0.0,0.0,0.0,0.0,0.0,0.0,0.0,0.0,0.0,0.0,0.0,0.0,0.0,0.0,0.0,0.0,0.0,0.0,0.0,0.0,0.0,0.0,0.0,0.0,0.0,0.0,0.0,0.0,0.0,0.0,0.0,0.0,0.0,0.0,0.0,0.0,0.0,0.0,0.0,0.0,0.0,0.0,0.0,0.0,0.0,0.0,0.0,0.0,0.0,0.0,0.0,0.0,0.0,0.0,0.0,0.0,0.0,0.0,0.0,0.0,0.0,0.0,0.0,0.0,0.0,0.0,0.0,0.0,0.0,0.0,0.0,0.0,0.0,0.0,0.0,0.0,0.0,0.0,0.0,0.0,0.0,0.0,0.0,0.0,0.0,0.0,0.0,0.0,0.0,0.0,0.0,0.0,0.0,0.0,0.0,0.0,0.0,0.0,0.0,0.0,0.0,0.0,0.0,0.0,0.0,0.0,0.0,0.0,0.0,0.0,0.0,0.0,0.0,0.0,0.0,0.0,0.0,0.0,0.0,0.0,0.0,0.0,0.0,0.0,0.0,0.0,0.0,0.0,0.0,0.0,0.0,0.0,0.0,0.0,0.0,0.0,0.0,0.0,0.0,0.0,0.0,0.0,0.0,0.0,0.0,0.0,0.0,0.0,0.0,0.0,0.0,0.0,0.0,0.0,0.0,0.0,0.0,0.0,0.0,0.0,0.0,0.0,0.0,0.0,0.0,0.0,0.0,0.0,0.0,0.0,0.0,0.0,0.0,0.0,0.0,0.0,0.0,0.0,0.0,0.0,0.0,0.0,0.0,0.0,0.0,0.0,0.0,0.0,0.0,0.0,0.0,0.0,0.0,0.0,0.0,0.0,0.0,0.0,0.0,0.0,0.0,0.0,0.0,0.0,0.0,0.0,0.0,0.0,0.0,0.0,0.0,0.0,0.0,0.0,0.0,0.0,0.0,0.0,0.0,0.0,0.0,0.0,0.0,0.0,0.0,0.0,0.0,0.0,0.0,0.0,0.0,0.0,0.0,0.0,0.0,0.0,0.0,0.0,0.0,0.0,0.0,0.0,0.0,0.0,0.0,0.0,0.0,0.0,0.0,0.0,0.0,0.0,0.0,0.0,0.0,0.0,0.0,0.0,0.0,0.0,0.0,0.0,0.0,0.0,0.0,0.0,0.0,0.0,0.0,0.0,0.0,0.0,0.0,0.0,0.0,0.0,0.0,0.0,0.0,0.0,0.0,0.0,0.0,0.0,0.0,0.0,0.0,0.0,0.0,0.0,0.0,0.0,0.0,0.0,0.0,0.0,0.0,0.0,0.0,0.0,0.0,0.0,0.0,0.0,0.0,0.0,0.0,0.0,0.0,0.0,0.0,0.0,0.0,0.0,0.0,0.0,0.0,0.0,0.0,0.0,0.0,0.0,0.0,0.0,0.0,0.0,0.0,0.0,0.0,0.0,0.0,0.0,0.0,0.0,0.0,0.0,0.0,0.0,0.0,0.0,0.0,0.0,0.0,0.0,0.0,0.0,0.0,0.0,0.0,0.0,0.0,0.0,0.0,0.0,0.0,0.0,0.0,0.0,0.0,0.0,0.0,0.0,0.0,0.0,0.0,0.0,0.0,0.0,0.0,0.0,0.0,0.0,0.0,0.0,0.0,0.0,0.0,0.0,0.0,0.0,0.0,0.0,0.0,0.0,0.0,0.0,0.0,0.0,0.0,0.0,0.0,0.0,0.0,0.0,0.0,0.0,0.0,0.0,0.0,0.0,0.0,0.0,0.0,0.0,0.0,0.0,0.0,0.0,0.0,0.0,0.0,0.0,0.0,0.0,0.0,0.0,0.0,0.0,0.0,0.0,0.0,0.0,0.0,0.0,0.0,0.0,0.0,0.0,0.0,0.0,0.0,0.0,0.0,0.0,0.0,0.0,0.0,0.0,0.0,0.0,0.0,0.0,0.0,0.0,0.0,0.0,0.0,0.0,0.0,0.0,0.0,0.0,0.0,0.0,0.0,0.0,0.0,0.0,0.0,0.0,0.0,0.0,0.0,0.0,0.0,0.0,0.0,0.0,0.0,0.0,0.0,0.0,0.0,0.0,0.0,0.0,0.0,0.0,0.0,0.0,0.0,0.0,0.0,0.0,0.0,0.0,0.0,0.0,0.0,0.0,0.0,0.0,0.0,0.0,0.0,0.0,0.0,0.0,0.0,0.0,0.0,0.0,0.0,0.0,0.0,0.0,0.0,0.0,0.0,0.0,0.0,0.0,0.0,0.0,0.0,0.0,0.0,0.0,0.0,0.0,0.0,0.0,0.0,0.0,0.0,0.0,0.0,0.0,0.0,0.0,0.0,0.0,0.0,0.0,0.0,0.0,0.0,0.0,0.0,0.0,0.0,0.0,0.0,0.0,0.0,0.0,0.0,0.0,0.0,0.0,0.0,0.0,0.0,0.0,0.0,0.0,0.0,0.0,0.0,0.0,0.0,0.0,0.0,0.0,0.0,0.0,0.0,0.0,0.0,0.0,0.0,0.0,0.0,0.0,0.0,0.0,0.0,0.0,0.0,0.0,0.0,0.0,0.0,0.0,0.0,0.0,0.0,0.0,0.0,0.0,0.0,0.0,0.0,0.0,0.0,0.0,0.0,0.0,0.0,0.0,0.0,0.0,0.0,0.0,0.0,0.0,0.0,0.0,0.0,0.0,0.0,0.0,0.0,0.0,0.0,0.0,0.0,0.0,0.0,0.0,0.0,0.0,0.0,0.0,0.0,0.0,0.0,0.0,0.0,0.0,0.0,0.0,0.0,0.0,0.0,0.0,0.0,0.0,0.0,0.0,0.0,0.0,0.0,0.0,0.0,0.0,0.0,0.0,0.0,0.0,0.0,0.0,0.0,0.0,0.0,0.0,0.0,0.0,0.0,0.0,0.0,0.0,0.0,0.0,0.0,0.0,0.0,0.0,0.0,0.0,0.0,0.0,0.0,0.0,0.0,0.0,0.0,0.0,0.0,0.0,0.0,0.0,0.0,0.0,0.0,0.0,0.0,0.0,0.0,0.0,0.0,0.0,0.0,0.0,0.0,0.0,0.0,0.0,0.0,0.0,0.0,0.0,0.0,0.0,0.0,0.0,0.0,0.0,0.0,0.0,0.0,0.0,0.0,0.0,0.0,0.0,0.0,0.0,0.0,0.0,0.0,0.0,0.0,0.0,0.0,0.0,0.0,0.0,0.0,0.0,0.0,0.0,0.0,0.0,0.0,0.0,-2.3478,-2.3009,0.0,0.0,0.0,0.0,0.0,0.0,0.0,0.0,0.0,0.0,0.0,0.0,0.0,0.0,0.0,0.0,0.0,0.0,0.0,0.0,0.0,0.0,0.0,0.0,0.0,0.0,0.0,0.0,0.0,0.0,0.0,0.0,0.0,0.0,0.0,0.0,0.0,0.0,0.0,0.0,0.0,0.0,0.0,0.0,0.0,0.0,0.0,0.0,0.0,0.0,0.0,0.0,0.0,0.0,0.0,0.0,0.0,0.0,0.0,0.0,0.0,0.0,0.0,0.0,0.0,0.0,0.0,0.0,0.0,0.0,0.0,0.0,0.0,0.0,0.0,0.0,0.0,0.0,0.0,0.0,0.0,0.0,0.0,0.0,0.0,0.0,0.0,0.0,0.0,0.0,0.0,0.0,0.0,0.0,0.0,0.0,0.0,0.0,0.0,0.0,0.0,0.0,0.0,0.0,0.0,0.0,0.0,0.0,0.0,0.0,0.0,0.0,0.0,0.0,-2.5355,-2.4386,0.0,0.0,0.0,0.0,0.0,0.0,0.0,0.0,0.0,0.0,0.0,0.0,0.0,0.0,0.0,0.0,0.0,0.0,0.0,0.0,0.0,0.0,0.0,0.0,0.0,0.0,0.0,0.0,0.0,0.0,0.0,0.0,0.0,0.0,0.0,0.0,0.0,0.0,0.0,0.0,0.0,0.0,0.0,0.0,0.0,0.0,0.0,0.0,0.0,0.0,0.0,0.0,0.0,0.0,0.0,0.0,0.0,0.0,0.0,0.0,0.0,0.0,0.0,0.0,0.0,0.0,0.0,0.0,0.0,0.0,0.0,0.0,0.0,0.0,0.0,0.0,0.0,0.0,0.0,0.0,0.0,0.0,0.0,0.0,0.0,0.0,0.0,0.0,0.0,0.0,0.0,0.0,0.0,0.0,0.0,0.0,0.0,0.0,0.0,0.0,0.0,0.0,0.0,0.0,0.0,0.0,0.0,0.0,-2.9997,-3.0285,-2.9545,-2.9431,-2.9804,-3.0438,-2.8294,-2.6994,-2.6336,-2.5747,0.0,0.0,0.0,0.0,0.0,0.0,0.0,0.0,0.0,0.0,0.0,0.0,0.0,0.0,0.0,0.0,0.0,0.0,0.0,0.0,0.0,0.0,0.0,0.0,0.0,0.0,0.0,0.0,0.0,0.0,0.0,0.0,0.0,0.0,0.0,0.0,0.0,0.0,0.0,0.0,0.0,0.0,0.0,0.0,0.0,0.0,0.0,0.0,0.0,0.0,0.0,0.0,0.0,0.0,0.0,0.0,0.0,0.0,0.0,0.0,0.0,0.0,0.0,0.0,0.0,0.0,0.0,0.0,0.0,0.0,0.0,0.0,0.0,0.0,0.0,0.0,0.0,0.0,0.0,0.0,0.0,0.0,0.0,0.0,0.0,0.0,-2.292,-2.3655,0.0,0.0,0.0,0.0,0.0,0.0,0.0,0.0,0.0,0.0,0.0,0.0,0.0,-2.8041,-2.9314,-2.9799,-3.0124,-3.0283,-3.0799,-3.0306,-2.9058,-3.0275,-3.126,-3.2036,-3.2335,0.0,-2.9396,-2.8007,0.0,0.0,0.0,0.0,0.0,0.0,0.0,0.0,0.0,0.0,0.0,0.0,0.0,0.0,0.0,0.0,0.0,0.0,0.0,0.0,0.0,0.0,0.0,0.0,0.0,0.0,0.0,0.0,0.0,0.0,0.0,0.0,0.0,0.0,0.0,0.0,0.0,0.0,0.0,0.0,0.0,0.0,0.0,0.0,0.0,0.0,0.0,0.0,0.0,0.0,0.0,0.0,0.0,0.0,0.0,0.0,0.0,0.0,0.0,0.0,0.0,0.0,0.0,0.0,0.0,0.0,0.0,0.0,0.0,0.0,0.0,0.0,0.0,0.0,0.0,0.0,0.0,0.0,0.0,0.0,0.0,0.0,0.0,0.0,0.0,-2.3784,-2.4667,-2.4476,-2.5566,-2.6024,0.0,0.0,0.0,0.0,0.0,0.0,0.0,0.0,0.0,-2.8351,-2.8575,-2.9108,-2.9987,-3.0567,-3.1274,-3.2139,-3.2703,-3.2656,-3.2084,-3.3181,-3.4088,-3.4878,-3.5669,-3.564,-3.4895,-3.2104,-3.07,-3.019,0.0,0.0,0.0,0.0,-2.7346,-2.7775,0.0,0.0,0.0,0.0,0.0,0.0,0.0,0.0,0.0,0.0,0.0,0.0,0.0,0.0,0.0,0.0,0.0,0.0,0.0,0.0,0.0,0.0,0.0,0.0,0.0,0.0,0.0,0.0,0.0,0.0,0.0,0.0,0.0,0.0,0.0,0.0,0.0,0.0,0.0,0.0,0.0,0.0,0.0,0.0,0.0,0.0,0.0,0.0,0.0,0.0,0.0,0.0,0.0,0.0,0.0,0.0,0.0,0.0,0.0,0.0,0.0,0.0,0.0,0.0,0.0,0.0,0.0,0.0,0.0,0.0,0.0,0.0,0.0,0.0,0.0,0.0,0.0,-2.4805,-2.5808,-2.5007,-2.7067,-2.7834,0.0,0.0,0.0,0.0,0.0,0.0,-2.9271,-2.969,-3.0319,-3.1238,-3.099,-3.1099,-3.1663,-3.2213,-3.3095,-3.4363,-3.4736,-3.5161,-3.559,-3.6183,-3.6901,-3.7684,-3.8296,-3.8811,-3.8988,-3.5436,-3.352,-3.2676,-3.0733,-3.0167,-3.0279,-2.8928,-2.8999,-2.9669,0.0,0.0,0.0,0.0,0.0,0.0,0.0,0.0,0.0,0.0,0.0,0.0,0.0,0.0,0.0,0.0,0.0,0.0,0.0,0.0,0.0,0.0,0.0,0.0,0.0,0.0,0.0,0.0,0.0,0.0,0.0,0.0,0.0,0.0,0.0,0.0,0.0,0.0,0.0,0.0,0.0,0.0,0.0,0.0,0.0,0.0,0.0,0.0,0.0,0.0,0.0,0.0,0.0,0.0,0.0,0.0,0.0,0.0,0.0,0.0,0.0,0.0,0.0,0.0,0.0,0.0,0.0,0.0,0.0,0.0,0.0,0.0,0.0,0.0,0.0,0.0,0.0,0.0,0.0,-2.4958,-2.7303,0.0,0.0,0.0,0.0,-2.9116,-2.9835,-3.0443,-3.0884,-3.2151,-3.2947,-3.3069,-3.434,-3.5369,-3.6172,-3.6217,-3.6543,-3.7184,-3.6652,-3.7112,-3.8505,-3.8523,-3.9053,-3.9957,-3.9985,-4.0011,-3.9808,-3.6755,-3.505,-3.4248,-3.2731,-3.169,-3.1081,-3.1171,-3.1204,-3.0999,0.0,0.0,0.0,0.0,0.0,0.0,0.0,0.0,0.0,0.0,0.0,0.0,0.0,0.0,0.0,0.0,0.0,0.0,0.0,0.0,0.0,0.0,0.0,0.0,0.0,0.0,0.0,0.0,0.0,0.0,0.0,0.0,0.0,0.0,0.0,0.0,0.0,0.0,0.0,0.0,0.0,0.0,0.0,0.0,0.0,0.0,0.0,0.0,0.0,0.0,0.0,0.0,0.0,0.0,0.0,0.0,0.0,0.0,0.0,0.0,0.0,0.0,0.0,0.0,0.0,0.0,0.0,0.0,0.0,0.0,0.0,0.0,0.0,0.0,0.0,0.0,0.0,0.0,0.0,-2.9309,-3.2043,0.0,-3.0594,-3.0463,-3.0566,-3.0668,-3.1265,-3.2415,-3.4237,-3.5324,-3.6275,-3.7146,-3.7273,-3.7447,-3.7704,-3.7285,-3.7404,-3.8033,-3.7953,-3.8415,-3.9361,-4.0001,-4.0489,-4.0821,-4.131,-4.1247,-4.0688,-3.914,-3.7765,-3.645,-3.4565,-3.3608,-3.3208,-3.2412,-3.2625,-3.3111,0.0,0.0,0.0,0.0,0.0,0.0,0.0,0.0,0.0,0.0,0.0,0.0,0.0,0.0,0.0,0.0,0.0,0.0,0.0,0.0,0.0,0.0,0.0,0.0,0.0,0.0,0.0,0.0,0.0,0.0,0.0,0.0,0.0,0.0,0.0,0.0,0.0,0.0,0.0,0.0,0.0,0.0,-2.5405,0.0,0.0,0.0,0.0,0.0,0.0,0.0,0.0,0.0,0.0,0.0,0.0,0.0,0.0,0.0,0.0,0.0,0.0,0.0,0.0,0.0,0.0,0.0,0.0,0.0,0.0,0.0,0.0,0.0,0.0,0.0,0.0,0.0,0.0,-2.9578,-3.1643,-3.2223,-3.4871,-3.5725,-3.3302,-3.3119,-3.3137,-3.3092,-3.3611,-3.482,-3.6823,-3.8189,-3.9308,-4.0167,-3.9793,-3.9551,-3.9551,-3.8342,-3.8078,-3.8721,-3.8944,-3.9539,-4.0507,-4.1474,-4.1914,-4.1966,-4.2469,-4.1967,-4.0785,-4.0293,-3.9028,-3.7242,-3.5868,-3.5125,-3.4714,-3.3848,-3.4068,-3.4609,0.0,0.0,0.0,0.0,0.0,0.0,0.0,0.0,0.0,0.0,0.0,0.0,0.0,0.0,0.0,0.0,0.0,0.0,0.0,0.0,0.0,0.0,0.0,0.0,0.0,0.0,0.0,0.0,0.0,0.0,0.0,0.0,0.0,0.0,0.0,0.0,0.0,0.0,0.0,0.0,0.0,0.0,-2.745,0.0,0.0,0.0,0.0,0.0,0.0,0.0,0.0,0.0,0.0,0.0,0.0,0.0,0.0,0.0,0.0,0.0,0.0,0.0,0.0,0.0,0.0,0.0,0.0,0.0,0.0,0.0,0.0,0.0,0.0,0.0,0.0,0.0,-2.8991,-3.1062,-3.2826,-3.3291,-3.5479,-3.6413,-3.5062,-3.5661,-3.6211,-3.646,-3.7083,-3.7734,-3.8442,-4.0616,-4.1864,-4.1914,-4.1864,-4.1814,-4.1814,-3.9581,-3.8751,-3.9445,-3.9683,-4.057,-4.2062,-4.2939,-4.3386,-4.3426,-4.3426,-4.2194,-4.015,-4.0138,-3.874,-3.6631,-3.6615,-3.6134,-3.5504,-3.5504,-3.5472,-3.5326,0.0,0.0,0.0,0.0,0.0,0.0,0.0,0.0,0.0,0.0,0.0,0.0,0.0,0.0,0.0,0.0,0.0,0.0,0.0,0.0,0.0,0.0,0.0,0.0,0.0,0.0,0.0,0.0,0.0,0.0,0.0,0.0,0.0,0.0,0.0,0.0,0.0,0.0,0.0,0.0,0.0,0.0,-2.8783,0.0,0.0,0.0,0.0,0.0,0.0,0.0,0.0,0.0,0.0,0.0,0.0,0.0,0.0,0.0,0.0,0.0,0.0,0.0,0.0,0.0,0.0,0.0,0.0,0.0,0.0,0.0,0.0,0.0,0.0,0.0,-3.181,-3.2887,-3.223,-3.4159,-3.5955,-3.6858,-3.8928,-3.9744,-3.8403,-3.848,-3.8587,-3.8571,-3.8302,-3.8917,-4.0723,-4.1886,-4.3028,-4.4145,-4.3095,-4.2528,-4.2528,-4.0258,-3.9541,-4.0343,-4.1058,-4.1901,-4.297,-4.3844,-4.4237,-4.4265,-4.4265,-4.3255,-4.158,-4.0989,-3.9402,-3.7266,-3.6801,-3.6134,-3.5504,-3.5504,-3.5019,-3.4461,0.0,0.0,0.0,0.0,0.0,0.0,0.0,0.0,0.0,0.0,0.0,0.0,0.0,0.0,0.0,0.0,0.0,0.0,0.0,0.0,0.0,0.0,0.0,0.0,0.0,0.0,0.0,0.0,0.0,0.0,0.0,0.0,0.0,0.0,0.0,0.0,0.0,0.0,0.0,0.0,0.0,0.0,-3.1374,-2.8667,-2.8008,-2.8312,-2.7141,-2.6826,-2.6866,-2.5809,0.0,0.0,0.0,0.0,0.0,0.0,0.0,0.0,0.0,0.0,0.0,0.0,0.0,0.0,0.0,0.0,0.0,0.0,0.0,0.0,0.0,0.0,0.0,0.0,-3.4092,-3.5178,-3.5519,-3.6609,-3.7876,-3.9182,-4.0421,-4.094,-4.0419,-4.0355,-4.0324,-4.0239,-4.0226,-4.0659,-4.1658,-4.3419,-4.4675,-4.5241,-4.4029,-4.3375,-4.3375,-4.1005,-4.0288,-4.1193,-4.2338,-4.3185,-4.3781,-4.4649,-4.4874,-4.457,-4.4224,-4.316,-4.1634,-4.0785,-3.9277,-3.743,0.0,0.0,0.0,0.0,-3.5933,-3.5473,0.0,0.0,0.0,0.0,0.0,0.0,0.0,0.0,0.0,0.0,0.0,0.0,0.0,0.0,0.0,0.0,0.0,0.0,0.0,0.0,0.0,0.0,0.0,0.0,0.0,0.0,0.0,0.0,0.0,0.0,0.0,0.0,0.0,0.0,0.0,0.0,0.0,0.0,0.0,0.0,0.0,0.0,-3.4234,-3.1689,-3.1465,-3.2243,-3.0462,-2.9157,-2.8139,-2.7305,0.0,0.0,0.0,0.0,0.0,0.0,0.0,0.0,0.0,0.0,0.0,0.0,0.0,0.0,0.0,0.0,0.0,0.0,0.0,0.0,0.0,0.0,0.0,0.0,-3.6166,-3.685,-3.8675,-3.8718,-3.9047,-4.0318,-4.067,-4.098,-4.134,-4.1482,-4.1527,-4.1527,-4.2306,-4.2543,-4.1988,-4.4899,0.0,0.0,0.0,-4.4245,-4.4361,-4.1837,-4.1066,-4.2128,-4.3556,-4.4399,-4.4707,-4.5467,-4.5387,-4.453,-4.3754,-4.2492,-4.0912,-4.0218,-3.9027,-3.7569,-3.6866,-3.6596,-3.6656,-3.721,-3.7404,-3.733,0.0,0.0,0.0,0.0,0.0,0.0,0.0,0.0,0.0,0.0,0.0,0.0,0.0,0.0,0.0,0.0,0.0,0.0,0.0,0.0,0.0,0.0,0.0,0.0,0.0,0.0,0.0,0.0,0.0,0.0,0.0,0.0,0.0,0.0,0.0,0.0,0.0,0.0,0.0,0.0,0.0,0.0,-3.4339,-3.2721,-3.2258,-3.2392,-3.1451,-3.1674,-3.2078,-3.0342,-3.0208,-3.0298,-2.7525,0.0,0.0,0.0,0.0,0.0,0.0,0.0,0.0,0.0,0.0,0.0,0.0,0.0,0.0,0.0,0.0,0.0,0.0,0.0,0.0,-3.6571,-3.7931,-3.9316,-4.0823,-4.0876,-4.0527,-3.9871,-4.1136,-4.1896,-4.1437,-4.1901,-4.2216,-4.2216,-4.2567,-4.3048,-4.3613,-4.5538,-4.6869,-4.7423,-4.5342,-4.456,-4.524,-4.2784,-4.2318,-4.3907,-4.48,0.0,-4.6342,-4.6507,-4.5803,-4.4423,-4.4254,-4.2894,-4.079,-4.1177,-4.0414,-3.888,-3.7704,-3.724,-3.724,-3.736,-3.7404,-3.7389,0.0,0.0,0.0,0.0,0.0,0.0,0.0,0.0,0.0,0.0,0.0,0.0,0.0,0.0,0.0,0.0,0.0,0.0,0.0,0.0,0.0,0.0,0.0,0.0,0.0,0.0,0.0,0.0,0.0,0.0,0.0,0.0,0.0,0.0,0.0,0.0,0.0,0.0,0.0,0.0,0.0,0.0,-3.4188,-3.3703,-3.3207,-3.2761,-3.2556,-3.2721,-3.2796,-3.1436,-3.1212,-3.1106,-2.8801,-2.7634,-2.6658,0.0,0.0,0.0,0.0,0.0,0.0,0.0,0.0,0.0,0.0,0.0,0.0,0.0,0.0,-3.4548,0.0,0.0,-3.7195,-3.9012,-3.9951,-4.0715,-4.1404,-4.1979,-4.2016,-4.1125,-4.1836,-4.2396,-4.2357,-4.2656,-4.307,-4.3541,-4.4164,-4.4747,-4.5259,-4.6877,-4.7619,-4.7206,-4.5586,-4.491,-4.5358,-4.3652,-4.372,-4.5511,-4.622,-4.683,-4.7314,-4.6871,-4.5989,-4.4856,-4.3928,-4.2837,-4.1689,-4.1597,-4.1109,-4.0337,-3.9649,-3.8781,-3.7943,-3.8287,-3.8407,-3.8362,0.0,0.0,0.0,0.0,0.0,0.0,0.0,0.0,0.0,0.0,0.0,0.0,0.0,0.0,0.0,0.0,0.0,0.0,0.0,0.0,0.0,0.0,0.0,0.0,0.0,0.0,0.0,0.0,0.0,0.0,0.0,0.0,0.0,0.0,0.0,0.0,0.0,0.0,0.0,0.0,0.0,0.0,-3.385,-3.4184,-3.3709,-3.2912,-3.3072,-3.2617,-3.1869,-3.1301,-3.0838,-3.0342,-2.946,-2.9086,-2.8517,-2.6234,-2.5974,0.0,0.0,0.0,0.0,0.0,0.0,0.0,0.0,0.0,-3.2801,-3.4159,-3.5297,-3.6567,-3.8344,-3.8404,-3.8987,-4.1372,-4.1661,-4.1662,-4.1743,-4.2671,-4.309,-4.247,-4.2515,-4.2701,-4.3105,-4.3215,-4.3732,-4.4737,-4.567,-4.635,-4.67,-4.7988,-4.8182,-4.704,-4.5826,-4.5373,-4.5728,-4.4821,-4.5202,-4.6872,-4.7341,-4.7667,-4.7813,-4.6878,-4.5963,-4.5,-4.3224,-4.2535,-4.2585,-4.1889,-4.1564,-4.1564,-4.1564,-4.0502,-3.902,-3.9454,-3.9493,-3.9298,0.0,0.0,0.0,0.0,0.0,0.0,0.0,0.0,0.0,0.0,0.0,0.0,0.0,0.0,0.0,0.0,0.0,0.0,0.0,0.0,0.0,0.0,0.0,0.0,0.0,0.0,0.0,0.0,0.0,0.0,0.0,0.0,0.0,0.0,0.0,0.0,0.0,0.0,0.0,0.0,0.0,0.0,-3.3229,-3.35,-3.3031,-3.2162,-3.1842,-3.0956,-2.9894,-2.9846,-3.0118,-3.0582,-3.1032,-3.0763,-3.0118,-2.9307,0.0,-2.5761,-2.6026,-2.7019,-2.8651,-3.1323,-3.1007,-3.1722,0.0,0.0,-3.7454,-4.0083,-4.1676,-4.2317,-4.1224,-4.1522,-4.1985,-4.2289,-4.2308,-4.25,-4.2991,-4.32,-4.309,-4.247,-4.2865,-4.303,-4.256,-4.3,-4.3732,-4.4737,-4.567,-4.656,-4.7441,-4.7638,-4.8046,-4.8711,-4.6437,-4.5961,-4.7581,-4.6728,-4.6792,-4.775,-4.7634,-4.7622,-4.7605,-4.6668,-4.5396,-4.3878,-4.2256,-4.1889,-4.243,-4.2329,-4.2291,-4.2291,-4.2291,-4.1796,-4.098,-4.0472,-3.9918,-3.9373,0.0,0.0,0.0,0.0,0.0,0.0,0.0,0.0,0.0,0.0,0.0,0.0,0.0,0.0,0.0,0.0,0.0,0.0,0.0,0.0,0.0,0.0,0.0,0.0,0.0,0.0,0.0,0.0,0.0,0.0,0.0,0.0,0.0,0.0,0.0,0.0,0.0,0.0,0.0,0.0,0.0,0.0,-3.3013,-3.2108,-3.0676,-2.9245,-2.9651,-2.8966,0.0,0.0,-2.7439,-2.824,-2.8187,-2.8458,-2.8603,-2.7577,-2.731,0.0,-2.8498,-2.9203,-3.0186,0.0,-3.3632,-3.5129,-3.8129,-3.9015,-3.9629,-4.1167,-4.2907,-4.3929,-4.3198,-4.3356,-4.3527,0.0,-4.318,-4.3015,-4.3245,-4.3015,-4.2521,-4.1901,-4.1698,-4.1669,-4.1811,-4.2387,-4.3158,-4.4155,-4.4956,-4.5798,-4.6747,-4.6781,-4.7147,-4.7996,-4.6562,-4.6606,-4.8361,-4.7571,-4.734,-4.7711,-4.7621,-4.7306,-4.6747,-4.5798,-4.4685,-4.3472,-4.2805,-4.2671,-4.2925,-4.2925,-4.2925,-4.2925,-4.2925,-4.2521,-4.1856,-4.0786,-4.0232,-3.9933,0.0,0.0,0.0,0.0,0.0,0.0,0.0,0.0,0.0,0.0,0.0,0.0,0.0,0.0,0.0,0.0,0.0,0.0,0.0,0.0,0.0,0.0,0.0,0.0,0.0,0.0,0.0,0.0,0.0,0.0,0.0,0.0,0.0,0.0,0.0,0.0,0.0,0.0,0.0,0.0,0.0,0.0,-3.1702,-3.0291,-2.8177,-2.606,-2.6931,-2.6317,0.0,0.0,-2.4359,-2.5134,-2.5438,-2.627,-2.697,-2.6338,-2.717,-2.8474,-2.9352,-3.0345,0.0,-3.3767,-3.6166,-3.8214,-3.9093,-4.0464,-4.1717,-4.2346,-4.3831,-4.4901,-4.4648,-4.4436,-4.4317,-4.4317,-4.3723,-4.323,-4.309,-4.2506,-4.1826,-4.0935,-4.0247,-4.0038,-4.0554,-4.1527,-4.2576,-4.3706,-4.4409,-4.5227,-4.6138,-4.61,-4.6414,-4.7245,-4.6749,-4.7052,-4.825,-4.7818,-4.7489,-4.7205,-4.6968,-4.647,-4.5762,-4.4818,-4.3819,-4.286,-4.3155,-4.3115,-4.286,-4.3155,-4.329,-4.329,-4.329,-4.3045,-4.253,-4.1354,-4.0711,-4.0337,0.0,0.0,0.0,0.0,0.0,0.0,0.0,0.0,0.0,0.0,0.0,0.0,0.0,0.0,0.0,0.0,0.0,0.0,0.0,0.0,0.0,0.0,0.0,0.0,0.0,0.0,0.0,0.0,0.0,0.0,0.0,0.0,0.0,0.0,0.0,0.0,0.0,0.0,0.0,0.0,0.0,0.0,-2.8667,-2.8081,-2.5856,-2.3105,-2.3722,0.0,0.0,0.0,-2.1237,-2.1708,-2.4142,-2.5343,0.0,-2.7215,-2.754,-2.7519,-2.7504,0.0,-3.3069,-3.6426,-3.8262,-4.0132,-4.3516,-4.4239,-4.4357,-4.5046,-4.5765,-4.6037,-4.5379,-4.4751,-4.4317,-4.4317,-4.3723,-4.312,-4.2515,-4.1856,-4.0935,-3.9634,-3.8871,-3.8467,-3.8482,-4.0262,-4.2092,-4.366,-4.4409,-4.5227,-4.6138,-4.588,-4.616,-4.7153,-4.7173,-4.7173,-4.7241,-4.7463,-4.7122,-4.6208,-4.5322,-4.4887,-4.4812,-4.381,-4.2725,-4.1726,-4.2805,-4.2684,-4.1726,-4.286,-4.329,-4.329,-4.329,-4.329,-4.3185,-4.259,-4.1527,-4.0397,0.0,0.0,0.0,0.0,0.0,0.0,0.0,0.0,0.0,0.0,0.0,0.0,0.0,0.0,0.0,0.0,0.0,0.0,0.0,0.0,0.0,0.0,0.0,0.0,0.0,0.0,0.0,0.0,0.0,0.0,0.0,0.0,0.0,0.0,0.0,0.0,0.0,0.0,0.0,0.0,0.0,0.0,-2.7102,-2.4867,-2.3059,-2.156,0.0,0.0,0.0,0.0,-1.8838,-1.9324,-2.0175,0.0,0.0,-2.5526,-2.6896,-2.8039,-3.014,0.0,-3.589,-3.9181,-4.0975,-4.2469,-4.4539,-4.5346,-4.5574,-4.5349,-4.514,-4.4661,-4.3554,-4.2447,-4.1713,-4.1713,-4.1908,-4.1968,-4.1782,-4.1931,-4.1257,-3.899,-3.8931,-3.8721,-3.7823,-3.9155,-4.0664,-4.2107,-4.2819,-4.3715,-4.4879,-4.4841,-4.5636,-4.7559,-4.6698,-4.677,-4.7912,-4.7084,-4.6189,-4.5248,-4.4282,-4.3412,-4.2676,-4.2342,-4.156,-4.0532,-4.1684,-4.1932,-4.1684,-4.282,-4.329,-4.329,-4.329,-4.329,-4.3275,-4.309,-4.2462,-4.1677,0.0,0.0,0.0,0.0,0.0,0.0,0.0,0.0,0.0,0.0,0.0,0.0,0.0,0.0,0.0,0.0,0.0,0.0,0.0,0.0,0.0,0.0,0.0,0.0,0.0,0.0,0.0,0.0,0.0,0.0,0.0,0.0,0.0,0.0,0.0,0.0,0.0,0.0,0.0,0.0,0.0,0.0,-2.381,-2.1616,-2.0361,0.0,0.0,0.0,0.0,0.0,0.0,-1.7989,-1.8385,-2.0409,-2.3075,-2.531,-2.7395,-2.9657,-3.2707,-3.548,-3.8317,-4.1546,-4.3389,-4.4635,-4.5768,-4.6172,-4.5866,-4.4383,-4.3256,-4.2011,-4.0417,-3.8891,-3.8198,-3.9179,-3.9499,-3.9999,-4.0891,-4.1018,-4.0524,-3.926,-3.908,-3.8901,-3.8512,-3.926,-4.0217,-4.1332,-4.2455,-4.3434,-4.4272,-4.4766,-4.5874,-4.7747,-4.6911,-4.685,-4.7801,-4.6624,-4.543,-4.4259,-4.319,-4.233,-4.1587,-4.1169,-4.0575,-3.9942,-4.1127,-4.1587,-4.1684,-4.282,-4.329,-4.329,-4.329,-4.329,-4.329,-4.329,-4.306,-4.2611,0.0,0.0,0.0,0.0,0.0,0.0,0.0,0.0,0.0,0.0,0.0,0.0,0.0,0.0,0.0,0.0,0.0,0.0,0.0,0.0,0.0,0.0,0.0,0.0,0.0,0.0,0.0,0.0,0.0,0.0,0.0,0.0,0.0,0.0,0.0,0.0,0.0,0.0,0.0,0.0,0.0,0.0,-1.9046,-1.8451,0.0,0.0,0.0,0.0,0.0,0.0,0.0,0.0,-1.9041,-2.2335,-2.5945,-2.6669,-2.922,-3.2333,-3.5026,-3.7689,-4.0472,-4.3629,-4.5394,-4.6488,-4.7115,-4.6683,-4.5283,-4.2374,-4.0259,-3.8283,0.0,0.0,-3.4076,-3.6711,-3.6813,-3.7475,-4.0053,-3.9379,-3.9095,0.0,0.0,0.0,0.0,0.0,-4.0973,-4.1588,-4.3264,-4.4342,-4.4554,-4.566,-4.6796,-4.7824,-4.7713,-4.7373,-4.6873,-4.6052,-4.4847,-4.329,-4.2152,-4.1587,-4.1462,-4.0404,-3.9855,-3.9855,-4.1085,-4.1587,-4.1684,-4.282,-4.329,-4.329,-4.329,-4.329,-4.329,-4.329,-4.329,-4.32,0.0,0.0,0.0,0.0,0.0,0.0,0.0,0.0,0.0,0.0,0.0,0.0,0.0,0.0,0.0,0.0,0.0,0.0,0.0,0.0,0.0,0.0,0.0,0.0,0.0,0.0,0.0,0.0,0.0,0.0,0.0,0.0,0.0,0.0,0.0,0.0,0.0,0.0,0.0,0.0,0.0,0.0,-1.6572,0.0,0.0,0.0,0.0,0.0,0.0,0.0,0.0,0.0,0.0,-2.5078,-2.7615,-3.0235,-3.3006,-3.5804,-3.8437,-4.1429,-4.4122,-4.5484,-4.6441,-4.698,-4.6651,-4.5113,-4.305,-4.0479,-3.7149,-3.3966,0.0,0.0,0.0,-3.3433,-3.5921,0.0,-4.0158,-4.1354,0.0,-4.1205,0.0,-4.2013,-4.1916,-4.3457,-4.4594,-4.4764,-4.4013,-4.4871,-4.7946,-4.6966,-4.6993,-4.8521,-4.7326,-4.6565,-4.6441,-4.5278,-4.4198,-4.329,-4.2152,-4.1169,-4.0318,-4.0029,-3.9404,-3.868,-4.0718,-4.1587,-4.1684,-4.282,-4.329,-4.329,-4.329,-4.329,-4.329,-4.329,-4.329,-4.3275,0.0,0.0,0.0,0.0,0.0,0.0,0.0,0.0,0.0,0.0,0.0,0.0,0.0,0.0,0.0,0.0,0.0,0.0,0.0,0.0,0.0,0.0,0.0,0.0,0.0,0.0,0.0,0.0,0.0,0.0,0.0,0.0,0.0,0.0,0.0,0.0,0.0,0.0,0.0,0.0,0.0,0.0,0.0,0.0,0.0,0.0,0.0,0.0,0.0,0.0,0.0,-2.3668,-2.5806,-2.8176,-3.0719,-3.3467,0.0,-3.914,-4.1489,-4.3898,-4.5903,-4.6591,-4.6815,-4.6386,-4.4543,-4.2647,-4.017,-3.6054,-3.2758,0.0,-2.7632,-2.7168,-2.8028,0.0,0.0,0.0,-3.9555,-4.116,-4.2207,0.0,-4.306,0.0,-4.4278,-4.5573,-4.6846,-4.8015,-4.6783,-4.6773,-4.8613,-4.787,-4.7828,-4.8769,-4.747,-4.6621,-4.6279,-4.4729,-4.3608,-4.2975,-4.1255,-3.9944,-3.9094,-3.9094,-3.905,-3.9006,-4.0817,-4.1891,-4.2412,-4.3036,-4.329,-4.329,-4.329,-4.329,-4.329,-4.329,-4.329,-4.329,0.0,0.0,0.0,0.0,0.0,0.0,0.0,0.0,0.0,0.0,0.0,0.0,0.0,0.0,0.0,0.0,0.0,0.0,0.0,0.0,0.0,0.0,0.0,0.0,0.0,0.0,0.0,0.0,0.0,0.0,0.0,0.0,0.0,0.0,0.0,0.0,0.0,0.0,0.0,0.0,0.0,0.0,0.0,0.0,0.0,0.0,0.0,0.0,0.0,0.0,-2.367,-2.51,-2.8256,-3.1442,-3.4427,-3.6522,-3.9275,-4.2073,-4.4047,-4.5499,-4.6591,-4.716,-4.658,-4.503,-4.1902,-3.9678,-3.6662,-3.0834,0.0,-2.6134,-2.4195,-2.3627,-2.4769,-2.8799,0.0,-3.4078,-3.8847,-4.0113,-4.1504,-4.4122,-4.3828,-4.4412,-4.6895,-4.7193,-4.8304,-5.0848,-5.0233,-4.9339,-4.8404,-4.8621,-4.8743,-4.8594,-4.7764,-4.6894,-4.6051,-4.4399,-4.3142,-4.231,-3.9992,-3.8721,-3.8334,-3.8334,-3.9006,-4.0189,-4.1337,-4.2371,-4.329,-4.329,-4.329,-4.329,-4.329,-4.329,-4.329,-4.329,-4.329,-4.329,0.0,0.0,0.0,0.0,0.0,0.0,0.0,0.0,0.0,0.0,0.0,0.0,0.0,0.0,0.0,0.0,0.0,0.0,0.0,0.0,0.0,0.0,0.0,0.0,0.0,0.0,0.0,0.0,0.0,0.0,0.0,0.0,0.0,0.0,0.0,0.0,0.0,0.0,0.0,0.0,0.0,0.0,0.0,0.0,0.0,0.0,0.0,0.0,0.0,0.0,-2.5324,-2.8913,-3.1753,-3.4511,-3.7225,-3.9783,-4.1698,-4.3394,-4.5397,-4.6546,-4.716,-4.7279,-4.5367,-4.2967,-4.0923,-3.6589,0.0,0.0,-2.5363,-2.2789,-2.1553,-2.2847,-2.5152,-2.8269,-3.1543,-3.5209,-3.9629,-4.0786,-4.2192,0.0,-4.4541,-4.5289,-4.8177,-4.8756,-4.9721,-5.1586,-5.1563,-5.1381,-5.1198,-4.9679,-4.8403,-4.7566,-4.7381,-4.6474,-4.4747,-4.4396,-4.3147,-4.1021,-3.9597,-3.912,-3.9579,-3.9579,-4.0232,-4.1378,-4.2508,-4.3115,-4.329,-4.329,-4.329,-4.329,-4.329,-4.329,-4.329,-4.329,-4.329,-4.329,0.0,0.0,0.0,0.0,0.0,0.0,0.0,0.0,0.0,0.0,-0.8397,-0.8303,0.0,0.0,0.0,0.0,0.0,0.0,0.0,0.0,0.0,0.0,0.0,0.0,0.0,0.0,0.0,0.0,0.0,0.0,0.0,0.0,0.0,0.0,0.0,0.0,0.0,0.0,0.0,0.0,0.0,0.0,0.0,0.0,0.0,0.0,0.0,0.0,0.0,0.0,-2.3933,-2.7693,-3.1982,-3.5207,-3.7928,-4.0591,-4.2312,-4.3738,-4.5726,-4.68,-4.7219,-4.6875,-4.456,-4.1459,-3.7935,0.0,0.0,0.0,-2.2805,-2.1204,-2.039,-2.1921,0.0,-2.6692,-2.9307,-3.2733,-3.7689,-3.8916,0.0,-4.3883,-4.4302,-4.5364,-4.8022,-4.8943,-5.0101,-5.1783,-5.1921,-5.1651,-5.1155,-4.8823,-4.7277,-4.6785,-4.68,-4.6195,-4.4942,-4.4581,-4.3343,-4.1194,-4.0291,-3.9874,-3.9899,-4.049,-4.1085,-4.167,-4.2805,-4.329,-4.329,-4.329,-4.329,-4.329,-4.329,-4.329,-4.329,-4.329,-4.29,-4.2412,0.0,0.0,0.0,0.0,0.0,0.0,0.0,-0.6612,-0.805,-0.8755,-0.9272,-0.8985,-0.735,-0.6844,0.0,0.0,0.0,0.0,0.0,0.0,0.0,0.0,0.0,0.0,0.0,0.0,0.0,-0.8759,0.0,0.0,0.0,0.0,0.0,0.0,0.0,0.0,0.0,0.0,0.0,0.0,0.0,0.0,0.0,0.0,0.0,0.0,0.0,0.0,0.0,0.0,-2.1668,-2.4816,-2.9785,-3.3846,-3.7262,-3.9792,-4.1758,-4.3554,-4.5559,-4.6591,-4.6879,-4.6128,-4.3518,-3.9888,-3.4952,-3.0854,0.0,0.0,-2.0981,-2.0391,-2.0092,0.0,-2.3177,0.0,-2.7309,-3.0338,-3.5365,-3.6956,-3.899,0.0,-4.3703,0.0,-4.7382,-4.8252,-4.9426,-5.1322,-5.1375,-5.089,-4.9903,-4.7604,-4.6279,-4.6279,-4.6051,-4.5683,-4.5187,-4.4383,-4.3158,-4.1487,-4.0945,-4.054,-4.0275,-4.1211,-4.1726,-4.2029,-4.29,-4.329,-4.329,-4.329,-4.329,-4.329,-4.329,-4.329,-4.329,-4.329,-4.2725,-4.1932,0.0,0.0,0.0,0.0,0.0,0.0,0.0,-0.6665,-0.8086,-0.8885,-0.9355,-0.9121,-0.7867,-0.7315,0.0,0.0,0.0,0.0,0.0,0.0,0.0,0.0,0.0,0.0,0.0,0.0,0.0,-0.8256,-0.901,0.0,0.0,0.0,0.0,0.0,0.0,-1.2914,0.0,0.0,0.0,0.0,0.0,0.0,0.0,0.0,0.0,0.0,0.0,0.0,0.0,0.0,0.0,-2.2047,-2.4526,-2.967,-3.515,-3.7173,0.0,0.0,-4.4855,-4.5888,-4.6126,-4.504,-4.1753,-3.7724,-3.3585,0.0,0.0,-2.2011,-2.0627,-2.0041,-2.061,-2.1774,-2.3334,0.0,0.0,-3.0705,0.0,-3.6761,-3.9334,-4.2156,0.0,0.0,-4.6741,-4.6524,-4.7284,-4.9809,-4.9698,-4.9095,-4.8095,-4.6906,-4.6279,-4.6279,-4.5157,-4.454,-4.4494,-4.328,-4.2044,-4.0794,-4.0738,-4.0963,-4.1462,-4.1545,-4.2152,-4.3155,-4.325,-4.329,-4.329,-4.329,-4.329,-4.329,-4.329,-4.329,-4.329,-4.329,-4.325,-4.2981,0.0,0.0,0.0,0.0,0.0,0.0,0.0,-0.644,-0.7774,-0.8858,-0.8932,-0.8601,-0.7876,-0.7162,-0.6406,0.0,0.0,0.0,0.0,0.0,0.0,0.0,0.0,0.0,0.0,0.0,-0.6916,-0.7954,-0.866,0.0,0.0,0.0,0.0,0.0,0.0,-1.2983,-1.3429,0.0,0.0,0.0,0.0,0.0,0.0,0.0,0.0,0.0,0.0,0.0,0.0,0.0,0.0,0.0,-2.1251,-2.4626,0.0,0.0,-3.7105,-3.9831,-4.1909,-4.3769,-4.469,-4.2816,-3.9956,-3.6629,-3.2791,0.0,-2.3986,-2.1908,-2.0654,-2.0093,-2.068,-2.1849,-2.3098,0.0,0.0,0.0,-3.1029,0.0,-3.522,-3.9505,-4.092,0.0,0.0,-4.5664,-4.651,-4.794,-4.8259,-4.732,-4.481,-4.468,-4.4497,-4.4087,-4.3574,-4.3124,-4.2795,-4.3313,-4.2955,-4.1721,-4.2092,-4.24,-4.2629,-4.2629,-4.286,-4.329,-4.329,-4.329,-4.329,-4.329,-4.329,-4.329,-4.329,-4.329,-4.321,-4.2548,-4.1864,-4.1183,0.0,0.0,0.0,0.0,0.0,0.0,-0.502,-0.6279,-0.7523,-0.8664,-0.8515,-0.8109,-0.7654,-0.6874,-0.608,-0.5361,0.0,0.0,0.0,0.0,0.0,0.0,0.0,0.0,0.0,0.0,-0.6662,-0.7797,-0.863,-0.9703,0.0,0.0,-1.2182,-1.2644,0.0,0.0,0.0,0.0,0.0,0.0,0.0,0.0,0.0,0.0,0.0,0.0,0.0,0.0,0.0,0.0,0.0,0.0,0.0,0.0,0.0,0.0,-3.3384,-3.6301,-3.8356,-4.0726,-4.212,-4.0087,-3.7923,-3.5223,0.0,0.0,-2.3546,-2.1663,-2.0591,-2.0229,-2.0946,-2.1964,-2.2907,0.0,0.0,-2.5315,-2.8558,-3.0208,-3.2632,-3.6746,0.0,-4.0681,-4.294,-4.4634,-4.5672,-4.5802,-4.6854,-4.5956,-4.249,-4.2782,-4.2751,-4.211,-4.2038,-4.1991,-4.1957,-4.3165,-4.3375,-4.2684,-4.3123,-4.329,-4.329,-4.329,-4.329,-4.329,-4.329,-4.329,-4.329,-4.329,-4.329,-4.329,-4.329,-4.329,-4.3155,-4.2029,-4.1085,-4.0361,0.0,0.0,0.0,0.0,0.0,0.0,0.0,-0.6281,-0.7423,-0.8304,-0.8172,-0.7784,-0.7172,-0.6498,-0.589,-0.534,0.0,0.0,0.0,0.0,0.0,0.0,0.0,0.0,0.0,0.0,0.0,-0.7797,-0.901,-1.0073,-1.1019,-1.2029,-1.2737,-1.3195,0.0,0.0,0.0,0.0,0.0,0.0,0.0,0.0,0.0,0.0,0.0,0.0,0.0,0.0,0.0,0.0,0.0,0.0,0.0,0.0,0.0,0.0,-2.8757,-3.2567,-3.4458,-3.6646,-3.8173,-3.6965,-3.5534,-3.3199,0.0,0.0,-2.2913,-2.108,-2.032,-2.0358,-2.1482,-2.2239,-2.2897,-2.3501,0.0,0.0,-2.742,-3.0417,-3.2991,0.0,-3.6821,-3.8945,-4.0307,-4.3096,-4.4412,-4.3423,-4.5443,-4.5217,-4.1784,-4.1757,-4.1512,-4.0858,-4.0755,-4.1329,-4.258,-4.2495,-4.2696,-4.3305,-4.3305,-4.329,-4.329,-4.329,-4.329,-4.329,-4.329,-4.329,-4.329,-4.329,-4.329,-4.329,-4.329,-4.329,-4.3155,-4.2029,-4.1587,-4.142,0.0,0.0,0.0,0.0,0.0,0.0,0.0,-0.5634,-0.6514,-0.7151,-0.6643,-0.6209,-0.6142,-0.5584,-0.5148,-0.4977,0.0,0.0,0.0,0.0,0.0,0.0,0.0,0.0,0.0,0.0,0.0,-0.7797,-0.9377,-1.064,-1.156,-1.2192,-1.2974,-1.3812,-1.3808,-1.4074,0.0,0.0,0.0,0.0,0.0,0.0,0.0,0.0,0.0,0.0,0.0,0.0,0.0,0.0,0.0,0.0,0.0,0.0,0.0,0.0,0.0,0.0,-2.8744,-3.0988,-3.2667,-3.0723,-3.0036,-2.8989,-2.577,0.0,-2.1504,-2.0342,-2.0084,-2.039,-2.1496,-2.257,-2.3526,-2.4179,0.0,0.0,0.0,0.0,0.0,-3.5534,-3.9349,-4.1938,-4.2318,-4.3229,-4.3324,-4.2234,-4.3228,-4.2535,-3.9373,-3.9676,-3.9642,-3.8975,-3.9721,-4.035,-4.0741,-4.2252,-4.3108,-4.329,-4.2508,-4.2152,-4.2111,-4.1309,-4.0972,-4.0972,-4.0972,-4.0972,-4.1057,-4.1823,-4.2152,-4.2152,-4.2152,-4.2152,-4.1891,-3.9931,-3.92,-3.9288,0.0,0.0,0.0,0.0,0.0,0.0,0.0,-0.516,-0.5799,-0.6028,-0.5498,-0.5228,-0.555,-0.5026,-0.4749,-0.4968,0.0,0.0,0.0,0.0,0.0,0.0,0.0,0.0,0.0,0.0,-0.6936,-0.7797,-0.9927,-1.1362,-1.211,-1.2996,-1.3753,-1.4363,-1.4154,-1.4141,0.0,0.0,0.0,0.0,0.0,0.0,-1.3792,0.0,0.0,0.0,0.0,0.0,0.0,0.0,0.0,0.0,0.0,0.0,0.0,0.0,-2.0134,0.0,0.0,-2.6261,-2.7892,-2.6658,-2.638,0.0,0.0,0.0,-2.1178,-2.0347,-2.0311,-2.0656,-2.1535,-2.2547,-2.3385,-2.3819,-2.5001,0.0,0.0,0.0,0.0,-3.6372,-4.0023,-4.2118,-4.1932,-4.2349,-4.2208,-4.1042,-4.1568,-4.0801,-3.8225,-3.8754,-3.8622,-3.7474,-3.9064,-3.9899,-3.9899,-4.2167,-4.329,-4.329,-4.2152,-4.1587,-4.1545,-4.0404,-3.9899,-3.9899,-3.9899,-3.9899,0.0,-4.0661,-4.0958,-4.0958,-4.0958,-4.0958,-4.0746,-3.8814,-3.8379,-3.8872,0.0,0.0,0.0,0.0,0.0,0.0,0.0,0.0,0.0,0.0,-0.4731,-0.4765,-0.5241,-0.4781,-0.4656,0.0,0.0,0.0,0.0,0.0,0.0,0.0,0.0,0.0,0.0,-0.5697,-0.6986,-0.7895,-1.0632,-1.2166,-1.2622,-1.4128,-1.4796,-1.4721,-1.4269,-1.4282,-1.4574,-1.3591,-1.3371,-1.3661,-1.2752,-1.2972,0.0,0.0,0.0,0.0,0.0,0.0,0.0,0.0,0.0,0.0,0.0,0.0,0.0,0.0,0.0,0.0,0.0,0.0,0.0,0.0,0.0,0.0,0.0,0.0,0.0,-2.086,-2.0825,-2.1103,-2.1737,-2.2355,-2.2793,-2.2882,-2.3984,0.0,0.0,-2.919,0.0,0.0,-3.9211,-4.0229,-3.9578,-4.0689,-4.1,-3.9855,-4.0294,-3.9815,-3.8056,-3.8576,-3.8132,-3.6465,-3.8572,-3.9812,-3.9899,-4.2167,-4.329,-4.329,-4.207,-4.1462,-4.142,-4.0189,-3.9637,-3.9637,-3.9637,-3.9637,-3.9637,-3.9724,-3.9768,-3.9768,-3.9768,-3.9768,-3.9637,-3.8424,-3.8738,-3.9768,0.0,0.0,0.0,0.0,0.0,0.0,0.0,0.0,0.0,0.0,0.0,-0.4415,-0.4337,-0.455,0.0,0.0,0.0,0.0,0.0,0.0,0.0,0.0,0.0,0.0,0.0,-0.6253,-0.7559,-0.8793,-1.1237,-1.2448,-1.2463,-1.3658,-1.4176,-1.4122,-1.4467,-1.4474,-1.4215,-1.3805,-1.3487,-1.3299,-1.3885,-1.4254,0.0,0.0,0.0,0.0,-1.7197,-1.7612,0.0,0.0,0.0,0.0,0.0,0.0,0.0,0.0,-1.6696,-1.6861,-1.7491,0.0,-1.9497,-1.9208,-1.9396,-1.9546,0.0,0.0,0.0,0.0,0.0,0.0,-2.287,-2.3284,-2.3714,-2.4747,0.0,-2.7171,-2.8008,-3.2542,0.0,-3.6974,-3.9601,-4.0567,-3.8709,-3.9592,-3.9798,-3.8604,-3.8634,-3.8161,-3.6849,-3.6977,-3.6848,-3.6417,-3.7769,-3.8961,-3.9899,-4.2167,-4.329,-4.329,-4.1267,-4.0275,-4.0232,-3.8179,-3.7196,-3.7196,-3.7196,-3.7196,-3.7289,-3.8166,-3.8514,-3.8514,-3.8514,-3.8514,-3.8379,-3.7243,-3.7553,-3.8649,0.0,0.0,0.0,0.0,0.0,0.0,0.0,0.0,0.0,0.0,0.0,0.0,0.0,0.0,0.0,0.0,0.0,0.0,0.0,0.0,0.0,0.0,0.0,0.0,0.0,-0.6647,-0.7952,-0.9014,-1.1389,-1.2605,-1.274,-1.3827,-1.4136,-1.3879,-1.4194,-1.435,-1.4362,-1.4059,-1.3889,-1.3879,-1.4261,0.0,0.0,0.0,0.0,0.0,-1.7679,-1.7767,0.0,-1.8263,-1.8185,-1.7727,0.0,0.0,0.0,0.0,-1.6303,-1.6151,-1.6423,-1.7149,-1.7815,-1.7765,-1.799,-1.8329,0.0,0.0,0.0,0.0,0.0,0.0,0.0,0.0,0.0,0.0,-2.6258,0.0,0.0,0.0,-3.6501,-3.7025,-3.8861,-3.9536,-3.8292,-3.8702,-3.8604,-3.7415,-3.7322,-3.707,-3.6452,-3.6405,-3.6405,-3.6405,-3.7494,-3.8424,-3.905,-4.0831,-4.174,-4.1699,-3.9915,-3.905,-3.9006,-3.7196,-3.6405,-3.6405,-3.6405,-3.6405,-3.6452,-3.7057,-3.7322,-3.7322,-3.7322,-3.7475,-3.7616,-3.7265,-3.7867,-3.8942,0.0,0.0,0.0,0.0,0.0,0.0,0.0,0.0,0.0,0.0,0.0,0.0,0.0,0.0,0.0,0.0,0.0,0.0,0.0,0.0,0.0,0.0,0.0,-0.5051,-0.54,-0.7095,-0.8398,-0.9211,-1.1417,-1.27,-1.3109,-1.41,-1.4329,-1.3933,-1.3839,-1.4147,-1.4722,-1.446,-1.4483,-1.4722,-1.4536,0.0,0.0,0.0,0.0,0.0,0.0,0.0,0.0,-1.7927,-1.7747,-1.7312,-1.7312,0.0,0.0,0.0,0.0,0.0,-1.6216,-1.6995,-1.7689,-1.789,-1.8016,-1.8317,0.0,0.0,0.0,0.0,0.0,0.0,0.0,-2.2829,0.0,0.0,0.0,0.0,-3.2029,-3.4125,-3.5693,-3.6821,-3.7676,-3.8018,-3.7642,-3.7879,-3.7723,-3.6709,-3.6675,-3.6637,-3.6548,-3.6449,-3.6329,-3.6166,-3.7154,-3.7677,-3.7586,-3.9146,-3.9899,-3.9899,-3.8693,-3.8107,-3.8062,-3.693,-3.6405,-3.6405,-3.6317,-3.6279,-3.6279,-3.6191,-3.6204,-3.6279,-3.6366,-3.6695,-3.7169,-3.7833,-3.8719,-3.9707,0.0,0.0,0.0,0.0,0.0,0.0,0.0,0.0,0.0,0.0,0.0,0.0,0.0,0.0,0.0,0.0,0.0,0.0,0.0,0.0,0.0,0.0,0.0,-0.6391,-0.6778,-0.8122,-0.9422,-1.0686,-1.1901,-1.2678,-1.3029,-1.3651,-1.4167,-1.4537,-1.4027,-1.4236,-1.4969,-1.5261,-1.5201,-1.5024,-1.5816,0.0,0.0,0.0,0.0,0.0,0.0,0.0,0.0,-1.7927,-1.7747,-1.7312,-1.7312,0.0,0.0,0.0,0.0,0.0,-1.572,-1.7197,-1.8431,-1.7089,-1.7137,-1.7574,0.0,0.0,0.0,0.0,0.0,0.0,0.0,-2.3415,-2.3687,0.0,0.0,-3.0882,-3.4158,-3.577,-3.6414,-3.5847,-3.7143,-3.7361,-3.5422,-3.6981,-3.8017,-3.7848,-3.7848,-3.7638,-3.7198,-3.6675,-3.5943,-3.5002,-3.5554,-3.5704,-3.5236,-3.8343,-3.9899,-3.9899,-3.8693,-3.8107,-3.8062,-3.693,-3.6405,-3.638,-3.5868,-3.5621,-3.5583,-3.5165,-3.5253,-3.5663,-3.6128,-3.6642,-3.7153,-3.7727,-3.8629,-3.9769,0.0,0.0,0.0,0.0,0.0,0.0,0.0,0.0,0.0,0.0,0.0,0.0,0.0,0.0,0.0,0.0,0.0,0.0,0.0,0.0,0.0,0.0,-0.7378,-0.7806,-0.769,-0.8808,-0.9873,-1.0896,-1.1875,-1.2539,-1.296,-1.3543,-1.412,-1.4698,-1.4755,-1.517,-1.5803,-1.5712,-1.5552,-1.5406,0.0,0.0,0.0,0.0,0.0,0.0,0.0,0.0,0.0,0.0,-1.7312,-1.6879,-1.6879,0.0,0.0,0.0,0.0,0.0,-1.6008,-1.7097,-1.7953,-1.7174,-1.784,-1.8754,0.0,0.0,0.0,0.0,0.0,0.0,0.0,0.0,-2.5078,-2.7547,-3.0426,-3.2779,-3.4071,-3.4995,-3.5451,-3.5092,-3.5775,-3.6108,-3.5638,-3.659,-3.7196,-3.7196,-3.7196,-3.6952,-3.6341,-3.6079,-3.5554,-3.4751,-3.4919,-3.4931,-3.468,-3.6295,-3.7235,-3.7537,-3.7272,-3.7196,-3.7137,-3.6311,-3.5918,-3.5893,-3.5295,-3.5056,-3.5044,-3.4781,-3.5212,-3.5961,-3.6192,-3.6983,-3.8034,-3.8517,-3.9286,-4.0062,0.0,0.0,0.0,0.0,0.0,0.0,0.0,0.0,0.0,0.0,0.0,0.0,0.0,0.0,0.0,0.0,0.0,0.0,0.0,0.0,-0.6652,-0.7381,-0.8622,-0.9065,-0.8562,-0.9494,-1.0365,-1.112,-1.1855,-1.2428,-1.2905,-1.3529,-1.412,-1.4721,-1.532,-1.5942,-1.6475,-1.607,-1.5881,-1.5881,0.0,0.0,0.0,0.0,0.0,0.0,0.0,0.0,0.0,0.0,0.0,0.0,0.0,0.0,0.0,-1.6139,-1.5952,-1.5698,-1.616,-1.6913,-1.7559,-1.7416,0.0,-1.9472,-2.0424,0.0,0.0,0.0,0.0,0.0,0.0,-2.463,0.0,-2.9832,-3.2332,-3.3887,-3.3981,-3.4549,-3.4976,-3.5093,-3.5102,-3.5391,-3.6107,-3.6552,-3.6688,-3.6434,-3.6536,-3.6307,-3.5575,-3.5415,-3.4994,-3.4361,-3.4462,-3.4462,-3.4336,-3.4462,-3.4756,-3.5307,-3.578,-3.5981,-3.6015,-3.5495,-3.5307,-3.527,-3.4731,-3.4525,-3.4512,-3.4641,-3.5247,-3.6138,-3.6492,-3.7547,-3.8903,-3.9283,-3.9738,-4.0098,0.0,0.0,0.0,0.0,0.0,0.0,0.0,0.0,0.0,0.0,0.0,0.0,0.0,0.0,0.0,0.0,0.0,0.0,0.0,0.0,-0.7852,-0.8286,-0.9525,-1.0011,-0.96,-1.0393,-1.1235,-1.2109,-1.2171,-1.2428,-1.2905,-1.3529,-1.412,-1.4721,-1.532,-1.5942,-1.65,-1.645,-1.6437,-1.6437,-1.6437,0.0,0.0,0.0,0.0,0.0,0.0,0.0,0.0,0.0,0.0,0.0,0.0,0.0,-1.561,-1.5654,-1.5632,-1.561,-1.5654,-1.688,-1.8006,-1.7444,0.0,0.0,-2.0216,-2.0604,0.0,0.0,0.0,0.0,0.0,-2.5666,-2.7306,-3.0123,-3.2044,-3.3669,-3.5168,-3.586,-3.6285,-3.6279,-3.6292,-3.6069,-3.5596,-3.7012,-3.7582,-3.6546,-3.6968,-3.674,-3.5663,-3.5041,-3.4299,-3.3275,-3.3696,-3.3709,-3.3206,-3.3709,-3.4236,-3.4776,-3.4781,-3.4839,-3.4839,-3.4801,-3.4776,-3.4751,-3.4198,-3.396,-3.401,-3.4487,-3.5028,-3.5703,-3.7114,-3.8373,-3.9361,-3.9403,-3.9454,-3.9484,0.0,0.0,0.0,0.0,0.0,0.0,0.0,0.0,0.0,0.0,0.0,0.0,0.0,0.0,0.0,0.0,0.0,0.0,0.0,0.0,-0.8349,-0.8755,-0.975,-1.0341,-1.0442,-1.1031,-1.1611,-1.2203,-1.25,-1.292,-1.3467,-1.4084,-1.4664,-1.5276,-1.5898,-1.6281,-1.6475,-1.6137,-1.6007,-1.6007,-1.6007,-1.6119,0.0,0.0,0.0,0.0,0.0,0.0,0.0,0.0,-1.7076,0.0,0.0,0.0,-1.6173,-1.6173,-1.6173,-1.6173,-1.6173,-1.7167,-1.8062,-1.7492,0.0,0.0,0.0,0.0,0.0,0.0,-2.6421,0.0,0.0,0.0,-2.8674,-3.0758,-3.2503,-3.4048,-3.532,-3.5683,-3.5855,-3.5855,-3.5554,-3.5265,-3.5006,-3.56,-3.5808,-3.5417,-3.5583,-3.5366,-3.4597,-3.4021,-3.3345,-3.2566,-3.2403,-3.224,-3.2026,-3.224,-3.2441,-3.2667,-3.406,-3.468,-3.4668,-3.4361,-3.4211,-3.4173,-3.3633,-3.3382,-3.3456,-3.4324,-3.4981,-3.557,-3.7436,-3.8697,-3.9388,-3.9388,-3.898,-3.842,0.0,0.0,0.0,0.0,0.0,0.0,0.0,0.0,0.0,0.0,0.0,0.0,0.0,0.0,0.0,0.0,0.0,0.0,0.0,-0.8154,-0.8945,-0.9182,-1.0042,-1.0567,-1.065,-1.1138,-1.1641,-1.2203,-1.2666,-1.3214,-1.3815,-1.4584,-1.5174,-1.5632,-1.642,-1.6659,-1.6475,-1.612,-1.5957,-1.5957,-1.5957,-1.6048,0.0,0.0,0.0,0.0,0.0,0.0,0.0,0.0,0.0,0.0,0.0,0.0,0.0,0.0,0.0,-1.65,-1.65,-1.7064,-1.7626,0.0,0.0,0.0,0.0,0.0,0.0,0.0,-2.8084,0.0,-2.8599,0.0,-2.9427,-3.1122,-3.2805,-3.4223,-3.5107,-3.5395,-3.5433,-3.5257,-3.4906,-3.4605,-3.4474,-3.4625,-3.4455,-3.3972,-3.4098,-3.3884,-3.3144,-3.2754,-3.2365,-3.1964,-3.1587,-3.1386,-3.1386,-3.1386,-3.1386,-3.1411,-3.2943,-3.3671,-3.3658,-3.3282,-3.3106,-3.3093,-3.2893,-3.2704,-3.268,-3.4239,-3.5331,-3.612,-3.752,-3.8497,-3.9029,-3.8504,-3.8106,-3.7724,0.0,0.0,0.0,0.0,0.0,0.0,0.0,0.0,0.0,0.0,0.0,0.0,0.0,0.0,0.0,0.0,0.0,0.0,0.0,-0.9133,-0.9744,-0.9629,-1.0499,-1.0714,-1.0122,-1.063,-1.1316,-1.2203,-1.2656,-1.3214,-1.3828,-1.4959,-1.5528,-1.5654,-1.6799,-1.6993,-1.65,-1.6488,-1.65,-1.65,-1.65,-1.6816,-1.7271,0.0,0.0,0.0,0.0,0.0,0.0,0.0,-1.6095,0.0,0.0,0.0,0.0,0.0,-1.603,-1.65,-1.65,-1.65,-1.6651,0.0,0.0,0.0,0.0,0.0,0.0,0.0,0.0,-2.9088,-2.9704,-2.934,-2.9452,-3.1122,-3.2792,-3.4085,-3.4638,-3.5144,-3.527,-3.4731,-3.47,-3.4474,-3.3935,-3.4374,-3.3997,-3.2328,-3.2742,-3.2566,-3.1449,-3.1386,-3.1386,-3.1386,-3.1386,-3.1373,-3.1373,-3.1373,-3.1373,-3.1373,-3.1373,-3.1386,-3.1386,-3.1386,-3.1386,-3.1424,-3.1964,-3.1888,-3.1587,-3.4188,-3.6122,-3.7434,-3.7419,-3.7808,-3.8197,-3.6603,-3.6771,-3.7577,0.0,0.0,0.0,0.0,0.0,0.0,0.0,0.0,0.0,0.0,0.0,0.0,0.0,0.0,0.0,0.0,0.0,0.0,0.0,-0.9467,-1.0344,-1.0642,-1.0877,-1.093,-1.0743,-1.0843,-1.1191,-1.178,-1.2207,-1.296,-1.4027,-1.4654,-1.541,-1.6238,-1.6582,-1.6659,-1.6466,-1.6051,-1.5864,-1.5864,-1.5864,-1.572,-1.5554,0.0,0.0,0.0,0.0,0.0,0.0,0.0,0.0,0.0,0.0,0.0,0.0,0.0,-1.6358,-1.65,-1.65,-1.7077,0.0,0.0,0.0,0.0,0.0,0.0,0.0,0.0,-2.9832,-3.0455,-2.9779,-3.0223,-3.0821,-3.1311,-3.2478,-3.3508,-3.406,-3.3947,-3.3746,-3.3583,-3.2867,-3.2315,-3.2152,-3.229,-3.2164,-3.1675,-3.1788,-3.175,-3.1411,-3.1047,-3.0846,-3.0846,-3.047,-3.0269,-3.0269,-3.0269,-3.0269,-3.0269,-3.0269,-3.0658,-3.1386,-3.1386,-3.1386,-3.1399,-3.1562,-3.1537,-3.1524,-3.3248,-3.5874,-3.8701,-3.7778,-3.8108,-3.8913,-3.7288,-3.6857,-3.6851,0.0,0.0,0.0,0.0,0.0,0.0,0.0,0.0,0.0,0.0,0.0,0.0,0.0,0.0,0.0,0.0,0.0,0.0,0.0,0.0,-1.1466,-1.1344,-1.1524,-1.1342,-1.0745,-1.0478,-1.0684,-1.132,-1.2151,-1.3097,-1.4134,-1.4965,-1.5776,-1.6522,0.0,-1.6689,-1.6457,-1.5864,-1.561,-1.5588,-1.5343,-1.5017,-1.4812,0.0,0.0,0.0,0.0,0.0,0.0,0.0,0.0,0.0,0.0,0.0,0.0,-1.5964,-1.6315,-1.65,-1.65,0.0,0.0,0.0,0.0,0.0,0.0,0.0,0.0,0.0,-2.9176,-2.96,-2.9238,-3.0019,-3.0765,-3.0987,-3.2169,-3.3119,-3.3219,-3.2943,-3.2654,-3.2428,-3.18,-3.1386,-3.1386,-3.1386,-3.1298,-3.1097,-3.1085,-3.0984,-3.0771,-3.0457,-3.0281,-3.0281,-2.9967,-2.9792,-2.9792,-2.9792,-2.9792,-2.9792,-2.9792,-3.0131,-3.0758,-3.0758,-3.0758,-3.0758,-3.0758,-3.1099,-3.169,-3.2297,-3.4161,-3.667,-3.6197,-3.6465,-3.6997,-3.6129,-3.5998,-3.6038,0.0,0.0,0.0,0.0,0.0,0.0,0.0,0.0,0.0,0.0,0.0,0.0,0.0,0.0,0.0,0.0,0.0,0.0,0.0,0.0,-1.2722,-1.1856,-1.227,-1.1836,-1.0391,-0.988,-1.0068,-1.0991,-1.2366,-1.3422,-1.4134,0.0,-1.6352,-1.6445,0.0,-1.6833,-1.6293,-1.5688,-1.5432,-1.5387,-1.4835,-1.4594,-1.4606,-1.532,0.0,0.0,0.0,0.0,0.0,0.0,0.0,0.0,0.0,0.0,0.0,-1.5499,-1.603,-1.6436,0.0,0.0,0.0,0.0,0.0,0.0,0.0,-2.5998,-2.731,-2.8678,0.0,-2.7579,-2.8266,-2.8973,-2.965,-3.0252,-3.173,-3.2644,-3.2215,-3.2102,-3.1876,-3.1386,-3.1273,-3.1248,-3.1248,-3.1248,-3.1047,-3.057,-3.0545,-3.0319,-2.9817,-2.9792,-2.9792,-2.9792,-2.9792,-2.9792,-2.9792,-2.9792,-2.9792,-2.9792,-2.9792,-2.9792,-2.9792,-2.9792,-2.9792,-2.9792,-2.9792,-3.0637,-3.196,-3.1418,-3.1809,-3.2866,-3.3736,-3.3987,-3.3846,-3.4019,-3.4697,-3.5276,0.0,0.0,0.0,0.0,0.0,0.0,0.0,0.0,0.0,0.0,0.0,0.0,0.0,0.0,0.0,0.0,0.0,0.0,0.0,0.0,-1.2573,-1.2714,-1.2184,-1.1549,-1.0802,-1.067,-1.0923,-1.1601,-1.2289,-1.3119,0.0,0.0,0.0,-1.5798,0.0,-1.5632,-1.5039,-1.4434,-1.4179,-1.4179,-1.405,-1.3718,-1.3454,-1.5005,-1.5298,0.0,0.0,0.0,0.0,0.0,0.0,0.0,-1.5253,-1.541,-1.5521,-1.6129,-1.6051,-1.5872,0.0,0.0,0.0,0.0,0.0,0.0,0.0,-2.4621,-2.4316,-2.5539,-2.7629,-2.8711,-2.7082,-2.77,-2.8752,-2.9735,-3.0248,-3.076,-3.1451,-3.1223,-3.0922,-3.0796,-3.0394,-3.0131,-3.0131,-3.0131,-3.0093,-2.998,-2.9967,-2.9917,-2.9804,-2.9792,-2.9792,-2.9792,-2.9792,-2.9792,-2.9792,-2.9792,-2.9792,-2.9792,-2.9792,-2.9792,-2.9792,-2.9792,-2.9792,-2.9792,-2.9792,-3.0676,-3.2101,-3.1455,-3.2368,-3.4224,-3.4633,-3.5065,-3.5432,-3.4957,-3.5412,-3.6035,0.0,0.0,0.0,0.0,0.0,0.0,0.0,0.0,0.0,0.0,0.0,0.0,0.0,0.0,0.0,0.0,0.0,0.0,0.0,0.0,0.0,0.0,-1.2205,-1.1747,-1.1242,-1.1527,-1.1912,-1.2415,-1.3,0.0,0.0,0.0,0.0,-1.5163,0.0,-1.4983,-1.4663,-1.405,-1.3792,-1.3768,-1.3481,-1.3176,-1.3085,-1.4886,-1.5348,-1.5243,-1.649,0.0,0.0,0.0,0.0,0.0,0.0,0.0,-1.5231,-1.5545,-1.5421,-1.5233,0.0,0.0,0.0,0.0,0.0,0.0,0.0,-2.436,-2.4092,-2.467,-2.5948,-2.6616,-2.5567,-2.6396,-2.7404,-2.8015,-2.8382,-2.9004,-3.0053,-2.9735,-2.9616,-3.014,-2.9967,-2.9792,-2.9792,-2.9326,-2.8988,-2.8988,-2.8988,-2.8988,-2.8988,-2.9495,-2.9792,-2.9792,-2.9792,-2.9792,-2.9792,-2.9792,-2.9792,-2.9792,-2.9792,-2.9792,-2.9792,-2.9792,-2.9792,-2.9792,-2.9792,-3.0278,-3.1035,-3.0687,-3.1487,-3.3016,-3.3633,-3.4059,-3.4455,-3.502,-3.5463,-3.5673,0.0,0.0,0.0,0.0,0.0,0.0,0.0,0.0,0.0,0.0,0.0,0.0,0.0,0.0,0.0,0.0,0.0,0.0,0.0,0.0,0.0,0.0,-1.2091,-1.1969,-1.1714,-1.2283,-1.2763,-1.3098,0.0,0.0,0.0,0.0,0.0,-1.4537,0.0,-1.4502,-1.4363,-1.3849,-1.3637,-1.361,-1.3183,-1.2988,-1.3199,-1.4947,-1.5609,-1.5778,-1.7076,-1.7549,-1.7382,-1.6402,0.0,0.0,0.0,0.0,-1.4835,-1.4721,-1.4629,-1.4559,0.0,0.0,0.0,0.0,0.0,0.0,0.0,-2.4148,-2.4366,-2.4651,-2.4293,-2.3994,-2.4131,-2.5022,-2.5808,-2.602,-2.652,-2.7318,-2.8562,-2.8357,-2.8518,-2.9663,-2.9792,-2.9715,-2.9448,-2.8542,-2.7878,-2.7636,-2.7584,-2.7699,-2.7993,-2.8893,-2.9487,-2.9641,-2.9641,-2.9591,-2.9503,-2.9503,-2.9553,-2.9641,-2.9741,-2.9792,-2.9792,-2.9792,-2.9792,-2.9792,-2.9792,-2.9792,-2.9792,-2.996,-3.0482,-3.1315,-3.2429,-3.2855,-3.3066,-3.4839,-3.5326,-3.5141,0.0,0.0,0.0,0.0,0.0,0.0,0.0,0.0,0.0,0.0,0.0,0.0,0.0,0.0,0.0,0.0,0.0,0.0,-1.0697,0.0,0.0,-1.1807,-1.1521,-1.1584,-1.2116,-1.2711,-1.3057,-1.3098,0.0,0.0,0.0,0.0,0.0,-1.3909,0.0,-1.3624,-1.3138,-1.3065,-1.3017,-1.3046,-1.3297,-1.3418,-1.3619,-1.5423,-1.6112,-1.6287,-1.7616,-1.8091,-1.8055,-1.7909,-1.7537,0.0,0.0,0.0,-1.5387,-1.4858,-1.4329,-1.3994,0.0,0.0,0.0,0.0,0.0,0.0,0.0,0.0,-2.267,0.0,-2.4483,-2.4356,-2.3467,-2.3389,-2.3851,-2.4848,-2.5094,-2.5832,-2.7909,-2.8143,-2.8518,-2.9663,-2.9792,-2.9269,-2.7929,-2.7675,-2.7007,-2.567,-2.5597,-2.6182,-2.7535,-2.7714,-2.8163,-2.9001,-2.9001,-2.8812,-2.8335,-2.8335,-2.8574,-2.9013,-2.9553,-2.9792,-2.9792,-2.9792,-2.9792,-2.9792,-2.9792,-2.9792,-2.9856,-3.0696,-3.1068,-3.1352,-3.3136,-3.3808,-3.3959,-3.51,-3.5484,-3.5446,0.0,0.0,0.0,0.0,0.0,0.0,0.0,0.0,0.0,0.0,0.0,0.0,0.0,0.0,0.0,-0.9394,-0.94,-0.9486,-0.9677,-1.0038,-1.0364,-1.0669,-1.1235,-1.1659,-1.1966,-1.2976,-1.3487,0.0,0.0,0.0,0.0,-1.4139,-1.4019,0.0,0.0,0.0,0.0,-1.3232,-1.3096,-1.2964,-1.3594,-1.3574,-1.3377,-1.5304,-1.6155,-1.6459,-1.7613,-1.829,-1.8533,-1.7812,-1.7423,-1.699,-1.5686,0.0,0.0,0.0,-1.3491,-1.3377,-1.3786,0.0,0.0,0.0,0.0,0.0,-2.0686,0.0,-2.1694,-2.2382,-2.2847,-2.3143,-2.309,-2.3091,-2.3256,-2.3757,-2.3844,-2.4628,-2.6871,-2.6904,-2.734,-2.9099,-2.8546,-2.7732,-2.7059,-2.5934,-2.4981,-2.4309,-2.477,-2.5367,-2.605,-2.7212,-2.8039,-2.8436,-2.8461,-2.8348,-2.8109,-2.8109,-2.8386,-2.8888,-2.9189,-2.9478,-2.9792,-2.9792,-2.9792,-2.9792,-2.9792,-3.0113,-3.0633,-3.1044,-3.1815,-3.2855,-3.3671,-3.4361,-3.4872,-3.5359,-3.5133,-3.4658,0.0,0.0,0.0,0.0,0.0,0.0,0.0,0.0,0.0,0.0,0.0,0.0,0.0,0.0,0.0,0.0,-0.9078,-0.8804,-0.8804,-0.9263,-0.9614,-0.9788,-1.0914,-1.1641,-1.1789,-1.3106,0.0,0.0,0.0,0.0,-1.4302,-1.3643,-1.3628,0.0,-1.358,-1.3351,0.0,0.0,-1.298,-1.2941,-1.3552,-1.3568,-1.3401,-1.5096,-1.5944,-1.6397,-1.734,-1.8088,-1.8504,-1.7541,-1.7142,-1.6756,-1.5257,-1.4614,0.0,0.0,0.0,-1.3105,0.0,0.0,0.0,0.0,0.0,0.0,0.0,0.0,-2.044,-2.0654,-2.0996,-2.1484,-2.2324,-2.2676,-2.2822,-2.2822,-2.3018,-2.383,-2.5858,-2.5938,-2.6527,-2.8487,-2.7358,-2.6277,-2.591,-2.4216,-2.3024,-2.2594,-2.3396,-2.4177,-2.4803,-2.6273,-2.736,-2.7896,-2.7896,-2.7821,-2.7682,-2.7821,-2.8172,-2.8687,-2.8825,-2.9151,-2.9578,-2.9578,-2.9503,-2.9377,-2.9666,-3.0317,-3.1217,-3.1462,-3.2522,-3.4027,-3.4279,-3.4691,-3.5133,-3.5133,-3.4476,-3.3636,0.0,0.0,0.0,0.0,0.0,0.0,0.0,0.0,0.0,0.0,0.0,0.0,-1.1083,-1.0326,-0.9791,-0.9791,-0.9178,-0.8804,-0.8804,-0.8831,-0.9133,-0.9762,-1.0491,0.0,-1.1789,-1.3106,0.0,0.0,0.0,0.0,-1.4102,-1.3304,-1.3382,-1.4173,-1.3319,-1.2923,-1.2887,0.0,0.0,0.0,-1.2959,-1.3394,-1.4125,-1.4945,-1.5532,-1.6009,-1.6773,-1.7314,-1.767,-1.7593,-1.7241,-1.6691,-1.6031,-1.5179,-1.436,0.0,0.0,0.0,0.0,0.0,0.0,0.0,0.0,0.0,0.0,0.0,-1.8408,-1.9219,-1.9404,-1.9678,-2.0576,-2.1427,-2.1953,-2.1953,-2.2717,-2.3716,-2.4915,-2.5885,-2.6885,-2.8,-2.6883,-2.5465,-2.3991,-2.29,-2.1669,-2.019,-2.0544,-2.186,-2.4227,-2.4438,-2.5384,-2.7283,-2.7318,-2.7115,-2.6587,-2.7102,-2.7607,-2.816,-2.865,-2.8913,-2.8938,-2.8938,-2.865,-2.8247,-2.9327,-3.0317,-3.1278,-3.2177,-3.3101,-3.4095,-3.5052,-3.4872,-3.4061,-3.4061,-3.3484,-3.2664,0.0,0.0,0.0,0.0,0.0,0.0,0.0,0.0,0.0,0.0,0.0,0.0,0.0,-1.157,-1.1091,-1.1091,-1.009,-0.9439,-0.9439,-0.9035,-0.9113,-0.9762,-1.044,-1.1116,-1.1789,-1.2997,0.0,0.0,0.0,-1.324,-1.3756,-1.2744,-1.2672,-1.3408,-1.2818,-1.2597,-1.2569,-1.2274,0.0,-1.2913,-1.3228,-1.3654,-1.416,-1.4723,-1.5348,-1.5976,-1.6475,-1.7087,-1.7523,-1.7062,-1.6759,-1.6428,-1.5484,-1.4961,-1.4573,-1.4223,-1.3997,-1.3821,0.0,0.0,0.0,0.0,0.0,-1.5312,-1.5449,-1.6582,-1.7617,-1.7637,-1.8086,-1.8643,-1.9219,-2.0264,-2.1133,-2.1426,-2.226,-2.3381,-2.4793,-2.5538,-2.6005,-2.6213,-2.4897,-2.3457,-2.1976,-2.0923,-2.0102,-1.9558,-2.0746,-2.2071,-2.3327,-2.4167,-2.5101,-2.6189,-2.5875,-2.5774,-2.59,-2.6499,-2.7065,-2.7582,-2.777,-2.8059,-2.8398,-2.8398,-2.8298,-2.8134,-2.8536,-2.9471,-3.0752,-3.1426,-3.2249,-3.3136,-3.3498,-3.3429,-3.3101,-3.3101,-3.25,-3.1706,0.0,0.0,0.0,0.0,0.0,0.0,0.0,0.0,0.0,0.0,0.0,0.0,0.0,0.0,-1.1715,-1.1491,-1.044,-0.9788,-0.9788,-0.9185,-0.9008,-0.9439,-1.0312,-1.1074,-1.1684,-1.2521,0.0,0.0,0.0,0.0,0.0,-1.2028,-1.1879,-1.2281,-1.1939,-1.1939,0.0,0.0,-1.2249,-1.2957,-1.3116,-1.3744,-1.4562,-1.4883,-1.5409,-1.6012,-1.6263,-1.6683,-1.6985,-1.6335,-1.6122,-1.6014,-1.5249,-1.5,-1.4912,-1.4482,-1.4328,-1.4287,-1.4014,0.0,0.0,0.0,0.0,-1.4609,-1.4746,-1.5791,-1.668,-1.6543,-1.6963,-1.749,-1.7886,-1.8701,-1.9561,-2.0439,-2.1642,-2.281,-2.385,-2.4763,-2.5143,-2.4691,-2.3306,-2.1904,-2.0695,-1.9661,-1.9072,-1.9072,-2.0614,-2.1845,-2.2564,-2.3692,-2.462,-2.5322,-2.5008,-2.4983,-2.5335,-2.5724,-2.6311,-2.704,-2.704,-2.7293,-2.7821,-2.7821,-2.772,-2.7557,-2.7745,-2.869,-3.0134,-3.0702,-3.1496,-3.2352,-3.2524,-3.2429,-3.2141,-3.2141,-3.1536,-3.0733,0.0,0.0,0.0,0.0,0.0,0.0,0.0,0.0,0.0,0.0,0.0,0.0,0.0,0.0,0.0,-1.0947,-1.0267,-0.987,-0.987,-0.9213,-0.8831,-0.8844,-1.0087,-1.1011,-1.1491,-1.1703,0.0,0.0,0.0,0.0,0.0,0.0,-1.0997,-1.0874,-1.0694,-1.1045,-1.171,-1.0958,-1.1538,-1.2976,-1.2591,-1.3629,-1.541,-1.54,-1.5674,-1.6095,-1.6095,-1.6105,-1.6046,-1.5576,-1.5439,-1.5449,-1.543,-1.542,-1.5332,-1.4922,-1.4833,-1.4833,0.0,0.0,0.0,0.0,0.0,0.0,-1.4678,-1.5098,-1.5527,-1.5968,-1.6065,-1.6212,-1.6599,-1.6677,-1.7256,-1.8971,-2.0765,-2.1945,-2.1922,-2.3532,-2.4414,-2.3499,-2.2167,-2.0997,-2.012,-1.9143,-1.8568,-1.8568,-1.9818,-2.1008,-2.1945,-2.284,-2.3776,-2.4705,-2.4763,-2.4763,-2.4763,-2.4775,-2.536,-2.6449,-2.6449,-2.6725,-2.7218,-2.7218,-2.6977,-2.6499,-2.7052,-2.8087,-2.9451,-3.0085,-3.0882,-3.1764,-3.2274,-3.1947,-3.118,-3.118,-3.0595,-2.9792,0.0,0.0,0.0,0.0,0.0,0.0,0.0,0.0,0.0,0.0,0.0,0.0,-1.2822,-1.2986,-1.3071,-1.3182,-1.2038,-1.1325,-1.1325,-1.0149,-0.959,-0.9872,-1.0424,-1.0907,-1.1339,-1.1925,0.0,0.0,0.0,0.0,0.0,0.0,0.0,0.0,-1.0607,-1.0713,-1.0958,-1.132,-1.2058,-1.3006,-1.3208,-1.4122,-1.5381,-1.5078,-1.5449,-1.6095,-1.6095,-1.63,-1.6484,-1.6065,-1.6094,-1.6278,-1.5986,-1.5664,-1.5391,-1.5273,-1.5234,-1.5176,-1.4891,0.0,0.0,0.0,0.0,0.0,-1.4328,-1.4855,-1.5361,-1.5176,-1.5381,-1.5732,-1.6162,-1.6281,-1.6681,-1.801,-1.949,-2.0419,-2.0236,-2.1966,-2.2604,-2.082,-2.027,-1.9538,-1.8278,-1.7892,-1.7734,-1.7734,-1.9524,-2.0886,-2.1531,-2.3006,-2.3734,-2.3584,-2.4004,-2.423,-2.423,-2.4619,-2.4938,-2.5272,-2.5272,-2.536,-2.5511,-2.5887,-2.5975,-2.5862,-2.6474,-2.6927,-2.742,-2.8354,-2.9125,-2.9706,-2.986,-3.0046,-3.0177,-3.0177,-3.0037,-2.9792,0.0,0.0,0.0,0.0,0.0,0.0,0.0,0.0,0.0,0.0,0.0,0.0,-1.3041,-1.3516,-1.3841,-1.4085,-1.2759,-1.1894,-1.1894,-1.0515,-0.98,-1.0037,-1.047,-1.0905,-1.1292,-1.156,0.0,0.0,0.0,0.0,0.0,0.0,0.0,0.0,0.0,0.0,0.0,-1.1905,-1.2573,-1.3053,-1.3608,-1.4688,-1.5907,-1.5693,-1.6123,-1.6887,-1.6711,-1.6777,-1.6934,-1.6494,-1.6514,-1.6658,-1.6426,-1.6172,-1.5928,-1.5742,-1.5684,-1.5596,-1.5166,-1.4922,-1.4766,-1.466,0.0,0.0,-1.466,-1.5049,-1.5342,-1.5098,-1.5244,-1.5488,-1.5772,-1.5821,-1.6019,-1.6678,-1.7737,-1.8668,-1.926,-2.0452,-2.0688,-1.9084,-1.886,-1.8414,-1.7226,-1.7109,-1.7109,-1.7109,-1.8606,-1.9826,-2.0495,-2.1951,-2.2518,-2.2007,-2.2613,-2.2949,-2.2949,-2.3502,-2.386,-2.4086,-2.4368,-2.4562,-2.4813,-2.536,-2.5598,-2.5624,-2.6248,-2.6499,-2.6549,-2.719,-2.7745,-2.8285,-2.8712,-2.9101,-2.9465,-2.9704,-2.9792,-2.9792,0.0,0.0,0.0,0.0,0.0,0.0,0.0,0.0,0.0,0.0,0.0,0.0,-1.3517,-1.3997,-1.427,-1.4319,-1.3037,-1.2189,-1.2104,-1.0726,-0.9876,-0.9762,-1.035,-1.085,-1.1152,-1.0857,0.0,0.0,0.0,0.0,0.0,0.0,0.0,0.0,0.0,0.0,0.0,-1.269,-1.3164,-1.3191,-1.4004,-1.5263,-1.6619,-1.658,-1.7058,-1.7754,-1.7422,-1.7314,-1.7256,-1.6892,-1.6746,-1.6707,-1.6755,-1.6746,-1.6619,-1.6281,-1.6163,-1.6075,-1.5596,-1.5215,-1.5028,-1.5332,-1.5166,0.0,-1.5342,-1.5449,-1.5469,-1.542,-1.541,-1.541,-1.541,-1.541,-1.5439,-1.5497,-1.6007,-1.6908,-1.8467,-1.8922,-1.8747,-1.7881,-1.78,-1.7492,-1.6713,-1.6629,-1.6629,-1.6629,-1.7482,-1.8382,-1.9242,-2.0249,-2.0683,-2.0406,-2.1047,-2.1425,-2.1493,-2.2033,-2.2531,-2.302,-2.3627,-2.4155,-2.4625,-2.5172,-2.5423,-2.5448,-2.6059,-2.6348,-2.6399,-2.6399,-2.6763,-2.7381,-2.836,-2.875,-2.8863,-2.9478,-2.9691,-2.9704,-0.8804,0.0,0.0,0.0,0.0,0.0,0.0,0.0,0.0,0.0,0.0,0.0,-1.4453,-1.4912,-1.5303,-1.5684,-1.4849,-1.4022,-1.3308,-1.2097,-1.0988,-1.007,-1.0407,-1.054,-1.0349,-1.0534,0.0,0.0,0.0,0.0,0.0,0.0,0.0,0.0,0.0,0.0,0.0,-1.3706,-1.4319,-1.4025,-1.4844,-1.5604,-1.6183,-1.5801,-1.5996,-1.6506,-1.6758,-1.6824,-1.6863,-1.7168,-1.7021,-1.6765,-1.7148,-1.7012,-1.6687,-1.6599,-1.657,-1.6504,-1.6085,-1.5909,-1.5772,-1.5478,-1.5615,0.0,-1.5469,-1.5684,-1.587,-1.5488,-1.541,-1.541,-1.541,-1.541,-1.5584,-1.6179,-1.5921,-1.5721,-1.6056,-1.699,-1.7348,-1.6577,-1.6456,-1.6395,-1.6222,-1.6222,-1.6222,-1.6222,-1.7328,-1.8382,-1.9242,-1.9522,-1.9877,-2.0366,-2.055,-2.0905,-2.1481,-2.2033,-2.2343,-2.2443,-2.3007,-2.3333,-2.3446,-2.4054,-2.4305,-2.4343,-2.4895,-2.5385,-2.5774,-2.5774,-2.6364,-2.7306,-2.7519,-2.7871,-2.8335,-2.885,-2.9063,-2.9164,-0.8804,0.0,0.0,0.0,0.0,0.0,0.0,0.0,0.0,0.0,0.0,0.0,-1.5049,-1.5674,-1.6132,-1.6377,-1.5651,-1.4993,-1.458,-1.3164,-1.2294,-1.2184,-1.1908,-1.1883,-1.2184,-1.1748,0.0,0.0,0.0,0.0,0.0,0.0,0.0,0.0,0.0,0.0,0.0,0.0,-1.5237,-1.5779,-1.5758,-1.5899,-1.6046,-1.5576,-1.582,-1.6396,-1.6396,-1.668,-1.7119,-1.7549,-1.7549,-1.7369,-1.7627,-1.7549,-1.7291,-1.7119,-1.7061,-1.6963,-1.6514,-1.6396,-1.6348,-1.6093,-1.624,0.0,0.0,-1.6064,-1.6095,-1.6074,-1.5693,-1.5478,-1.5693,-1.5557,-1.5526,-1.5892,-1.5642,-1.541,-1.541,-1.5919,-1.6176,-1.5792,-1.5732,-1.5732,-1.5732,-1.5732,-1.5732,-1.5732,-1.6558,-1.7153,-1.736,-1.7927,-1.8467,-1.898,-1.9372,-1.9909,-2.0652,-2.1204,-2.1493,-2.1493,-2.2334,-2.2694,-2.2732,-2.3602,-2.4004,-2.4029,-2.4582,-2.5109,-2.5598,-2.5598,-2.6101,-2.6939,-2.7216,-2.7457,-2.7758,-2.831,-2.8511,-2.8561,-0.8804,0.0,0.0,0.0,0.0,0.0,0.0,0.0,0.0,0.0,0.0,-1.5596,-1.5771,-1.6473,-1.7019,-1.7174,-1.6169,-1.5614,-1.5851,-1.3933,-1.3168,-1.4105,-1.3363,-1.3304,-1.4146,-1.3056,0.0,0.0,0.0,0.0,0.0,0.0,0.0,0.0,0.0,0.0,0.0,0.0,-1.6024,-1.7197,-1.6604,-1.6349,-1.63,-1.583,-1.6083,-1.6648,-1.6318,-1.6789,-1.7539,-1.7803,-1.7939,-1.8008,-1.8008,-1.8008,-1.7939,-1.7607,-1.75,-1.7412,-1.6973,-1.6824,-1.6804,-1.6726,-1.6765,-1.6804,0.0,0.0,0.0,-1.6648,-1.6063,-1.5644,-1.6026,-1.5703,-1.5381,-1.5303,-1.5361,-1.5381,-1.5303,-1.5293,-1.5293,-1.5293,-1.5293,-1.5254,-1.5176,-1.5137,-1.5137,-1.5137,-1.5566,-1.5694,-1.5312,-1.6283,-1.7061,-1.7589,-1.8178,-1.89,-1.9798,-2.0402,-2.0742,-2.0867,-2.1832,-2.2343,-2.2498,-2.3414,-2.3841,-2.3853,-2.4274,-2.4825,-2.5435,-2.5335,-2.5686,-2.6386,-2.6939,-2.7165,-2.7228,-2.7745,-2.7946,-2.7959,-0.8804,-0.8936,0.0,0.0,0.0,0.0,0.0,0.0,0.0,0.0,0.0,-1.632,-1.7103,-1.7578,-1.8174,-1.8936,-1.6867,-1.5978,-1.7122,-1.4104,-1.2698,-1.3627,-1.3171,-1.3129,-1.3667,-1.314,0.0,0.0,0.0,0.0,0.0,0.0,0.0,0.0,-1.2616,0.0,0.0,0.0,-1.6624,-1.6804,-1.7119,-1.7269,-1.7187,-1.6716,-1.6609,-1.6697,-1.6648,-1.7174,-1.7891,-1.7568,-1.7705,-1.8008,-1.8008,-1.8008,-1.7998,-1.7959,-1.7939,-1.7842,-1.7422,-1.7314,-1.7217,-1.6794,-1.7021,-1.7207,-1.6785,0.0,-1.7139,-1.6775,0.0,-1.6036,-1.6085,0.0,0.0,-1.4922,-1.5166,-1.5283,-1.4912,-1.4882,-1.4882,-1.4882,-1.4882,-1.4707,-1.4289,-1.425,-1.425,-1.425,-1.4678,-1.4902,-1.4863,-1.534,-1.622,-1.755,-1.7688,-1.8382,-1.9798,-2.0402,-2.0943,-2.1405,-2.202,-2.2543,-2.3007,-2.3145,-2.3195,-2.3208,-2.3271,-2.3898,-2.4838,-2.4381,-2.4782,-2.5749,-2.6361,-2.6587,-2.665,-2.7168,-2.7369,-2.7444,-0.8871,-0.9278,0.0,0.0,0.0,0.0,0.0,0.0,0.0,0.0,0.0,-1.7158,-1.8018,-1.8496,-1.8994,-1.96,-1.8466,-1.7824,-1.8074,-1.6006,-1.5177,-1.6111,-1.5451,-1.5384,-1.6144,-1.4698,-1.3922,0.0,-1.2251,0.0,0.0,0.0,0.0,0.0,-1.3637,0.0,-1.5319,-1.6284,-1.6853,-1.7148,-1.7578,-1.7744,-1.7646,-1.6709,-1.6338,-1.6416,-1.6924,-1.7344,-1.7656,-1.7725,-1.7861,-1.8008,-1.8008,-1.8008,-1.8008,-1.8008,-1.8008,-1.7969,-1.7793,-1.7744,-1.7705,-1.7486,-1.7607,-1.7705,-1.7486,-1.7422,-1.7402,-1.7461,0.0,0.0,0.0,0.0,0.0,0.0,-1.5293,-1.5352,-1.5176,-1.5146,-1.5059,-1.4842,-1.4813,-1.4805,-1.4845,-1.463,-1.4582,-1.4825,-1.4824,-1.4893,-1.5137,-1.5706,-1.6528,-1.7578,-1.8015,-1.8741,-1.9798,-2.0037,-2.0275,-2.0514,-2.1405,-2.1958,-2.2196,-2.2819,-2.3108,-2.3108,-2.3108,-2.3559,-2.433,-2.4092,-2.4456,-2.5197,-2.5749,-2.5996,-2.6059,-2.6625,-2.6839,-2.6876,-0.9473,0.0,0.0,0.0,0.0,0.0,0.0,0.0,-1.5519,-1.6356,-1.7112,-1.792,-1.8841,-1.9375,-1.9902,-2.0566,-1.982,-1.9271,-1.9153,-1.7438,-1.6848,-1.7774,-1.7048,-1.698,-1.7808,-1.5858,-1.4836,0.0,0.0,0.0,0.0,0.0,0.0,0.0,0.0,-1.5409,-1.6053,-1.6638,-1.7158,-1.7578,-1.7881,-1.7939,-1.7744,-1.6914,-1.6623,-1.6711,-1.7324,-1.7549,-1.7598,-1.791,-1.8008,-1.8008,-1.8008,-1.8008,-1.8008,-1.8008,-1.8008,-1.8008,-1.8008,-1.8008,-1.8008,-1.8008,-1.8008,-1.8008,-1.8008,-1.7773,-1.7637,-1.7949,-1.7168,0.0,0.0,0.0,-1.5557,-1.543,0.0,-1.5371,-1.5254,-1.5244,-1.5078,-1.4658,-1.4404,-1.4385,-1.4687,-1.4443,-1.4434,-1.4853,-1.4609,-1.4678,-1.5215,-1.5938,-1.6738,-1.7567,-1.8313,-1.9032,-1.9798,-1.9798,-1.9874,-2.0049,-2.1029,-2.1568,-2.1744,-2.2669,-2.3108,-2.3078,-2.2884,-2.3115,-2.3622,-2.3505,-2.3733,-2.4285,-2.4911,-2.5247,-2.5448,-2.6047,-2.6361,-2.6474,-1.0848,-1.0848,0.0,0.0,0.0,0.0,0.0,-1.5702,-1.6367,-1.7227,-1.7715,-1.8467,-1.9736,-2.0264,-2.1075,-2.2314,-2.0554,-1.9709,-2.0508,-1.771,-1.6448,-1.7366,-1.689,-1.685,-1.7412,-1.5956,-1.5182,0.0,0.0,0.0,0.0,0.0,0.0,0.0,0.0,-1.6164,-1.733,-1.7363,-1.7607,-1.7988,-1.8008,-1.7764,-1.7451,-1.7812,-1.7949,-1.7949,-1.7978,-1.7988,-1.7988,-1.8008,-1.8008,-1.8008,-1.8008,-1.8008,-1.8008,-1.8008,-1.8008,-1.8008,-1.8008,-1.8008,-1.8008,-1.8008,-1.8008,-1.8008,-1.8008,-1.7998,-1.7988,-1.8008,-1.7656,-1.7376,-1.7396,-1.6672,-1.5938,0.0,-1.541,0.0,0.0,-1.4805,-1.4648,-1.4182,-1.3437,-1.2974,-1.2983,-1.2974,-1.314,-1.3535,-1.3555,-1.3916,-1.4756,-1.5512,-1.6439,-1.7556,-1.8313,-1.9032,-1.9798,-1.9798,-2.0087,-2.0679,-2.1245,-2.1769,-2.2297,-2.2844,-2.3108,-2.3078,-2.2292,-2.2238,-2.2691,-2.2178,-2.2273,-2.2847,-2.3703,-2.4381,-2.4876,-2.5435,-2.6009,-2.6411,-1.3395,0.0,0.0,-1.2212,-1.3269,-1.4724,-1.6069,-1.666,-1.7376,-1.8496,-1.9014,-1.9943,-2.1804,-2.2187,-2.2611,-2.3301,-2.2167,-2.144,-2.1455,-1.9649,-1.8702,-1.9036,-1.862,-1.8315,-1.8188,-1.6501,-1.5474,-1.5199,0.0,0.0,0.0,0.0,0.0,0.0,0.0,-1.6998,0.0,-1.7383,-1.7461,-1.7617,-1.79,-1.8086,-1.8159,-1.8057,-1.7842,-1.7637,-1.791,-1.8008,-1.8008,-1.8008,-1.8008,-1.8008,-1.8008,-1.8008,-1.8008,-1.8008,-1.8008,-1.8008,-1.8008,-1.8008,-1.8008,-1.8008,-1.8008,-1.8008,-1.8008,-1.8008,-1.8008,-1.8008,-1.7676,-1.7383,-1.7383,-1.6692,-1.6046,0.0,0.0,-1.5361,0.0,-1.4961,-1.4727,-1.458,-1.3818,-1.3516,-1.4109,-1.3877,-1.4004,-1.4717,-1.4512,-1.46,-1.5176,-1.637,-1.7208,-1.7594,-1.8794,-1.9553,-1.9798,-2.0214,-2.0302,-2.0112,-2.1418,-2.1945,-2.1794,-2.2681,-2.2823,-2.2292,-2.2002,-2.169,-2.1289,-2.1106,-2.1501,-2.2238,-2.2894,-2.3828,-2.485,-2.541,-2.5996,-2.6461,-1.4962,-1.5339,-1.5069,-1.3564,-1.4319,-1.5586,-1.696,-1.7686,-1.8525,-1.9814,-2.0478,-2.1484,-2.314,-2.3516,-2.3531,-2.3328,-2.2818,-2.2144,-2.1188,-2.0406,-1.9713,-1.9269,-1.9425,-1.9087,-1.8212,-1.7123,-1.6347,-1.5898,-1.434,-1.3836,0.0,0.0,0.0,0.0,0.0,-1.7607,-1.7607,-1.7607,-1.7607,-1.7627,-1.79,-1.8174,-1.8354,-1.8115,-1.7939,-1.7842,-1.7969,-1.8008,-1.8008,-1.8008,-1.8008,-1.8008,-1.8008,-1.8008,-1.8008,-1.8008,-1.8008,-1.8008,-1.8008,-1.8008,-1.8008,-1.8008,-1.8008,-1.8008,-1.8008,-1.8008,-1.8008,-1.8008,-1.7793,-1.7607,-1.7607,-1.6894,-1.6299,0.0,0.0,-1.541,0.0,-1.5049,-1.4813,-1.4813,-1.416,-1.3919,-1.4502,-1.427,-1.4397,-1.5137,-1.4795,-1.4907,-1.5747,-1.6817,-1.7562,-1.7977,-1.9176,-1.9798,-1.9798,-2.0201,-2.0302,-2.0151,-2.1405,-2.1933,-2.1807,-2.2414,-2.2384,-2.1877,-2.1227,-2.0655,-2.0139,-2.0139,-2.0655,-2.1494,-2.2151,-2.3388,-2.4825,-2.5197,-2.5674,-2.6223,-1.5574,-1.6258,-1.6552,-1.5776,-1.5629,-1.6188,-1.7794,-1.8818,-1.9853,-2.1122,-2.2048,-2.2969,-2.3857,-2.4287,-2.3944,-2.26,-2.2546,-2.1815,-1.9943,-1.9878,-1.9395,-1.8174,-1.9278,-1.9184,-1.7585,-1.7839,-1.7705,-1.7243,-1.6257,0.0,0.0,0.0,0.0,0.0,-1.7613,0.0,-1.8008,-1.8008,-1.8008,-1.8008,-1.8008,-1.8018,-1.8037,-1.8018,-1.8237,-1.8549,-1.812,-1.8008,-1.8008,-1.8008,-1.8008,-1.8008,-1.8008,-1.8008,-1.8008,-1.8008,-1.8008,-1.8008,-1.8008,-1.8008,-1.8008,-1.8008,-1.8008,-1.8008,-1.8008,-1.8008,-1.8008,-1.8008,-1.8008,-1.8008,-1.8008,-1.7291,-1.6726,0.0,0.0,-1.541,-1.541,-1.5068,-1.4852,-1.4872,-1.4436,-1.4163,-1.4143,-1.4133,-1.4319,-1.4785,-1.4414,-1.4822,-1.6412,-1.6835,-1.755,-1.8712,-1.9436,-1.9811,-1.9849,-1.9849,-2.0125,-2.0704,-2.1257,-2.1782,-2.2293,-2.1983,-2.1854,-2.1753,-2.0042,-1.9276,-1.9233,-1.9233,-1.9781,-2.0687,-2.1522,-2.3052,-2.48,-2.485,-2.5222,-2.5724,-1.6837,-1.7571,-1.8042,-1.786,-1.7566,-1.7711,-1.8792,-1.9971,-2.1161,-2.2438,-2.3672,-2.4863,-2.6055,-2.6006,-2.531,-2.3918,-2.3063,-2.1955,-2.0509,-1.9572,-1.8941,-1.8622,-1.949,-1.9466,-1.8424,-1.8689,-1.8479,-1.7705,-1.6422,0.0,-1.6838,0.0,0.0,0.0,0.0,0.0,-1.8008,-1.8008,-1.8008,-1.8008,-1.8008,-1.8159,-1.8403,-1.8091,-1.8237,-1.8549,-1.812,-1.8008,-1.8008,-1.8008,-1.8008,-1.8008,-1.8008,-1.8008,-1.8008,-1.8008,-1.8008,-1.8008,-1.8008,-1.8008,-1.8008,-1.8008,-1.8008,-1.8008,-1.8008,-1.8008,-1.8008,-1.8008,-1.8008,-1.8008,-1.8008,-1.7578,-1.7109,-1.6755,-1.5966,-1.541,-1.541,-1.5322,-1.5371,-1.5723,-1.5352,-1.4961,-1.4648,-1.4619,-1.4795,-1.5215,-1.4853,-1.5179,-1.6433,-1.6835,-1.7737,-1.9325,-1.9645,-2.0012,-2.0465,-2.0465,-2.0541,-2.0704,-2.1257,-2.1782,-2.2293,-2.1554,-2.1117,-2.0878,-1.9792,-1.8944,-1.8337,-1.8337,-1.9243,-2.0623,-2.0846,-2.2519,-2.4888,-2.5737,-2.616,-2.6298,-1.7852,-1.8613,-1.9163,-1.9163,-1.9473,-1.9805,-2.0098,-2.0722,-2.1717,-2.3232,-2.4551,-2.5566,-2.6103,-2.6465,-2.5711,-2.3368,-2.235,-2.1133,-1.9542,-1.8752,-1.8226,-1.8016,-1.8964,-1.9067,-1.8245,-1.8718,-1.8923,-1.8761,-1.7807,0.0,-1.8358,0.0,0.0,0.0,0.0,-1.8115,-1.8237,-1.8052,-1.8081,-1.8237,-1.8086,-1.8154,0.0,-1.8105,-1.812,-1.8295,-1.8096,-1.8008,-1.8008,-1.8008,-1.8008,-1.8008,-1.8008,-1.8008,-1.8008,-1.8008,-1.8008,-1.8008,-1.8008,-1.8008,-1.8008,-1.8008,-1.8008,-1.8008,-1.8008,-1.8008,-1.8008,-1.8008,-1.8008,-1.8008,-1.8008,-1.7666,-1.7246,-1.6775,-1.6152,-1.5693,-1.5693,-1.5527,-1.5498,-1.5752,-1.5557,-1.5322,-1.5078,-1.5059,-1.5156,-1.5391,-1.5195,-1.563,-1.6912,-1.7396,-1.8402,-2.0019,-2.0613,-2.0941,-2.1056,-2.1056,-2.1056,-2.1056,-2.137,-2.1782,-2.2264,-2.1276,-2.0731,-2.0526,-1.9276,-1.8462,-1.8008,-1.8008,-1.9044,-2.0709,-2.1704,-2.3361,-2.5234,-2.585,-2.6273,-2.6524,-1.8617,-1.9426,-2.0011,-1.9932,-2.1055,-2.1855,-2.1492,-2.1639,-2.234,-2.3926,-2.5215,-2.584,-2.5497,-2.6328,-2.552,-2.208,-2.1204,-1.9958,-1.7874,-1.7607,-1.7316,-1.6841,-1.8168,-1.8513,-1.7683,-1.8571,-1.9351,-2.0,-1.9521,0.0,0.0,0.0,0.0,0.0,0.0,0.0,0.0,-1.8217,-1.8266,-1.8568,-1.8149,-1.8047,-1.8086,-1.8037,-1.8008,-1.8008,-1.8008,-1.8008,-1.8008,-1.8008,-1.8047,-1.8086,-1.8027,-1.8047,-1.8086,-1.8027,-1.8008,-1.8008,-1.8008,-1.8047,-1.8076,-1.8018,-1.8047,-1.8076,-1.8018,-1.8008,-1.8008,-1.8008,-1.8008,-1.8008,-1.8008,-1.7666,-1.7256,-1.6853,-1.6445,-1.6183,-1.6183,-1.583,-1.5586,-1.5586,-1.5537,0.0,-1.5498,-1.5449,-1.5439,-1.5555,-1.5496,-1.6185,-1.7778,-1.8289,-1.9272,-2.0851,-2.1744,-2.2046,-2.1707,-2.1556,-2.1556,-2.1707,-2.1556,-2.175,-2.2217,-2.1024,-2.047,-2.0333,-1.8721,-1.8008,-1.8018,-1.8066,-1.9168,-2.0976,-2.2955,-2.4486,-2.5586,-2.5523,-2.59,-2.6575,-1.916,-2.0166,-2.0732,-2.0039,-2.1289,-2.25,-2.2783,-2.4033,-2.5138,-2.584,-2.6748,-2.7295,-2.7268,-2.6787,-2.5333,-2.244,-2.1537,-1.9927,-1.7088,-1.6695,-1.6395,-1.6035,-1.8172,-1.897,-1.8126,-1.9866,-2.0651,-2.0488,-1.9705,0.0,0.0,0.0,0.0,0.0,0.0,0.0,-1.8598,-1.852,-1.8539,-1.8568,-1.8149,-1.8213,-1.8451,-1.8144,-1.8008,-1.8008,-1.8008,-1.8008,-1.8008,-1.8008,-1.8208,-1.8432,-1.8081,-1.8217,-1.8422,-1.8115,-1.8008,-1.8008,-1.8008,-1.8227,-1.8412,-1.8096,-1.8237,-1.8403,-1.8086,-1.8008,-1.8008,-1.8008,-1.8008,-1.8008,-1.8008,-1.7666,-1.7363,-1.7285,-1.6904,-1.658,-1.658,-1.6521,-1.6473,-1.6473,-1.6172,-1.5977,-1.5977,-1.5625,-1.5642,-1.6265,-1.6015,-1.683,-1.9112,-1.8978,-1.9806,-2.1954,-2.1769,-2.202,-2.2807,-2.1945,-2.1945,-2.2807,-2.192,-2.1663,-2.192,-2.0568,-1.9798,-1.9464,-1.8428,-1.8008,-1.8037,-1.8354,-1.9775,-2.1778,-2.2146,-2.3634,-2.5548,-2.5109,-2.5598,-2.6575,-2.0293,-2.0986,-2.1572,-2.1541,-2.2471,-2.3477,-2.4365,-2.54,-2.5898,-2.543,-2.5928,-2.5973,-2.5038,-2.5814,-2.5202,-2.2247,-2.1395,-2.0069,-1.7881,-1.6669,-1.5979,-1.5791,-1.6929,-1.7758,-1.8181,-1.8702,-1.9506,-2.0605,-1.9744,-1.9349,0.0,0.0,0.0,0.0,0.0,-1.8975,0.0,-1.8695,-1.8734,-1.8955,-1.875,-1.8652,-1.8578,-1.8373,-1.8295,-1.8266,-1.8052,-1.8291,-1.8633,-1.8373,-1.8588,-1.8936,-1.874,-1.8652,-1.8559,-1.8354,-1.8295,-1.8256,-1.8066,-1.8486,-1.8867,-1.8403,-1.8451,-1.8549,-1.8344,-1.8164,-1.8008,-1.8008,-1.8008,-1.8008,-1.8008,-1.7842,-1.7705,-1.7705,-1.7353,-1.707,-1.707,-1.6843,-1.6697,-1.6697,-1.6543,-1.6318,-1.6114,-1.5909,-1.5802,-1.5912,-1.6105,-1.703,-1.8917,-1.9424,-2.0487,-2.2243,-2.2623,-2.2899,-2.3108,-2.2581,-2.2443,-2.2669,-2.2171,-2.1736,-2.14,-2.0608,-1.9888,-1.9233,-1.8371,-1.8008,-1.8071,-1.8923,-2.053,-2.2465,-2.2577,-2.4046,-2.6009,-2.5423,-2.5749,-2.6575,-2.1631,-2.206,-2.2627,-2.3247,-2.3926,-2.4629,-2.5469,-2.6045,-2.6045,-2.5098,-2.5195,-2.4718,-2.2964,-2.462,-2.4705,-2.1929,-2.0958,-1.9981,-1.8803,-1.6973,-1.5844,-1.5784,-1.6062,-1.6849,-1.8287,-1.7721,-1.8526,-2.0742,-1.9844,-1.9702,-2.0235,0.0,0.0,0.0,0.0,-1.9512,-1.9394,-1.9017,-1.9102,-1.9414,-1.9316,-1.9141,-1.8861,-1.8773,-1.8734,-1.8695,-1.8398,-1.8769,-1.9365,-1.8987,-1.9131,-1.9404,-1.9316,-1.9111,-1.8841,-1.8656,-1.8666,-1.8646,-1.8252,-1.8769,-1.9316,-1.8851,-1.8734,-1.8715,-1.8627,-1.8276,-1.8008,-1.8008,-1.8008,-1.8008,-1.8008,-1.8008,-1.8008,-1.8008,-1.7734,-1.7519,-1.7519,-1.7217,-1.6902,-1.6726,-1.6697,-1.6482,-1.6007,-1.5958,-1.5811,-1.5439,-1.6185,-1.7316,-1.8805,-1.9824,-2.0964,-2.2268,-2.3175,-2.3477,-2.3108,-2.3108,-2.2945,-2.2673,-2.2359,-2.18,-2.1035,-2.0621,-2.0018,-1.9266,-1.8571,-1.833,-1.8487,-1.9507,-2.1164,-2.3041,-2.3255,-2.4633,-2.6424,-2.5812,-2.5996,-2.6527,-2.2953,-2.3633,-2.4199,-2.4287,-2.5322,-2.5918,-2.5282,-2.585,-2.6484,-2.6738,-2.6475,-2.5724,-2.4267,-2.404,-2.332,-2.1853,-2.0252,-1.9169,-1.8712,-1.7169,-1.6112,-1.5791,-1.6897,-1.7919,-1.8733,-1.9039,-1.9824,-2.1132,-2.0283,-1.9631,-1.9155,0.0,0.0,-1.999,-2.0303,-2.0225,-1.9853,-1.9814,-1.9814,-1.9824,-1.9443,-1.9492,-1.9756,-1.9365,-1.9228,-1.9219,-1.918,-1.9463,-1.9853,-1.9805,-1.9824,-1.9785,-1.9404,-1.9521,-1.9602,-1.8831,-1.8916,-1.9131,-1.8666,-1.9163,-1.9756,-1.9336,-1.9228,-1.9121,-1.8695,-1.8276,-1.8008,-1.8008,-1.8008,-1.8008,-1.8008,-1.8008,-1.8008,-1.8008,-1.7978,-1.7949,-1.7949,-1.792,-1.7607,-1.6794,-1.6697,-1.6365,-1.5557,-1.5469,-1.5459,-1.5391,-1.6471,-1.8046,-2.0115,-2.0214,-2.0865,-2.2268,-2.241,-2.2656,-2.3095,-2.3108,-2.3346,-2.3841,-2.2554,-2.1654,-2.1162,-2.035,-1.9708,-1.9305,-1.9206,-1.9385,-1.9752,-1.9968,-2.1404,-2.343,-2.3475,-2.4713,-2.6424,-2.5812,-2.5996,-2.6396,-2.4264,-2.4365,-2.4668,-2.5459,-2.5596,-2.5703,-2.583,-2.5937,-2.5749,-2.5077,-2.4905,-2.4236,-2.2883,-2.2397,-2.1967,-2.1321,-2.0362,-2.0022,-2.0651,-1.8477,-1.7079,-1.6951,-1.6716,-1.7242,-1.8782,-1.8463,-1.9265,-2.119,-2.0313,-1.9898,-1.9962,-1.9548,-1.9357,-1.9386,-1.9937,-2.0078,-1.9912,-1.9912,-1.9912,-1.9922,-2.0019,-2.0,-1.9893,-1.9727,-1.9668,-1.9629,-1.9375,-1.9727,-2.0264,-2.0,-2.0088,-2.0225,-1.9795,-1.9609,-1.9473,-1.9121,-1.915,-1.9248,-1.9072,-1.9658,-2.0195,-1.9766,-1.9668,-1.9619,-1.9407,-1.8841,-1.8354,-1.8354,-1.8184,-1.8008,-1.8008,-1.8008,-1.8008,-1.8008,-1.8188,-1.8266,-1.8047,-1.8223,-1.8032,-1.7227,-1.7119,-1.6875,-1.6229,-1.5957,-1.5918,-1.6151,-1.6543,-1.7514,-1.9183,-1.9929,-2.0778,-2.1779,-2.2431,-2.2732,-2.2606,-2.2945,-2.3096,-2.3079,-2.2532,-2.178,-2.0842,-2.0495,-1.9951,-1.9277,-1.9014,-1.9141,-1.9585,-2.025,-2.1558,-2.3221,-2.4061,-2.5239,-2.6461,-2.6235,-2.5896,-2.5546,-2.5352,-2.5215,-2.5371,-2.6553,-2.6143,-2.581,-2.6309,-2.6133,-2.5369,-2.3908,-2.3384,-2.2574,-2.1107,-2.0764,-2.067,-2.0859,-2.0045,-2.022,-2.1887,-1.9303,-1.7692,-1.7692,-1.648,-1.674,-1.8782,-1.8142,-1.8915,-2.119,-2.0478,-2.0264,-2.0566,-1.9805,-1.9481,-1.9511,-1.9928,-2.0107,-2.0107,-2.0107,-2.0107,-2.0127,-2.0478,-2.0381,-2.0107,-2.0107,-2.0107,-2.0068,-1.9766,-2.0096,-2.0556,-2.0215,-2.0312,-2.0527,-2.0049,-1.9795,-1.9609,-1.9365,-1.9463,-1.9639,-1.9502,-1.9811,-2.0129,-2.0099,-1.9773,-1.9496,-1.9681,-1.9124,-1.8568,-1.8442,-1.8213,-1.8008,-1.8008,-1.8008,-1.8008,-1.8008,-1.8325,-1.8451,-1.8066,-1.8334,-1.8237,-1.7305,-1.7197,-1.7021,-1.6582,-1.6281,-1.6281,-1.6668,-1.6598,-1.7235,-1.8827,-1.9599,-2.0553,-2.1691,-2.2456,-2.2757,-2.2531,-2.2786,-2.287,-2.2734,-2.2197,-2.1517,-2.0765,-2.0659,-2.0266,-1.9639,-1.9199,-1.9258,-1.976,-2.0946,-2.2078,-2.3223,-2.4814,-2.5873,-2.6452,-2.6164,-2.5616,-2.4933,-2.6201,-2.6367,-2.6641,-2.7552,-2.7285,-2.6855,-2.6455,-2.6387,-2.5754,-2.3945,-2.2567,-2.1115,-1.9388,-1.925,-1.9606,-2.0514,-1.9072,-1.9257,-2.1841,-1.9303,-1.7692,-1.7692,-1.648,-1.6786,-1.8835,-1.8431,-1.9175,-2.119,-2.0781,-2.0595,-2.0605,-2.0605,-2.0566,-2.0566,-2.0595,-2.0595,-2.0595,-2.0595,-2.0595,-2.0595,-2.0605,-2.0595,-2.0595,-2.0595,-2.0595,-2.0595,-2.0595,-2.0595,-2.0605,-2.0595,-2.0595,-2.0527,-2.0049,-2.0205,-2.0429,-1.9541,-1.992,-2.0488,-2.0019,-1.9475,-1.9274,-2.0313,-1.9446,-1.8492,-1.9165,-1.8955,-1.8481,-1.8105,-1.8018,-1.8008,-1.8008,-1.8008,-1.8008,-1.8008,-1.8325,-1.8451,-1.8066,-1.8334,-1.813,-1.6863,-1.6707,-1.6562,-1.6144,-1.6095,-1.6281,-1.6668,-1.6697,-1.7624,-1.9775,-1.94,-2.0082,-2.2226,-2.2309,-2.2556,-2.3095,-2.2693,-2.2758,-2.3266,-2.1483,-2.0833,-2.1172,-2.0791,-2.0586,-2.0566,-2.0088,-2.0146,-2.0701,-2.223,-2.3113,-2.3697,-2.5687,-2.6499,-2.6383,-2.537,-2.5004,-2.4707,-2.6269,-2.6387,-2.6475,-2.6748,-2.668,-2.6445,-2.6006,-2.517,-2.3935,-2.2223,-2.1795,-2.0968,-1.9064,-1.8024,-1.7846,-1.8824,-1.8996,-1.9393,-2.022,-2.0192,-1.9405,-1.7777,-1.7774,-1.8171,-1.8819,-1.8956,-1.9711,-2.119,-2.0781,-2.0605,-2.0605,-2.0605,-2.0605,-2.0605,-2.0605,-2.0605,-2.0605,-2.0605,-2.0605,-2.0605,-2.0605,-2.0605,-2.0605,-2.0605,-2.0605,-2.0605,-2.0605,-2.0605,-2.0605,-2.0605,-2.0605,-2.0527,-2.0049,-2.001,-2.0068,-1.9795,-1.9912,-2.0156,-2.0312,-1.9701,-1.9076,-1.9402,-1.9143,-1.881,-1.9051,-1.9097,-1.8877,-1.8164,-1.8008,-1.8008,-1.8008,-1.8008,-1.8008,-1.8008,-1.8325,-1.8451,-1.8066,-1.8334,-1.8237,-1.7295,-1.7178,-1.7119,-1.7005,-1.6689,-1.691,-1.7869,-1.7369,-1.7722,-1.9253,-1.9545,-2.0291,-2.17,-2.2862,-2.3321,-2.3108,-2.3055,-2.2988,-2.2866,-2.1629,-2.0946,-2.0801,-2.0653,-2.0605,-2.0576,-2.0098,-1.999,-2.0221,-2.1382,-2.2349,-2.3246,-2.4862,-2.5658,-2.5817,-2.5207,-2.4508,-2.3698,-2.6338,-2.6387,-2.6387,-2.6387,-2.625,-2.6055,-2.5732,-2.4559,-2.3084,-2.1394,-2.1018,-2.0323,-1.8863,-1.7484,-1.726,-1.875,-1.9241,-1.967,-2.0169,-2.044,-2.0169,-1.9085,-1.9048,-1.9115,-1.9226,-1.9498,-2.0075,-2.0986,-2.0703,-2.0605,-2.0605,-2.0605,-2.0605,-2.0605,-2.0605,-2.0605,-2.0605,-2.0605,-2.0605,-2.0605,-2.0605,-2.0605,-2.0605,-2.0605,-2.0605,-2.0605,-2.0605,-2.0605,-2.0605,-2.0605,-2.0605,-2.0556,-2.0244,-2.0156,-2.0127,-1.9961,-2.0029,-2.0215,-2.0527,-1.9805,-1.9116,-1.9481,-1.9323,-1.9003,-1.9101,-1.9087,-1.8848,-1.8154,-1.8008,-1.8008,-1.8008,-1.8008,-1.8008,-1.8008,-1.8325,-1.8403,-1.7852,-1.8237,-1.8227,-1.7256,-1.7285,-1.7383,-1.7383,-1.7139,-1.7461,-1.8708,-1.8469,-1.8842,-2.0087,-2.0102,-2.0813,-2.2393,-2.3452,-2.386,-2.3519,-2.3221,-2.2842,-2.2441,-2.1422,-2.0845,-2.0605,-2.0605,-2.0605,-2.0586,-2.0273,-2.0156,-2.0232,-2.1209,-2.2013,-2.2702,-2.3957,-2.4686,-2.5018,-2.4363,-2.3766,-2.32,-2.6338,-2.6338,-2.6338,-2.6338,-2.6006,-2.5693,-2.5693,-2.4559,-2.3084,-2.1394,-2.0354,-1.9453,-1.8765,-1.7655,-1.7815,-1.9909,-1.9649,-1.9807,-2.0836,-2.0124,-2.0034,-2.1025,-2.0189,-1.9794,-2.0003,-2.0042,-2.0249,-2.0605,-2.0605,-2.0605,-2.0605,-2.0605,-2.0605,-2.0605,-2.0605,-2.0605,-2.0605,-2.0605,-2.0605,-2.0605,-2.0605,-2.0605,-2.0605,-2.0605,-2.0605,-2.0605,-2.0605,-2.0605,-2.0605,-2.0605,-2.0605,-2.0605,-2.0605,-2.0605,-2.0527,-2.0078,-2.0244,-2.0605,-2.0605,-1.9805,-1.9244,-2.0245,-1.9717,-1.9081,-1.929,-1.8994,-1.8529,-1.8144,-1.8037,-1.8008,-1.8008,-1.8008,-1.8008,-1.8008,-1.8305,-1.8286,-1.7539,-1.8105,-1.812,-1.6931,-1.7178,-1.7432,-1.7432,-1.7432,-1.7965,-1.93,-1.9866,-2.0687,-2.1992,-2.1099,-2.1612,-2.3923,-2.4067,-2.4131,-2.4185,-2.3256,-2.2488,-2.1886,-2.1011,-2.0605,-2.0605,-2.0635,-2.0644,-2.0654,-2.0683,-2.0674,-2.0722,-2.1599,-2.2014,-2.2113,-2.3113,-2.3757,-2.4006,-2.3083,-2.2968,-2.3143,-2.5889,-2.5889,-2.5889,-2.5889,-2.5762,-2.5693,-2.5693,-2.4559,-2.3084,-2.1394,-2.0974,-2.0273,-1.8841,-1.9037,-1.9502,-2.0025,-1.8877,-1.7809,-1.7156,-1.9451,-2.0187,-1.8634,-2.0634,-2.1213,-2.0045,-2.0604,-2.0824,-2.0605,-2.0605,-2.0605,-2.0605,-2.0605,-2.0605,-2.0605,-2.0605,-2.0605,-2.0605,-2.0605,-2.0605,-2.0605,-2.0605,-2.0605,-2.0605,-2.0605,-2.0605,-2.0605,-2.0605,-2.0605,-2.0605,-2.0605,-2.0605,-2.0605,-2.0605,-2.0605,-2.0586,-2.0478,-2.0517,-2.0605,-2.0605,-1.9805,-1.9076,-1.9323,-1.9204,-1.9146,-1.9657,-1.9434,-1.9014,-1.8539,-1.8198,-1.8008,-1.8008,-1.8008,-1.8008,-1.8008,-1.8096,-1.8086,-1.7891,-1.8037,-1.8013,-1.7744,-1.7793,-1.7861,-1.7861,-1.7861,-1.8542,-2.016,-2.0411,-2.1367,-2.338,-2.2561,-2.2628,-2.396,-2.4782,-2.4904,-2.4197,-2.3598,-2.2519,-2.0934,-2.0712,-2.0605,-2.0615,-2.0918,-2.1074,-2.1094,-2.1426,-2.1387,-2.1103,-2.1658,-2.1966,-2.2101,-2.2988,-2.3416,-2.3472,-2.3244,-2.3166,-2.3064,-2.5693,-2.5693,-2.5693,-2.5693,-2.5693,-2.5693,-2.5693,-2.4048,-2.2379,-2.1345,-2.0114,-1.9399,-1.9552,-1.9351,-1.9657,-2.0881,-1.948,-1.8449,-1.8341,-2.0169,-2.0953,-2.0187,-2.1836,-2.2279,-2.1151,-2.1399,-2.1211,-2.0605,-2.0605,-2.0605,-2.0605,-2.0605,-2.0605,-2.0605,-2.0605,-2.0605,-2.0605,-2.0605,-2.0605,-2.0605,-2.0605,-2.0605,-2.0605,-2.0605,-2.0605,-2.0605,-2.0605,-2.0605,-2.0605,-2.0605,-2.0605,-2.0605,-2.0605,-2.0605,-2.0605,-2.0605,-2.0605,-2.0605,-2.0605,-2.0157,-1.9717,-1.9717,-1.9717,-1.977,-1.9858,-1.9736,-1.9453,-1.9023,-1.8594,-1.8256,-1.8256,-1.81,-1.8008,-1.8008,-1.8008,-1.7939,-1.7744,-1.7891,-1.7939,-1.7744,-1.8057,-1.8256,-1.8256,-1.8477,-1.9157,-2.0494,-2.0824,-2.1643,-2.324,-2.3293,-2.3545,-2.4083,-2.4887,-2.4742,-2.3531,-2.302,-2.2241,-2.1212,-2.0967,-2.0977,-2.1212,-2.1211,-2.1307,-2.1543,-2.1787,-2.1748,-2.1553,-2.1787,-2.1907,-2.2006,-2.2493,-2.2767,-2.2939,-2.2939,-2.3006,-2.3062,-2.5693,-2.5693,-2.5693,-2.5693,-2.5693,-2.5693,-2.5693,-2.3791,-2.2146,-2.1618,-1.9358,-1.852,-2.0418,-1.912,-1.9138,-2.1651,-2.0594,-2.0124,-2.098,-2.1203,-2.1756,-2.2775,-2.3003,-2.2896,-2.2519,-2.2041,-2.1256,-2.0118,-2.044,-2.0527,-2.0362,-2.0527,-2.0605,-2.0605,-2.0605,-2.0605,-2.0605,-2.0605,-2.0605,-2.0605,-2.0605,-2.0605,-2.0605,-2.0605,-2.0605,-2.0605,-2.0605,-2.0605,-2.0605,-2.0605,-2.0605,-2.0605,-2.0605,-2.0605,-2.0605,-2.0605,-2.0605,-2.0605,-2.0605,-2.0605,-2.0605,-2.0605,-2.0605,-2.0507,-2.0098,-1.9961,-1.9814,-1.9453,-1.9043,-1.8676,-1.8617,-1.8315,-1.8086,-1.8018,-1.8008,-1.7881,-1.7529,-1.7783,-1.79,-1.7607,-1.8169,-1.8627,-1.8695,-1.9121,-1.9796,-2.073,-2.1303,-2.1955,-2.2811,-2.3608,-2.4145,-2.4319,-2.4898,-2.4508,-2.3059,-2.2271,-2.1885,-2.1885,-2.1514,-2.1523,-2.1875,-2.1572,-2.1631,-2.1982,-2.1982,-2.1982,-2.1982,-2.1982,-2.1943,-2.1894,-2.2031,-2.2256,-2.2519,-2.2578,-2.2789,-2.3091,-2.5693,-2.5693,-2.5693,-2.5693,-2.5693,-2.5693,-2.5693,-2.5333,-2.4639,-2.3453,-2.1694,-2.0573,-2.0611,-1.912,-1.8981,-2.1239,-2.115,-2.0666,-1.9852,-2.0747,-2.1382,-2.1569,-2.2536,-2.2896,-2.2519,-2.1697,-2.0173,-1.7819,-1.9668,-2.0118,-1.9283,-2.0167,-2.0605,-2.0605,-2.0605,-2.0605,-2.0605,-2.0605,-2.0605,-2.0605,-2.0605,-2.0605,-2.0605,-2.0605,-2.0605,-2.0605,-2.0605,-2.0605,-2.0605,-2.0605,-2.0605,-2.0605,-2.0605,-2.0605,-2.0605,-2.0605,-2.0605,-2.0605,-2.0605,-2.0605,-2.0605,-2.0605,-2.0605,-2.0586,-2.0517,-2.0176,-1.9893,-1.9824,-1.9482,-1.9072,-1.8666,-1.8549,-1.8393,-1.8066,-1.8008,-1.7988,-1.793,-1.7969,-1.8081,-1.8373,-1.852,-1.8744,-1.915,-1.957,-2.0364,-2.1684,-2.222,-2.3065,-2.4382,-2.3806,-2.3867,-2.4849,-2.5788,-2.5745,-2.4648,-2.2828,-2.1885,-2.1885,-2.1816,-2.1816,-2.1894,-2.2187,-2.2353,-2.2412,-2.2412,-2.2412,-2.2412,-2.2412,-2.2207,-2.1953,-2.2666,-2.2721,-2.2559,-2.2867,-2.3042,-2.3091,-2.5693,-2.5693,-2.5693,-2.5693,-2.5693,-2.5693,-2.5693,-2.5079,-2.4402,-2.3791,-2.2231,-2.1308,-2.1531,-2.0737,-2.0781,-2.2157,-2.2262,-2.2041,-2.1498,-2.1943,-2.2262,-2.2262,-2.2818,-2.251,-2.1287,-2.0225,-1.92,-1.823,-1.9234,-1.9766,-1.9883,-2.0362,-2.0605,-2.0605,-2.0605,-2.0605,-2.0605,-2.0605,-2.0605,-2.0605,-2.0605,-2.0605,-2.0605,-2.0605,-2.0605,-2.0605,-2.0605,-2.0605,-2.0605,-2.0605,-2.0605,-2.0605,-2.0605,-2.0605,-2.0605,-2.0605,-2.0605,-2.0605,-2.0605,-2.0605,-2.0605,-2.0605,-2.0605,-2.0605,-2.0605,-2.0449,-2.0264,-2.0264,-1.9922,-1.9561,-1.9329,-1.8909,-1.8617,-1.8691,-1.8311,-1.8086,-1.8286,-1.8315,-1.8471,-1.8936,-1.9394,-1.9853,-2.0293,-2.0723,-2.1243,-2.1909,-2.215,-2.2656,-2.3494,-2.3124,-2.3226,-2.3961,-2.481,-2.5121,-2.4886,-2.3323,-2.2559,-2.2559,-2.2334,-2.2344,-2.2559,-2.2529,-2.2637,-2.2808,-2.2808,-2.2808,-2.2808,-2.2808,-2.2691,-2.2598,-2.2945,-2.2974,-2.2828,-2.3023,-2.3091,-2.3091,-2.5693,-2.5693,-2.5693,-2.5693,-2.5693,-2.5693,-2.5693,-2.4815,-2.4146,-2.4146,-2.2763,-2.208,-2.2937,-2.2571,-2.252,-2.3198,-2.3247,-2.3198,-2.3101,-2.3091,-2.3091,-2.3091,-2.2818,-2.1649,-1.9443,-1.8751,-1.8229,-1.7859,-1.8638,-1.9274,-1.9835,-2.0362,-2.0605,-2.0605,-2.0605,-2.0605,-2.0605,-2.0605,-2.0605,-2.0605,-2.0605,-2.0605,-2.0605,-2.0605,-2.0605,-2.0605,-2.0605,-2.0605,-2.0605,-2.0605,-2.0605,-2.0605,-2.0605,-2.0605,-2.0605,-2.0605,-2.0605,-2.0605,-2.0605,-2.0605,-2.0605,-2.0605,-2.0605,-2.0605,-2.0605,-2.0605,-2.0605,-2.0605,-2.0303,-2.0029,-1.9932,-1.9338,-1.8978,-1.9248,-1.874,-1.8418,-1.8705,-1.8831,-1.9065,-1.9531,-2.0302,-2.0898,-2.1307,-2.1777,-2.2031,-2.2031,-2.2119,-2.2314,-2.2604,-2.2656,-2.2769,-2.3081,-2.3639,-2.4242,-2.4787,-2.3681,-2.3091,-2.3091,-2.2769,-2.2779,-2.3081,-2.276,-2.2789,-2.3091,-2.2994,-2.3003,-2.3091,-2.2984,-2.3013,-2.3091,-2.3091,-2.3091,-2.3091,-2.3091,-2.3091,-2.3091,-2.5693,-2.5693,-2.5693,-2.5693,-2.5693,-2.5693,-2.5693,-2.5635,-2.5538,-2.5538,-2.4375,-2.3895,-2.4821,-2.3706,-2.3136,-2.3719,-2.374,-2.3574,-2.312,-2.3091,-2.3091,-2.3091,-2.2031,-2.0077,-1.7121,-1.794,-1.7091,-1.4454,-1.7496,-1.851,-1.7577,-1.9638,-2.0605,-2.0605,-2.0605,-2.0605,-2.0605,-2.0605,-2.0605,-2.0605,-2.0605,-2.0605,-2.0605,-2.0605,-2.0605,-2.0605,-2.0605,-2.0605,-2.0605,-2.0605,-2.0605,-2.0605,-2.0605,-2.0605,-2.0605,-2.0605,-2.0605,-2.0605,-2.0605,-2.0605,-2.0605,-2.0605,-2.0605,-2.0605,-2.0605,-2.0605,-2.0605,-2.0605,-2.0576,-2.0429,-1.999,-1.9863,-1.9697,-1.9346,-1.9238,-1.9209,-1.9238,-1.958,-1.998,-2.0458,-2.0889,-2.1357,-2.1797,-2.2217,-2.2471,-2.2471,-2.2779,-2.3013,-2.3052,-2.3052,-2.3062,-2.3091,-2.3149,-2.3684,-2.4787,-2.3681,-2.3091,-2.3091,-2.3062,-2.3062,-2.3091,-2.3062,-2.3062,-2.3071,-2.2734,-2.2783,-2.3062,-2.2715,-2.274,-2.3091,-2.3091,-2.3091,-2.3091,-2.3091,-2.3091,-2.3091,-2.5742,-2.5693,-2.5693,-2.5693,-2.5693,-2.5693,-2.5693,-2.5693,-2.5693,-2.5693,-2.5274,-2.4654,-2.3875,-2.3338,-2.2876,-2.2602,-2.2583,-2.2732,-2.3076,-2.3091,-2.2775,-2.2031,-2.0133,-1.8443,-1.7071,-1.6529,-1.6002,-1.534,-1.7073,-1.8109,-1.839,-1.9883,-2.0605,-2.0605,-2.0605,-2.0605,-2.0605,-2.0605,-2.0605,-2.0605,-2.0605,-2.0605,-2.0605,-2.0605,-2.0605,-2.0605,-2.0605,-2.0605,-2.0605,-2.0605,-2.0605,-2.0605,-2.0605,-2.0752,-2.0977,-2.0977,-2.0781,-2.0605,-2.0605,-2.0605,-2.0605,-2.0605,-2.0781,-2.0908,-2.0664,-2.0781,-2.0898,-2.0664,-2.0791,-2.0928,-2.0722,-2.0508,-2.0439,-2.084,-2.0205,-1.9873,-2.042,-2.0596,-2.0898,-2.1328,-2.1768,-2.2146,-2.2617,-2.2769,-2.2857,-2.2857,-2.3003,-2.3091,-2.3091,-2.3091,-2.3091,-2.3091,-2.3091,-2.3299,-2.3757,-2.3299,-2.3091,-2.3091,-2.3091,-2.3091,-2.3091,-2.3091,-2.3091,-2.3081,-2.2925,-2.2945,-2.3038,-2.2145,-2.1847,-2.1987,-2.1987,-2.1987,-2.2076,-2.2818,-2.3091,-2.3222,-2.6152,-2.5727,-2.5569,-2.6034,-2.5727,-2.5569,-2.6034,-2.6025,-2.5947,-2.5947,-2.5771,-2.5062,-2.341,-2.3228,-2.272,-2.1515,-2.1779,-2.2117,-2.253,-2.2183,-2.1587,-2.0755,-1.8772,-1.7389,-1.6639,-1.5638,-1.5339,-1.5749,-1.7001,-1.7993,-1.8663,-2.0254,-2.0869,-2.0615,-2.0752,-2.0742,-2.0605,-2.0605,-2.0605,-2.0615,-2.0723,-2.0781,-2.0791,-2.0967,-2.0938,-2.0791,-2.0967,-2.0928,-2.0791,-2.0967,-2.1016,-2.1016,-2.1016,-2.1191,-2.1375,-2.1239,-2.1113,-2.0987,-2.081,-2.0918,-2.0987,-2.085,-2.1113,-2.1357,-2.1055,-2.1221,-2.1348,-2.1085,-2.1221,-2.1405,-2.1405,-2.1182,-2.1222,-2.1787,-2.1123,-2.0752,-2.1357,-2.1512,-2.1748,-2.2051,-2.2451,-2.2822,-2.3062,-2.3091,-2.3091,-2.3091,-2.3091,-2.3091,-2.3091,-2.343,-2.3464,-2.3091,-2.3091,-2.3091,-2.3091,-2.3091,-2.3091,-2.3091,-2.3091,-2.3091,-2.3091,-2.3091,-2.3091,-2.3091,-2.3091,-2.3091,-2.3003,-2.18,-2.1293,-2.1293,-2.1293,-2.1293,-2.1436,-2.2633,-2.3343,-2.3757,-2.7012,-2.5834,-2.5246,-2.6746,-2.5773,-2.5298,-2.6746,-2.666,-2.6396,-2.6396,-2.6016,-2.5177,-2.385,-2.3692,-2.2867,-2.078,-2.1687,-2.2075,-2.1347,-2.0169,-1.9497,-1.9497,-1.8319,-1.6986,-1.545,-1.5398,-1.5257,-1.5015,-1.7252,-1.8191,-1.7862,-2.061,-2.1416,-2.0596,-2.1005,-2.0947,-2.0615,-2.0605,-2.0615,-2.0654,-2.1055,-2.119,-2.1249,-2.1719,-2.1621,-2.1259,-2.1728,-2.1611,-2.1268,-2.1738,-2.1885,-2.1885,-2.1894,-2.1885,-2.1807,-2.1327,-2.1553,-2.1787,-2.1317,-2.1562,-2.1787,-2.1307,-2.1562,-2.1894,-2.1885,-2.1885,-2.1894,-2.1885,-2.1885,-2.1894,-2.1894,-2.1894,-2.1894,-2.1894,-2.1894,-2.1894,-2.1894,-2.2256,-2.2519,-2.2519,-2.2838,-2.3091,-2.3091,-2.3091,-2.3091,-2.3091,-2.3091,-2.3091,-2.3091,-2.4168,-2.4253,-2.3135,-2.3091,-2.3091,-2.3091,-2.3091,-2.3091,-2.3091,-2.3091,-2.3091,-2.3091,-2.3091,-2.3091,-2.3091,-2.3091,-2.3091,-2.3003,-2.18,-2.1293,-2.1293,-2.1293,-2.1293,-2.1426,-2.2633,-2.3844,-2.4787,-2.707,-2.5834,-2.5246,-2.6746,-2.5773,-2.5298,-2.6746,-2.6904,-2.6826,-2.6826,-2.6455,-2.5308,-2.298,-2.2477,-2.1519,-1.9621,-2.0435,-2.145,-2.2504,-2.1436,-2.0395,-1.9542,-1.7483,-1.6156,-1.5698,-1.5504,-1.5351,-1.5264,-1.6536,-1.7067,-1.7011,-1.858,-1.916,-1.8944,-1.9946,-2.0311,-2.0214,-2.0782,-2.1211,-2.1475,-2.1259,-2.1416,-2.1709,-2.1836,-2.1807,-2.1709,-2.1836,-2.1807,-2.1709,-2.1846,-2.1885,-2.1934,-2.2236,-2.2129,-2.1924,-2.208,-2.2012,-2.1855,-2.1728,-2.2002,-2.2217,-2.1797,-2.2012,-2.2246,-2.1953,-2.2119,-2.2246,-2.1953,-2.2119,-2.2324,-2.2324,-2.2324,-2.2422,-2.2715,-2.2519,-2.2432,-2.2682,-2.2828,-2.2906,-2.2906,-2.3023,-2.3091,-2.3091,-2.3091,-2.3091,-2.3091,-2.3091,-2.3091,-2.3091,-2.342,-2.3464,-2.3091,-2.3091,-2.3091,-2.3091,-2.3091,-2.3091,-2.3091,-2.3091,-2.3091,-2.3091,-2.3091,-2.3091,-2.3091,-2.3091,-2.3091,-2.3003,-2.18,-2.08,-2.0124,-2.098,-2.08,-2.0305,-2.2359,-2.3844,-2.4914,-2.7568,-2.5828,-2.4907,-2.6374,-2.5386,-2.4898,-2.6426,-2.6991,-2.7275,-2.7275,-2.6758,-2.5547,-2.3349,-2.274,-2.1762,-2.0011,-2.0564,-2.1689,-2.3295,-2.1625,-2.026,-1.9534,-1.7623,-1.6574,-1.6574,-1.5886,-1.6016,-1.7011,-1.704,-1.7183,-1.7489,-1.833,-1.8775,-1.8931,-1.9856,-2.0443,-2.0759,-2.1255,-2.1641,-2.1875,-2.1777,-2.1894,-2.2148,-2.2314,-2.2275,-2.2158,-2.2324,-2.2275,-2.2158,-2.2324,-2.2383,-2.2432,-2.2676,-2.2588,-2.2402,-2.249,-2.2451,-2.2344,-2.2178,-2.2441,-2.2705,-2.2441,-2.2578,-2.2652,-2.2441,-2.2578,-2.2685,-2.2432,-2.2578,-2.2721,-2.2721,-2.2721,-2.2799,-2.3052,-2.2886,-2.2808,-2.3062,-2.3091,-2.3091,-2.3091,-2.3091,-2.3091,-2.3091,-2.3091,-2.3091,-2.3091,-2.3507,-2.3594,-2.3135,-2.3507,-2.3551,-2.3091,-2.3091,-2.3091,-2.3091,-2.3091,-2.3091,-2.3091,-2.3091,-2.3091,-2.3091,-2.3091,-2.3091,-2.3091,-2.3091,-2.3091,-2.3003,-2.18,-2.0576,-1.9625,-2.0845,-2.0576,-1.9807,-2.2227,-2.4092,-2.5588,-2.8291,-2.5864,-2.4272,-2.5764,-2.4658,-2.4105,-2.56,-2.683,-2.7558,-2.7558,-2.6922,-2.5915,-2.4527,-2.3994,-2.3035,-2.1378,-2.1739,-2.252,-2.3564,-2.1201,-1.9621,-1.936,-1.8365,-1.787,-1.787,-1.6709,-1.725,-1.9497,-1.8272,-1.8026,-1.869,-1.9022,-1.9401,-1.9812,-2.0339,-2.1062,-2.1858,-2.1912,-2.1963,-2.2031,-2.2373,-2.2539,-2.2607,-2.2945,-2.2857,-2.2617,-2.2955,-2.2847,-2.2627,-2.2964,-2.3091,-2.3091,-2.3091,-2.3091,-2.3023,-2.2643,-2.2789,-2.3013,-2.2676,-2.2808,-2.3091,-2.3091,-2.3091,-2.3091,-2.3091,-2.3091,-2.3091,-2.3091,-2.3091,-2.3091,-2.3091,-2.3091,-2.3091,-2.3091,-2.3091,-2.3091,-2.3091,-2.3091,-2.3091,-2.3091,-2.313,-2.3149,-2.3149,-2.3188,-2.3208,-2.3208,-2.413,-2.4272,-2.3237,-2.4112,-2.4168,-2.3135,-2.313,-2.3149,-2.3149,-2.3188,-2.3169,-2.3091,-2.3091,-2.3091,-2.3091,-2.3091,-2.3091,-2.3091,-2.3091,-2.3091,-2.3003,-2.1889,-2.0755,-1.9761,-2.098,-2.0711,-1.9943,-2.2271,-2.4478,-2.6348,-2.8291,-2.5703,-2.3955,-2.5469,-2.3494,-2.2182,-2.3737,-2.5396,-2.647,-2.647,-2.6698,-2.6337,-2.5006,-2.4157,-2.3141,-2.1686,-2.2319,-2.2677,-2.2392,-2.1806,-2.0457,-1.8195,-1.8726,-1.9093,-1.9093,-1.8856,-1.8948,-1.9497,-1.8272,-1.7786,-1.7942,-1.7041,-1.7184,-1.8239,-1.9303,-2.0365,-2.1471,-2.2107,-2.2568,-2.2808,-2.2607,-2.2672,-2.2974,-2.3062,-2.3042,-2.2974,-2.3062,-2.3033,-2.2974,-2.3062,-2.3091,-2.3091,-2.3091,-2.3091,-2.3081,-2.2984,-2.3023,-2.3081,-2.2984,-2.3023,-2.3091,-2.3091,-2.3091,-2.3091,-2.3091,-2.3091,-2.3091,-2.3091,-2.3091,-2.3091,-2.3091,-2.3091,-2.3091,-2.3091,-2.3091,-2.3091,-2.3091,-2.3091,-2.3091,-2.3091,-2.3437,-2.3652,-2.3652,-2.3945,-2.4141,-2.4141,-2.4053,-2.39,-2.3643,-2.353,-2.3343,-2.3091,-2.3467,-2.3652,-2.3652,-2.3975,-2.3799,-2.3091,-2.3091,-2.3091,-2.3091,-2.3091,-2.3091,-2.3091,-2.3091,-2.3091,-2.3091,-2.2818,-2.1987,-2.1025,-2.2217,-2.1987,-2.1069,-2.2545,-2.3963,-2.5168,-2.7384,-2.5276,-2.3596,-2.3698,-2.2293,-2.1425,-2.219,-2.3716,-2.4765,-2.4583,-2.5398,-2.5596,-2.4757,-2.4674,-2.4353,-2.3683,-2.3867,-2.3556,-2.2557,-2.1611,-2.0145,-1.797,-1.8905,-1.9497,-1.9497,-2.0629,-2.1221,-2.1221,-1.8872,-1.8002,-1.8503,-1.6662,-1.6796,-1.8596,-1.9222,-2.0486,-2.2199,-2.2631,-2.2896,-2.3081,-2.2857,-2.2896,-2.3091,-2.3091,-2.3091,-2.3091,-2.3091,-2.3091,-2.3091,-2.3091,-2.3091,-2.3091,-2.3091,-2.3091,-2.3091,-2.3091,-2.3091,-2.3091,-2.3091,-2.3091,-2.3091,-2.3091,-2.3091,-2.3091,-2.3091,-2.3091,-2.295,-2.2359,-2.2677,-2.2906,-2.235,-2.2721,-2.3091,-2.3091,-2.3091,-2.3091,-2.3091,-2.3091,-2.3169,-2.3428,-2.3652,-2.3867,-2.4072,-2.4287,-2.4414,-2.4414,-2.4209,-2.4092,-2.4092,-2.3867,-2.3705,-2.3705,-2.3965,-2.4092,-2.4092,-2.4307,-2.4189,-2.3705,-2.3545,-2.3447,-2.3437,-2.3188,-2.3091,-2.3091,-2.3091,-2.3091,-2.3091,-2.3091,-2.2403,-2.1436,-2.2633,-2.2359,-2.1436,-2.2633,-2.3844,-2.4787,-2.5936,-2.4437,-2.2951,-2.1722,-2.1067,-2.0818,-2.1085,-2.219,-2.3069,-2.33,-2.4167,-2.4762,-2.4679,-2.5267,-2.5693,-2.5693,-2.54,-2.4498,-2.2797,-2.1168,-1.9574,-1.7923,-1.9051,-1.9645,-1.9587,-2.1806,-2.2919,-2.2775,-1.9596,-1.8411,-1.9131,-1.6835,-1.7109,-1.9497,-1.9497,-2.0863,-2.3091,-2.3091,-2.3091,-2.3091,-2.3091,-2.3091,-2.3091,-2.3091,-2.3091,-2.3091,-2.3091,-2.3091,-2.3091,-2.3091,-2.3091,-2.3091,-2.3091,-2.3091,-2.3091,-2.3091,-2.3091,-2.3091,-2.3091,-2.3091,-2.311,-2.3188,-2.3208,-2.3227,-2.3296,-2.3198,-2.2765,-2.1569,-2.2076,-2.2511,-2.1571,-2.2232,-2.2997,-2.3296,-2.3315,-2.3315,-2.3315,-2.3315,-2.3486,-2.3857,-2.3965,-2.418,-2.46,-2.4639,-2.4639,-2.4639,-2.457,-2.4531,-2.4531,-2.4453,-2.4414,-2.4414,-2.4492,-2.4531,-2.4531,-2.46,-2.4639,-2.4639,-2.4209,-2.3965,-2.3887,-2.3447,-2.3247,-2.3305,-2.3237,-2.3247,-2.3305,-2.3237,-2.265,-2.1803,-2.275,-2.2492,-2.1712,-2.2721,-2.3714,-2.45,-2.4156,-2.268,-2.143,-2.1279,-1.9932,-1.9382,-2.0952,-2.1307,-2.2269,-2.472,-2.4914,-2.5142,-2.6016,-2.5898,-2.5693,-2.5693,-2.5635,-2.4423,-2.1615,-2.1203,-1.9797,-1.6995,-1.9161,-2.0272,-1.9865,-2.1599,-2.2189,-2.1525,-1.9988,-1.8818,-1.7917,-1.648,-1.7109,-1.9497,-1.9497,-2.0863,-2.3091,-2.3091,-2.3091,-2.3091,-2.3091,-2.3091,-2.3091,-2.3091,-2.3091,-2.3091,-2.3091,-2.3091,-2.3091,-2.3091,-2.3091,-2.3091,-2.3091,-2.3091,-2.3091,-2.3091,-2.3091,-2.3091,-2.3091,-2.3091,-2.3188,-2.3603,-2.3701,-2.3799,-2.416,-2.3627,-2.2765,-2.1569,-2.1426,-2.1643,-2.1871,-2.2035,-2.2611,-2.3997,-2.4238,-2.4238,-2.4238,-2.4238,-2.4268,-2.4326,-2.4668,-2.5068,-2.5469,-2.5508,-2.5508,-2.5508,-2.5195,-2.5028,-2.5028,-2.4619,-2.4414,-2.4414,-2.4785,-2.5028,-2.5028,-2.5361,-2.5508,-2.5508,-2.5107,-2.4697,-2.4316,-2.3896,-2.3906,-2.4173,-2.3857,-2.3906,-2.4219,-2.3848,-2.3602,-2.3428,-2.3193,-2.3003,-2.2862,-2.3047,-2.3222,-2.3343,-2.2702,-2.191,-2.1151,-2.0331,-1.9227,-1.9016,-2.0589,-2.0666,-2.0903,-2.2026,-2.3453,-2.4233,-2.3838,-2.4928,-2.5693,-2.5693,-2.5693,-2.4485,-2.1662,-2.2013,-2.0744,-1.7157,-2.0005,-2.0886,-1.9149,-2.1268,-2.1522,-1.9761,-1.9059,-1.8364,-1.7692,-1.6386,-1.7109,-1.9497,-1.9497,-2.0863,-2.3091,-2.3091,-2.3091,-2.3091,-2.3091,-2.3091,-2.3091,-2.3091,-2.3091,-2.3091,-2.3091,-2.3091,-2.3091,-2.3091,-2.3091,-2.3091,-2.3091,-2.3091,-2.296,-2.2306,-2.2076,-2.2076,-2.2076,-2.2307,-2.2721,-2.3596,-2.3965,-2.4189,-2.4375,-2.4075,-2.3286,-2.1305,-2.1452,-2.1746,-2.1306,-2.1772,-2.2694,-2.4144,-2.4414,-2.4414,-2.4414,-2.4414,-2.4502,-2.4756,-2.5176,-2.5518,-2.5674,-2.5957,-2.5996,-2.5703,-2.5049,-2.4562,-2.4337,-2.4102,-2.3999,-2.3999,-2.4939,-2.5439,-2.5439,-2.5586,-2.5693,-2.5684,-2.4772,-2.4507,-2.4766,-2.4336,-2.4238,-2.4394,-2.3975,-2.4033,-2.4385,-2.3965,-2.3789,-2.3769,-2.3574,-2.3305,-2.3091,-2.3091,-2.3091,-2.3091]}]]